Time,TemperatureF,DewpointF,PressureIn,WindDirection,WindDirectionDegrees,WindSpeedMPH,WindSpeedGustMPH,Humidity,HourlyPrecipIn,Conditions,Clouds,dailyrainin,SoftwareType,DateUTC
2013-01-23 00:00:00,16.2,5.2,30.36,WNW,299,5.2,7.5,61,0.00,,BKN100,0.00,VWS V14.01,2013-01-23 05:00:00,
2013-01-23 00:01:00,16.2,5.2,30.36,NW,311,5.9,10.3,61,0.00,,OVC070,0.00,VWS V14.01,2013-01-23 05:01:00,
2013-01-23 00:02:00,16.2,5.2,30.36,NW,306,4.4,5.6,61,0.00,,BKN100,0.00,VWS V14.01,2013-01-23 05:02:00,
2013-01-23 00:03:00,16.2,5.2,30.36,NW,304,5.9,7.5,61,0.00,,BKN100,0.00,VWS V14.01,2013-01-23 05:03:00,
2013-01-23 00:04:00,16.2,5.2,30.36,NW,304,0.0,0.0,61,0.00,,BKN100,0.00,VWS V14.01,2013-01-23 05:04:00,
2013-01-23 00:05:00,16.2,5.2,30.36,WNW,291,9.6,12.2,61,0.00,,OVC070,0.00,VWS V14.01,2013-01-23 05:05:00,
2013-01-23 00:06:00,16.2,5.2,30.36,WNW,287,8.9,13.2,61,0.00,,OVC070,0.00,VWS V14.01,2013-01-23 05:06:00,
2013-01-23 00:07:00,16.2,5.2,30.36,WNW,289,5.9,11.3,61,0.00,,OVC070,0.00,VWS V14.01,2013-01-23 05:07:00,
2013-01-23 00:08:00,16.2,5.2,30.36,NW,313,6.6,8.5,61,0.00,,OVC070,0.00,VWS V14.01,2013-01-23 05:08:00,
2013-01-23 00:09:00,16.2,5.2,30.36,WNW,285,3.7,4.7,61,0.00,,BKN100,0.00,VWS V14.01,2013-01-23 05:09:00,
2013-01-23 00:10:00,16.2,5.2,30.36,WNW,285,4.4,5.6,61,0.00,,OVC070,0.00,VWS V14.01,2013-01-23 05:10:00,
2013-01-23 00:11:00,16.2,5.2,30.36,NW,313,5.9,7.5,61,0.00,,OVC070,0.00,VWS V14.01,2013-01-23 05:11:00,
2013-01-23 00:12:00,16.2,5.2,30.36,WNW,301,4.4,7.5,61,0.00,,OVC070,0.00,VWS V14.01,2013-01-23 05:12:00,
2013-01-23 00:13:00,16.2,5.2,30.36,NW,305,5.2,11.3,61,0.00,,OVC070,0.00,VWS V14.01,2013-01-23 05:13:00,
2013-01-23 00:14:00,16.2,5.2,30.36,WNW,300,3.7,6.6,61,0.00,,BKN100,0.00,VWS V14.01,2013-01-23 05:14:00,
2013-01-23 00:15:00,16.2,5.2,30.36,WNW,300,0.0,6.6,61,0.00,,OVC070,0.00,VWS V14.01,2013-01-23 05:15:00,
2013-01-23 00:16:00,16.2,5.2,30.36,WNW,300,4.4,5.6,61,0.00,,OVC070,0.00,VWS V14.01,2013-01-23 05:16:00,
2013-01-23 00:17:00,16.2,5.2,30.36,WNW,300,0.0,5.6,61,0.00,,OVC070,0.00,VWS V14.01,2013-01-23 05:17:00,
2013-01-23 00:18:00,16.2,5.2,30.36,WNW,300,0.0,0.0,61,0.00,,OVC070,0.00,VWS V14.01,2013-01-23 05:18:00,
2013-01-23 00:19:00,16.2,5.2,30.36,WNW,301,5.9,8.5,61,0.00,,BKN100,0.00,VWS V14.01,2013-01-23 05:19:00,
2013-01-23 00:20:00,16.2,5.2,30.36,NW,305,5.2,8.5,61,0.00,,OVC070,0.00,VWS V14.01,2013-01-23 05:20:00,
2013-01-23 00:21:00,16.0,5.0,30.36,WNW,284,5.9,8.5,61,0.00,,OVC070,0.00,VWS V14.01,2013-01-23 05:21:00,
2013-01-23 00:22:00,16.0,5.0,30.36,WNW,284,3.7,7.5,61,0.00,,OVC070,0.00,VWS V14.01,2013-01-23 05:22:00,
2013-01-23 00:23:00,16.0,5.0,30.36,WNW,284,4.4,5.6,61,0.00,,OVC070,0.00,VWS V14.01,2013-01-23 05:23:00,
2013-01-23 00:24:00,16.0,5.0,30.36,WNW,284,5.2,6.6,61,0.00,,OVC070,0.00,VWS V14.01,2013-01-23 05:24:00,
2013-01-23 00:25:00,16.0,5.0,30.33,WNW,284,5.2,6.6,61,0.00,,BKN100,0.00,VWS V14.01,2013-01-23 05:25:00,
2013-01-23 00:26:00,16.0,5.0,30.33,WNW,284,0.0,6.6,61,0.00,,OVC070,0.00,VWS V14.01,2013-01-23 05:26:00,
2013-01-23 00:27:00,16.0,5.0,30.33,WNW,284,0.0,0.0,61,0.00,,OVC070,0.00,VWS V14.01,2013-01-23 05:27:00,
2013-01-23 00:28:00,15.8,5.4,30.33,WNW,284,0.0,0.0,63,0.00,,OVC070,0.00,VWS V14.01,2013-01-23 05:28:00,
2013-01-23 00:29:00,15.8,5.4,30.33,West,265,7.4,9.4,63,0.00,,OVC070,0.00,VWS V14.01,2013-01-23 05:29:00,
2013-01-23 00:30:00,15.8,5.4,30.33,WNW,289,5.9,9.4,63,0.00,,BKN100,0.00,VWS V14.01,2013-01-23 05:30:00,
2013-01-23 00:31:00,15.8,5.4,30.33,WNW,286,9.6,12.2,63,0.00,,OVC070,0.00,VWS V14.01,2013-01-23 05:31:00,
2013-01-23 00:32:00,15.8,4.8,30.33,West,273,5.9,12.2,61,0.00,,OVC070,0.00,VWS V14.01,2013-01-23 05:32:00,
2013-01-23 00:33:00,15.8,5.4,30.33,West,273,6.6,8.5,63,0.00,,OVC070,0.00,VWS V14.01,2013-01-23 05:33:00,
2013-01-23 00:34:00,15.6,5.2,30.33,West,275,0.0,8.5,63,0.00,,OVC070,0.00,VWS V14.01,2013-01-23 05:34:00,
2013-01-23 00:35:00,15.6,5.2,30.33,West,273,4.4,7.5,63,0.00,,BKN100,0.00,VWS V14.01,2013-01-23 05:35:00,
2013-01-23 00:36:00,15.6,5.2,30.33,West,273,0.0,5.6,63,0.00,,OVC070,0.00,VWS V14.01,2013-01-23 05:36:00,
2013-01-23 00:37:00,15.6,5.2,30.33,West,274,0.0,0.0,63,0.00,,OVC070,0.00,VWS V14.01,2013-01-23 05:37:00,
2013-01-23 00:38:00,15.6,5.2,30.33,West,273,5.9,8.5,63,0.00,,OVC070,0.00,VWS V14.01,2013-01-23 05:38:00,
2013-01-23 00:39:00,15.6,5.2,30.33,West,273,4.4,7.5,63,0.00,,OVC070,0.00,VWS V14.01,2013-01-23 05:39:00,
2013-01-23 00:40:00,15.4,5.1,30.36,West,273,0.0,5.6,63,0.00,,OVC100,0.00,VWS V14.01,2013-01-23 05:40:00,
2013-01-23 00:41:00,15.4,5.1,30.36,West,273,0.0,0.0,63,0.00,,OVC070,0.00,VWS V14.01,2013-01-23 05:41:00,
2013-01-23 00:42:00,15.4,5.1,30.36,West,273,0.0,0.0,63,0.00,,OVC070,0.00,VWS V14.01,2013-01-23 05:42:00,
2013-01-23 00:43:00,15.4,5.1,30.36,WNW,288,0.0,8.5,63,0.00,,OVC070,0.00,VWS V14.01,2013-01-23 05:43:00,
2013-01-23 00:44:00,15.4,5.1,30.36,WNW,288,0.0,0.0,63,0.00,,OVC070,0.00,VWS V14.01,2013-01-23 05:44:00,
2013-01-23 00:45:00,15.4,5.1,30.36,WNW,288,0.0,0.0,63,0.00,,OVC100,0.00,VWS V14.01,2013-01-23 05:45:00,
2013-01-23 00:46:00,15.4,5.1,30.36,WNW,288,4.4,5.6,63,0.00,,OVC070,0.00,VWS V14.01,2013-01-23 05:46:00,
2013-01-23 00:47:00,15.3,4.9,30.36,WNW,288,0.0,5.6,63,0.00,,OVC070,0.00,VWS V14.01,2013-01-23 05:47:00,
2013-01-23 00:48:00,15.3,4.9,30.36,WNW,288,5.9,7.5,63,0.00,,OVC070,0.00,VWS V14.01,2013-01-23 05:48:00,
2013-01-23 00:49:00,15.3,4.9,30.36,WNW,288,0.0,7.5,63,0.00,,OVC070,0.00,VWS V14.01,2013-01-23 05:49:00,
2013-01-23 00:50:00,15.3,4.9,30.36,WNW,288,0.0,0.0,63,0.00,,OVC100,0.00,VWS V14.01,2013-01-23 05:50:00,
2013-01-23 00:51:00,15.3,4.9,30.36,WNW,288,0.0,0.0,63,0.00,,OVC070,0.00,VWS V14.01,2013-01-23 05:51:00,
2013-01-23 00:52:00,15.3,4.9,30.36,WNW,288,4.4,5.6,63,0.00,,OVC070,0.00,VWS V14.01,2013-01-23 05:52:00,
2013-01-23 00:53:00,15.3,4.9,30.36,WNW,288,0.0,7.5,63,0.00,,OVC070,0.00,VWS V14.01,2013-01-23 05:53:00,
2013-01-23 00:54:00,15.1,4.7,30.36,WNW,288,0.0,4.7,63,0.00,,OVC070,0.00,VWS V14.01,2013-01-23 05:54:00,
2013-01-23 00:55:00,15.1,4.7,30.36,WNW,288,0.0,0.0,63,0.00,,OVC100,0.00,VWS V14.01,2013-01-23 05:55:00,
2013-01-23 00:56:00,15.1,4.7,30.36,WNW,288,0.0,0.0,63,0.00,,OVC070,0.00,VWS V14.01,2013-01-23 05:56:00,
2013-01-23 00:57:00,15.1,4.7,30.36,WNW,288,0.0,0.0,63,0.00,,OVC070,0.00,VWS V14.01,2013-01-23 05:57:00,
2013-01-23 00:58:00,15.1,4.7,30.36,WNW,288,0.0,0.0,63,0.00,,OVC070,0.00,VWS V14.01,2013-01-23 05:58:00,
2013-01-23 00:59:00,15.1,4.7,30.36,WNW,288,0.0,0.0,63,0.00,,OVC070,0.00,VWS V14.01,2013-01-23 05:59:00,
2013-01-23 01:00:00,15.1,4.7,30.36,WNW,290,0.0,0.0,63,0.00,,OVC100,0.00,VWS V14.01,2013-01-23 06:00:00,
2013-01-23 01:01:00,15.1,4.7,30.36,WNW,290,0.0,0.0,63,0.00,,OVC070,0.00,VWS V14.01,2013-01-23 06:01:00,
2013-01-23 01:02:00,14.9,4.6,30.36,WNW,285,0.0,0.0,63,0.00,,OVC070,0.00,VWS V14.01,2013-01-23 06:02:00,
2013-01-23 01:03:00,14.9,4.6,30.36,WNW,291,0.0,0.0,63,0.00,,OVC070,0.00,VWS V14.01,2013-01-23 06:03:00,
2013-01-23 01:04:00,14.9,4.6,30.36,WNW,288,0.0,0.0,63,0.00,,OVC070,0.00,VWS V14.01,2013-01-23 06:04:00,
2013-01-23 01:05:00,14.9,4.6,30.36,WNW,290,0.0,0.0,63,0.00,,OVC070,0.00,VWS V14.01,2013-01-23 06:05:00,
2013-01-23 01:06:00,14.9,4.6,30.36,WNW,288,0.0,0.0,63,0.00,,OVC100,0.00,VWS V14.01,2013-01-23 06:06:00,
2013-01-23 01:07:00,14.9,4.6,30.36,WNW,288,0.0,0.0,63,0.00,,OVC070,0.00,VWS V14.01,2013-01-23 06:07:00,
2013-01-23 01:08:00,14.9,4.6,30.36,WNW,288,0.0,0.0,63,0.00,,OVC070,0.00,VWS V14.01,2013-01-23 06:08:00,
2013-01-23 01:09:00,14.9,4.6,30.36,WNW,288,0.0,0.0,63,0.00,,OVC070,0.00,VWS V14.01,2013-01-23 06:09:00,
2013-01-23 01:10:00,14.9,4.6,30.36,WNW,288,0.0,0.0,63,0.00,,OVC070,0.00,VWS V14.01,2013-01-23 06:10:00,
2013-01-23 01:11:00,14.7,4.4,30.36,WNW,287,0.0,0.0,63,0.00,,OVC100,0.00,VWS V14.01,2013-01-23 06:11:00,
2013-01-23 01:12:00,14.7,4.4,30.36,WNW,288,0.0,0.0,63,0.00,,OVC070,0.00,VWS V14.01,2013-01-23 06:12:00,
2013-01-23 01:13:00,14.7,4.4,30.36,WNW,288,0.0,0.0,63,0.00,,OVC070,0.00,VWS V14.01,2013-01-23 06:13:00,
2013-01-23 01:14:00,14.7,4.4,30.36,WNW,288,0.0,0.0,63,0.00,,OVC070,0.00,VWS V14.01,2013-01-23 06:14:00,
2013-01-23 01:15:00,14.5,4.2,30.36,WNW,291,0.0,0.0,63,0.00,,OVC070,0.00,VWS V14.01,2013-01-23 06:15:00,
2013-01-23 01:16:00,14.5,4.2,30.36,WNW,288,0.0,0.0,63,0.00,,OVC100,0.00,VWS V14.01,2013-01-23 06:16:00,
2013-01-23 01:17:00,14.5,4.2,30.36,WNW,288,0.0,0.0,63,0.00,,OVC070,0.00,VWS V14.01,2013-01-23 06:17:00,
2013-01-23 01:18:00,14.5,4.2,30.36,WNW,288,0.0,0.0,63,0.00,,OVC070,0.00,VWS V14.01,2013-01-23 06:18:00,
2013-01-23 01:19:00,14.5,4.2,30.36,WNW,288,0.0,0.0,63,0.00,,OVC070,0.00,VWS V14.01,2013-01-23 06:19:00,
2013-01-23 01:20:00,14.5,4.2,30.36,WNW,288,0.0,0.0,63,0.00,,OVC070,0.00,VWS V14.01,2013-01-23 06:20:00,
2013-01-23 01:21:00,14.4,4.1,30.36,WNW,288,0.0,0.0,63,0.00,,OVC100,0.00,VWS V14.01,2013-01-23 06:21:00,
2013-01-23 01:22:00,14.4,4.1,30.36,WNW,288,0.0,0.0,63,0.00,,OVC070,0.00,VWS V14.01,2013-01-23 06:22:00,
2013-01-23 01:23:00,14.4,4.1,30.36,WNW,288,0.0,0.0,63,0.00,,OVC070,0.00,VWS V14.01,2013-01-23 06:23:00,
2013-01-23 01:24:00,14.4,4.1,30.36,WNW,288,0.0,0.0,63,0.00,,OVC070,0.00,VWS V14.01,2013-01-23 06:24:00,
2013-01-23 01:25:00,14.4,4.1,30.36,WNW,288,0.0,0.0,63,0.00,,OVC070,0.00,VWS V14.01,2013-01-23 06:25:00,
2013-01-23 01:26:00,14.2,3.9,30.33,WNW,287,0.0,0.0,63,0.00,,OVC070,0.00,VWS V14.01,2013-01-23 06:26:00,
2013-01-23 01:27:00,14.2,3.9,30.33,WNW,290,0.0,0.0,63,0.00,,OVC100,0.00,VWS V14.01,2013-01-23 06:27:00,
2013-01-23 01:28:00,14.2,3.9,30.33,WNW,286,0.0,0.0,63,0.00,,OVC070,0.00,VWS V14.01,2013-01-23 06:28:00,
2013-01-23 01:29:00,14.2,3.9,30.33,WNW,288,0.0,0.0,63,0.00,,OVC070,0.00,VWS V14.01,2013-01-23 06:29:00,
2013-01-23 01:30:00,14.2,3.9,30.33,WNW,288,0.0,0.0,63,0.00,,OVC070,0.00,VWS V14.01,2013-01-23 06:30:00,
2013-01-23 01:31:00,14.0,3.7,30.33,WNW,288,0.0,0.0,63,0.00,,OVC070,0.00,VWS V14.01,2013-01-23 06:31:00,
2013-01-23 01:32:00,14.0,3.7,30.33,WNW,288,0.0,0.0,63,0.00,,OVC100,0.00,VWS V14.01,2013-01-23 06:32:00,
2013-01-23 01:33:00,13.8,3.5,30.33,WNW,287,0.0,0.0,63,0.00,,OVC070,0.00,VWS V14.01,2013-01-23 06:33:00,
2013-01-23 01:34:00,13.8,3.5,30.33,WNW,286,0.0,0.0,63,0.00,,OVC070,0.00,VWS V14.01,2013-01-23 06:34:00,
2013-01-23 01:35:00,13.8,3.5,30.33,WNW,288,0.0,0.0,63,0.00,,OVC070,0.00,VWS V14.01,2013-01-23 06:35:00,
2013-01-23 01:36:00,13.8,3.5,30.33,WNW,288,0.0,0.0,63,0.00,,OVC070,0.00,VWS V14.01,2013-01-23 06:36:00,
2013-01-23 01:37:00,13.8,3.5,30.33,WNW,288,0.0,0.0,63,0.00,,OVC100,0.00,VWS V14.01,2013-01-23 06:37:00,
2013-01-23 01:38:00,13.8,3.5,30.33,WNW,288,0.0,0.0,63,0.00,,OVC070,0.00,VWS V14.01,2013-01-23 06:38:00,
2013-01-23 01:39:00,13.8,3.5,30.33,WNW,288,0.0,0.0,63,0.00,,OVC070,0.00,VWS V14.01,2013-01-23 06:39:00,
2013-01-23 01:40:00,13.6,3.4,30.33,WNW,288,0.0,0.0,63,0.00,,OVC070,0.00,VWS V14.01,2013-01-23 06:40:00,
2013-01-23 01:41:00,13.6,3.4,30.33,WNW,288,0.0,0.0,63,0.00,,OVC070,0.00,VWS V14.01,2013-01-23 06:41:00,
2013-01-23 01:42:00,13.6,3.4,30.33,WNW,290,0.0,0.0,63,0.00,,OVC100,0.00,VWS V14.01,2013-01-23 06:42:00,
2013-01-23 01:43:00,13.6,3.4,30.33,WNW,286,0.0,0.0,63,0.00,,OVC070,0.00,VWS V14.01,2013-01-23 06:43:00,
2013-01-23 01:44:00,13.5,3.2,30.33,WNW,290,0.0,0.0,63,0.00,,OVC070,0.00,VWS V14.01,2013-01-23 06:44:00,
2013-01-23 01:45:00,13.5,3.2,30.33,WNW,288,0.0,0.0,63,0.00,,OVC070,0.00,VWS V14.01,2013-01-23 06:45:00,
2013-01-23 01:46:00,13.5,3.2,30.33,WNW,288,0.0,0.0,63,0.00,,OVC070,0.00,VWS V14.01,2013-01-23 06:46:00,
2013-01-23 01:47:00,13.5,3.2,30.33,WNW,287,0.0,0.0,63,0.00,,OVC100,0.00,VWS V14.01,2013-01-23 06:47:00,
2013-01-23 01:48:00,13.5,3.2,30.33,WNW,290,0.0,0.0,63,0.00,,OVC070,0.00,VWS V14.01,2013-01-23 06:48:00,
2013-01-23 01:49:00,13.3,3.0,30.33,WNW,288,0.0,0.0,63,0.00,,OVC070,0.00,VWS V14.01,2013-01-23 06:49:00,
2013-01-23 01:50:00,13.3,3.0,30.33,WNW,288,0.0,0.0,63,0.00,,OVC070,0.00,VWS V14.01,2013-01-23 06:50:00,
2013-01-23 01:51:00,13.3,3.0,30.33,WNW,288,0.0,0.0,63,0.00,,OVC070,0.00,VWS V14.01,2013-01-23 06:51:00,
2013-01-23 01:52:00,13.3,3.0,30.33,WNW,288,0.0,0.0,63,0.00,,OVC100,0.00,VWS V14.01,2013-01-23 06:52:00,
2013-01-23 01:53:00,13.3,3.0,30.33,WNW,288,0.0,0.0,63,0.00,,OVC070,0.00,VWS V14.01,2013-01-23 06:53:00,
2013-01-23 01:54:00,13.3,3.0,30.33,WNW,288,0.0,0.0,63,0.00,,OVC070,0.00,VWS V14.01,2013-01-23 06:54:00,
2013-01-23 01:55:00,13.3,3.0,30.33,WNW,288,0.0,0.0,63,0.00,,OVC070,0.00,VWS V14.01,2013-01-23 06:55:00,
2013-01-23 01:56:00,13.3,3.0,30.33,WNW,288,0.0,0.0,63,0.00,,OVC070,0.00,VWS V14.01,2013-01-23 06:56:00,
2013-01-23 01:57:00,13.3,3.0,30.33,WNW,288,0.0,0.0,63,0.00,,BKN095,0.00,VWS V14.01,2013-01-23 06:57:00,
2013-01-23 01:58:00,13.1,2.8,30.33,WNW,288,0.0,0.0,63,0.00,,OVC070,0.00,VWS V14.01,2013-01-23 06:58:00,
2013-01-23 01:59:00,13.1,2.8,30.33,WNW,288,0.0,0.0,63,0.00,,OVC070,0.00,VWS V14.01,2013-01-23 06:59:00,
2013-01-23 02:00:00,13.1,2.8,30.33,WNW,288,0.0,0.0,63,0.00,,OVC070,0.00,VWS V14.01,2013-01-23 07:00:00,
2013-01-23 02:01:00,13.1,2.8,30.33,WNW,288,0.0,0.0,63,0.00,,OVC070,0.00,VWS V14.01,2013-01-23 07:01:00,
2013-01-23 02:02:00,13.1,2.8,30.33,WNW,290,0.0,0.0,63,0.00,,OVC070,0.00,VWS V14.01,2013-01-23 07:02:00,
2013-01-23 02:03:00,12.9,2.7,30.33,WNW,292,0.0,0.0,63,0.00,,BKN095,0.00,VWS V14.01,2013-01-23 07:03:00,
2013-01-23 02:04:00,12.9,2.7,30.33,WNW,288,0.0,0.0,63,0.00,,OVC070,0.00,VWS V14.01,2013-01-23 07:04:00,
2013-01-23 02:05:00,12.9,2.7,30.33,WNW,288,0.0,0.0,63,0.00,,OVC070,0.00,VWS V14.01,2013-01-23 07:05:00,
2013-01-23 02:06:00,12.9,2.7,30.33,WNW,288,0.0,0.0,63,0.00,,OVC070,0.00,VWS V14.01,2013-01-23 07:06:00,
2013-01-23 02:07:00,12.9,2.7,30.33,WNW,288,0.0,0.0,63,0.00,,OVC070,0.00,VWS V14.01,2013-01-23 07:07:00,
2013-01-23 02:08:00,12.9,2.7,30.33,WNW,288,0.0,0.0,63,0.00,,BKN095,0.00,VWS V14.01,2013-01-23 07:08:00,
2013-01-23 02:09:00,12.9,2.7,30.33,WNW,289,0.0,0.0,63,0.00,,OVC070,0.00,VWS V14.01,2013-01-23 07:09:00,
2013-01-23 02:10:00,12.9,2.7,30.33,WNW,289,0.0,0.0,63,0.00,,OVC070,0.00,VWS V14.01,2013-01-23 07:10:00,
2013-01-23 02:11:00,12.9,2.7,30.33,WNW,288,0.0,0.0,63,0.00,,OVC070,0.00,VWS V14.01,2013-01-23 07:11:00,
2013-01-23 02:12:00,12.7,2.5,30.33,WNW,287,0.0,0.0,63,0.00,,OVC070,0.00,VWS V14.01,2013-01-23 07:12:00,
2013-01-23 02:13:00,12.7,2.5,30.33,WNW,288,0.0,0.0,63,0.00,,BKN095,0.00,VWS V14.01,2013-01-23 07:13:00,
2013-01-23 02:14:00,12.7,2.5,30.33,WNW,288,0.0,0.0,63,0.00,,OVC070,0.00,VWS V14.01,2013-01-23 07:14:00,
2013-01-23 02:15:00,12.7,2.5,30.33,WNW,288,0.0,0.0,63,0.00,,OVC070,0.00,VWS V14.01,2013-01-23 07:15:00,
2013-01-23 02:16:00,12.7,2.5,30.33,WNW,288,0.0,0.0,63,0.00,,OVC070,0.00,VWS V14.01,2013-01-23 07:16:00,
2013-01-23 02:17:00,12.7,2.5,30.33,WNW,288,0.0,0.0,63,0.00,,OVC070,0.00,VWS V14.01,2013-01-23 07:17:00,
2013-01-23 02:18:00,12.7,2.5,30.33,WNW,288,0.0,0.0,63,0.00,,BKN095,0.00,VWS V14.01,2013-01-23 07:18:00,
2013-01-23 02:19:00,12.6,2.3,30.33,WNW,288,0.0,0.0,63,0.00,,OVC070,0.00,VWS V14.01,2013-01-23 07:19:00,
2013-01-23 02:20:00,12.6,2.3,30.33,WNW,288,0.0,0.0,63,0.00,,OVC070,0.00,VWS V14.01,2013-01-23 07:20:00,
2013-01-23 02:21:00,12.6,2.3,30.33,WNW,288,0.0,0.0,63,0.00,,OVC070,0.00,VWS V14.01,2013-01-23 07:21:00,
2013-01-23 02:22:00,12.6,2.3,30.33,WNW,287,0.0,0.0,63,0.00,,OVC070,0.00,VWS V14.01,2013-01-23 07:22:00,
2013-01-23 02:23:00,12.6,2.3,30.33,WNW,287,0.0,0.0,63,0.00,,BKN095,0.00,VWS V14.01,2013-01-23 07:23:00,
2013-01-23 02:24:00,12.6,2.3,30.33,WNW,288,0.0,0.0,63,0.00,,OVC070,0.00,VWS V14.01,2013-01-23 07:24:00,
2013-01-23 02:25:00,12.6,2.3,30.33,WNW,288,0.0,0.0,63,0.00,,OVC070,0.00,VWS V14.01,2013-01-23 07:25:00,
2013-01-23 02:26:00,12.6,2.3,30.33,WNW,288,0.0,0.0,63,0.00,,OVC070,0.00,VWS V14.01,2013-01-23 07:26:00,
2013-01-23 02:27:00,12.4,2.2,30.33,WNW,288,0.0,0.0,63,0.00,,OVC070,0.00,VWS V14.01,2013-01-23 07:27:00,
2013-01-23 02:28:00,12.4,2.2,30.33,WNW,288,0.0,0.0,63,0.00,,BKN095,0.00,VWS V14.01,2013-01-23 07:28:00,
2013-01-23 02:29:00,12.4,2.2,30.33,WNW,288,0.0,0.0,63,0.00,,OVC070,0.00,VWS V14.01,2013-01-23 07:29:00,
2013-01-23 02:30:00,12.4,2.2,30.33,WNW,290,0.0,0.0,63,0.00,,OVC070,0.00,VWS V14.01,2013-01-23 07:30:00,
2013-01-23 02:31:00,12.4,2.2,30.33,WNW,287,0.0,0.0,63,0.00,,OVC070,0.00,VWS V14.01,2013-01-23 07:31:00,
2013-01-23 02:32:00,12.4,2.2,30.33,WNW,288,0.0,0.0,63,0.00,,OVC070,0.00,VWS V14.01,2013-01-23 07:32:00,
2013-01-23 02:33:00,12.4,2.2,30.33,WNW,288,0.0,0.0,63,0.00,,BKN095,0.00,VWS V14.01,2013-01-23 07:33:00,
2013-01-23 02:34:00,12.4,2.2,30.33,WNW,288,0.0,0.0,63,0.00,,OVC070,0.00,VWS V14.01,2013-01-23 07:34:00,
2013-01-23 02:35:00,12.4,2.2,30.33,WNW,288,0.0,0.0,63,0.00,,OVC070,0.00,VWS V14.01,2013-01-23 07:35:00,
2013-01-23 02:36:00,12.4,2.2,30.33,WNW,288,0.0,0.0,63,0.00,,OVC070,0.00,VWS V14.01,2013-01-23 07:36:00,
2013-01-23 02:37:00,12.4,2.2,30.33,WNW,288,0.0,0.0,63,0.00,,OVC070,0.00,VWS V14.01,2013-01-23 07:37:00,
2013-01-23 02:38:00,12.4,2.2,30.33,WNW,288,0.0,0.0,63,0.00,,BKN100,0.00,VWS V14.01,2013-01-23 07:38:00,
2013-01-23 02:39:00,12.4,2.2,30.33,WNW,288,0.0,0.0,63,0.00,,OVC070,0.00,VWS V14.01,2013-01-23 07:39:00,
2013-01-23 02:40:00,12.4,2.2,30.33,WNW,288,0.0,0.0,63,0.00,,OVC070,0.00,VWS V14.01,2013-01-23 07:40:00,
2013-01-23 02:41:00,12.4,2.2,30.33,WNW,288,0.0,0.0,63,0.00,,OVC070,0.00,VWS V14.01,2013-01-23 07:41:00,
2013-01-23 02:42:00,12.4,2.2,30.33,WNW,288,0.0,0.0,63,0.00,,OVC070,0.00,VWS V14.01,2013-01-23 07:42:00,
2013-01-23 02:43:00,12.4,2.2,30.33,WNW,288,0.0,0.0,63,0.00,,OVC070,0.00,VWS V14.01,2013-01-23 07:43:00,
2013-01-23 02:44:00,12.4,2.2,30.33,WNW,288,0.0,0.0,63,0.00,,BKN100,0.00,VWS V14.01,2013-01-23 07:44:00,
2013-01-23 02:45:00,12.4,2.2,30.33,WNW,288,0.0,0.0,63,0.00,,OVC070,0.00,VWS V14.01,2013-01-23 07:45:00,
2013-01-23 02:46:00,12.4,2.2,30.33,WNW,288,0.0,0.0,63,0.00,,OVC070,0.00,VWS V14.01,2013-01-23 07:46:00,
2013-01-23 02:47:00,12.4,2.2,30.33,WNW,288,0.0,0.0,63,0.00,,OVC070,0.00,VWS V14.01,2013-01-23 07:47:00,
2013-01-23 02:48:00,12.4,2.2,30.33,WNW,288,0.0,0.0,63,0.00,,OVC070,0.00,VWS V14.01,2013-01-23 07:48:00,
2013-01-23 02:49:00,12.4,2.2,30.33,WNW,288,0.0,0.0,63,0.00,,BKN100,0.00,VWS V14.01,2013-01-23 07:49:00,
2013-01-23 02:50:00,12.4,2.2,30.33,WNW,288,0.0,0.0,63,0.00,,OVC070,0.00,VWS V14.01,2013-01-23 07:50:00,
2013-01-23 02:51:00,12.4,2.2,30.33,WNW,288,0.0,0.0,63,0.00,,OVC070,0.00,VWS V14.01,2013-01-23 07:51:00,
2013-01-23 02:52:00,12.4,2.2,30.33,WNW,286,0.0,0.0,63,0.00,,OVC070,0.00,VWS V14.01,2013-01-23 07:52:00,
2013-01-23 02:53:00,12.4,2.2,30.33,WNW,288,0.0,0.0,63,0.00,,OVC070,0.00,VWS V14.01,2013-01-23 07:53:00,
2013-01-23 02:54:00,12.4,2.2,30.33,WNW,288,0.0,0.0,63,0.00,,BKN100,0.00,VWS V14.01,2013-01-23 07:54:00,
2013-01-23 02:55:00,12.4,2.2,30.33,WNW,288,0.0,0.0,63,0.00,,OVC070,0.00,VWS V14.01,2013-01-23 07:55:00,
2013-01-23 02:56:00,12.4,2.2,30.33,WNW,288,0.0,0.0,63,0.00,,OVC070,0.00,VWS V14.01,2013-01-23 07:56:00,
2013-01-23 02:57:00,12.4,2.2,30.33,WNW,288,0.0,0.0,63,0.00,,OVC070,0.00,VWS V14.01,2013-01-23 07:57:00,
2013-01-23 02:58:00,12.4,2.2,30.33,WNW,288,0.0,0.0,63,0.00,,OVC070,0.00,VWS V14.01,2013-01-23 07:58:00,
2013-01-23 02:59:00,12.4,2.2,30.33,WNW,289,0.0,0.0,63,0.00,,BKN100,0.00,VWS V14.01,2013-01-23 07:59:00,
2013-01-23 03:00:00,12.4,2.2,30.33,WNW,290,0.0,0.0,63,0.00,,OVC070,0.00,VWS V14.01,2013-01-23 08:00:00,
2013-01-23 03:01:00,12.2,2.0,30.33,WNW,288,0.0,0.0,63,0.00,,OVC070,0.00,VWS V14.01,2013-01-23 08:01:00,
2013-01-23 03:02:00,12.2,2.0,30.33,WNW,287,0.0,0.0,63,0.00,,OVC070,0.00,VWS V14.01,2013-01-23 08:02:00,
2013-01-23 03:03:00,12.2,2.0,30.33,WNW,288,0.0,0.0,63,0.00,,OVC070,0.00,VWS V14.01,2013-01-23 08:03:00,
2013-01-23 03:04:00,12.2,2.0,30.33,WNW,288,0.0,0.0,63,0.00,,BKN100,0.00,VWS V14.01,2013-01-23 08:04:00,
2013-01-23 03:05:00,12.2,2.0,30.33,WNW,288,0.0,0.0,63,0.00,,OVC070,0.00,VWS V14.01,2013-01-23 08:05:00,
2013-01-23 03:06:00,12.2,2.0,30.33,WNW,290,0.0,0.0,63,0.00,,OVC070,0.00,VWS V14.01,2013-01-23 08:06:00,
2013-01-23 03:07:00,12.2,2.0,30.33,WNW,286,0.0,0.0,63,0.00,,OVC070,0.00,VWS V14.01,2013-01-23 08:07:00,
2013-01-23 03:08:00,12.2,2.0,30.33,WNW,288,0.0,0.0,63,0.00,,OVC070,0.00,VWS V14.01,2013-01-23 08:08:00,
2013-01-23 03:09:00,12.2,2.0,30.33,WNW,288,0.0,0.0,63,0.00,,OVC070,0.00,VWS V14.01,2013-01-23 08:09:00,
2013-01-23 03:10:00,12.2,2.0,30.33,WNW,288,0.0,0.0,63,0.00,,BKN100,0.00,VWS V14.01,2013-01-23 08:10:00,
2013-01-23 03:11:00,12.2,2.0,30.33,WNW,288,0.0,0.0,63,0.00,,OVC070,0.00,VWS V14.01,2013-01-23 08:11:00,
2013-01-23 03:12:00,12.2,2.0,30.33,WNW,288,0.0,0.0,63,0.00,,OVC070,0.00,VWS V14.01,2013-01-23 08:12:00,
2013-01-23 03:13:00,12.2,2.0,30.33,WNW,286,0.0,0.0,63,0.00,,OVC070,0.00,VWS V14.01,2013-01-23 08:13:00,
2013-01-23 03:14:00,12.2,2.0,30.33,WNW,290,0.0,0.0,63,0.00,,OVC070,0.00,VWS V14.01,2013-01-23 08:14:00,
2013-01-23 03:15:00,12.2,2.0,30.33,WNW,288,0.0,0.0,63,0.00,,BKN100,0.00,VWS V14.01,2013-01-23 08:15:00,
2013-01-23 03:16:00,12.2,2.0,30.33,WNW,288,0.0,0.0,63,0.00,,OVC070,0.00,VWS V14.01,2013-01-23 08:16:00,
2013-01-23 03:17:00,12.0,1.8,30.33,WNW,288,0.0,0.0,63,0.00,,OVC070,0.00,VWS V14.01,2013-01-23 08:17:00,
2013-01-23 03:18:00,12.0,1.8,30.33,WNW,289,0.0,0.0,63,0.00,,OVC070,0.00,VWS V14.01,2013-01-23 08:18:00,
2013-01-23 03:19:00,12.0,1.8,30.33,WNW,288,0.0,0.0,63,0.00,,OVC070,0.00,VWS V14.01,2013-01-23 08:19:00,
2013-01-23 03:20:00,12.0,1.8,30.33,WNW,288,0.0,0.0,63,0.00,,BKN100,0.00,VWS V14.01,2013-01-23 08:20:00,
2013-01-23 03:21:00,12.0,1.8,30.33,WNW,288,0.0,0.0,63,0.00,,OVC070,0.00,VWS V14.01,2013-01-23 08:21:00,
2013-01-23 03:22:00,12.0,1.8,30.33,WNW,288,0.0,0.0,63,0.00,,OVC070,0.00,VWS V14.01,2013-01-23 08:22:00,
2013-01-23 03:23:00,12.0,1.8,30.33,WNW,288,0.0,0.0,63,0.00,,OVC070,0.00,VWS V14.01,2013-01-23 08:23:00,
2013-01-23 03:24:00,12.0,1.8,30.33,WNW,287,0.0,0.0,63,0.00,,OVC070,0.00,VWS V14.01,2013-01-23 08:24:00,
2013-01-23 03:25:00,11.8,1.6,30.30,WNW,288,0.0,0.0,63,0.00,,OVC070,0.00,VWS V14.01,2013-01-23 08:25:00,
2013-01-23 03:26:00,11.8,1.6,30.30,WNW,288,0.0,0.0,63,0.00,,BKN100,0.00,VWS V14.01,2013-01-23 08:26:00,
2013-01-23 03:27:00,11.8,1.6,30.30,WNW,288,0.0,0.0,63,0.00,,OVC070,0.00,VWS V14.01,2013-01-23 08:27:00,
2013-01-23 03:28:00,11.8,1.6,30.30,WNW,292,0.0,0.0,63,0.00,,OVC070,0.00,VWS V14.01,2013-01-23 08:28:00,
2013-01-23 03:29:00,11.8,1.6,30.30,WNW,289,0.0,0.0,63,0.00,,OVC070,0.00,VWS V14.01,2013-01-23 08:29:00,
2013-01-23 03:30:00,11.8,1.6,30.30,WNW,290,0.0,0.0,63,0.00,,OVC070,0.00,VWS V14.01,2013-01-23 08:30:00,
2013-01-23 03:31:00,11.8,1.6,30.30,WNW,288,0.0,0.0,63,0.00,,BKN100,0.00,VWS V14.01,2013-01-23 08:31:00,
2013-01-23 03:32:00,11.8,1.6,30.30,WNW,288,0.0,0.0,63,0.00,,OVC070,0.00,VWS V14.01,2013-01-23 08:32:00,
2013-01-23 03:33:00,11.8,1.6,30.30,WNW,288,0.0,0.0,63,0.00,,OVC070,0.00,VWS V14.01,2013-01-23 08:33:00,
2013-01-23 03:34:00,11.8,1.6,30.30,WNW,288,0.0,0.0,63,0.00,,OVC070,0.00,VWS V14.01,2013-01-23 08:34:00,
2013-01-23 03:35:00,11.8,1.6,30.30,WNW,288,0.0,0.0,63,0.00,,OVC070,0.00,VWS V14.01,2013-01-23 08:35:00,
2013-01-23 03:36:00,11.8,1.6,30.30,WNW,288,0.0,0.0,63,0.00,,BKN100,0.00,VWS V14.01,2013-01-23 08:36:00,
2013-01-23 03:37:00,11.8,1.6,30.30,WNW,288,0.0,0.0,63,0.00,,OVC070,0.00,VWS V14.01,2013-01-23 08:37:00,
2013-01-23 03:38:00,11.8,1.6,30.30,WNW,288,0.0,0.0,63,0.00,,OVC070,0.00,VWS V14.01,2013-01-23 08:38:00,
2013-01-23 03:39:00,11.8,1.6,30.30,WNW,288,0.0,0.0,63,0.00,,OVC070,0.00,VWS V14.01,2013-01-23 08:39:00,
2013-01-23 03:40:00,11.8,1.6,30.33,WNW,288,0.0,0.0,63,0.00,,OVC070,0.00,VWS V14.01,2013-01-23 08:40:00,
2013-01-23 03:41:00,11.8,1.6,30.33,WNW,288,0.0,0.0,63,0.00,,FEW085,0.00,VWS V14.01,2013-01-23 08:41:00,
2013-01-23 03:42:00,11.8,1.6,30.33,WNW,288,0.0,0.0,63,0.00,,OVC070,0.00,VWS V14.01,2013-01-23 08:42:00,
2013-01-23 03:43:00,11.8,1.6,30.33,WNW,288,0.0,0.0,63,0.00,,OVC070,0.00,VWS V14.01,2013-01-23 08:43:00,
2013-01-23 03:44:00,11.8,1.6,30.33,WNW,288,0.0,0.0,63,0.00,,OVC070,0.00,VWS V14.01,2013-01-23 08:44:00,
2013-01-23 03:45:00,11.8,1.6,30.33,WNW,288,0.0,0.0,63,0.00,,OVC070,0.00,VWS V14.01,2013-01-23 08:45:00,
2013-01-23 03:46:00,11.8,1.6,30.33,WNW,288,0.0,0.0,63,0.00,,FEW085,0.00,VWS V14.01,2013-01-23 08:46:00,
2013-01-23 03:47:00,11.8,1.6,30.33,WNW,288,0.0,0.0,63,0.00,,OVC070,0.00,VWS V14.01,2013-01-23 08:47:00,
2013-01-23 03:48:00,11.8,1.6,30.33,WNW,288,0.0,0.0,63,0.00,,OVC070,0.00,VWS V14.01,2013-01-23 08:48:00,
2013-01-23 03:49:00,11.8,1.6,30.33,WNW,288,0.0,0.0,63,0.00,,OVC070,0.00,VWS V14.01,2013-01-23 08:49:00,
2013-01-23 03:50:00,11.8,1.6,30.33,WNW,288,0.0,0.0,63,0.00,,OVC070,0.00,VWS V14.01,2013-01-23 08:50:00,
2013-01-23 03:51:00,11.8,1.6,30.33,WNW,288,0.0,0.0,63,0.00,,FEW085,0.00,VWS V14.01,2013-01-23 08:51:00,
2013-01-23 03:52:00,11.8,1.6,30.33,WNW,288,0.0,0.0,63,0.00,,OVC070,0.00,VWS V14.01,2013-01-23 08:52:00,
2013-01-23 03:53:00,11.8,1.6,30.33,WNW,288,0.0,0.0,63,0.00,,OVC070,0.00,VWS V14.01,2013-01-23 08:53:00,
2013-01-23 03:54:00,11.8,1.6,30.33,WNW,287,0.0,0.0,63,0.00,,OVC070,0.00,VWS V14.01,2013-01-23 08:54:00,
2013-01-23 03:55:00,11.8,1.6,30.33,WNW,288,0.0,0.0,63,0.00,,OVC070,0.00,VWS V14.01,2013-01-23 08:55:00,
2013-01-23 03:56:00,11.8,1.6,30.33,WNW,288,0.0,0.0,63,0.00,,FEW085,0.00,VWS V14.01,2013-01-23 08:56:00,
2013-01-23 03:57:00,11.8,1.6,30.33,WNW,288,0.0,0.0,63,0.00,,OVC070,0.00,VWS V14.01,2013-01-23 08:57:00,
2013-01-23 03:58:00,11.8,1.6,30.33,WNW,288,0.0,0.0,63,0.00,,OVC070,0.00,VWS V14.01,2013-01-23 08:58:00,
2013-01-23 03:59:00,11.8,1.6,30.33,WNW,288,0.0,0.0,63,0.00,,OVC070,0.00,VWS V14.01,2013-01-23 08:59:00,
2013-01-23 04:00:00,11.8,1.6,30.33,WNW,288,0.0,0.0,63,0.00,,OVC070,0.00,VWS V14.01,2013-01-23 09:00:00,
2013-01-23 04:01:00,11.8,1.6,30.33,WNW,288,0.0,0.0,63,0.00,,FEW085,0.00,VWS V14.01,2013-01-23 09:01:00,
2013-01-23 04:02:00,11.8,1.6,30.33,WNW,289,0.0,0.0,63,0.00,,OVC070,0.00,VWS V14.01,2013-01-23 09:02:00,
2013-01-23 04:03:00,11.8,1.6,30.33,WNW,286,0.0,0.0,63,0.00,,OVC070,0.00,VWS V14.01,2013-01-23 09:03:00,
2013-01-23 04:04:00,11.8,1.6,30.33,WNW,288,0.0,0.0,63,0.00,,OVC070,0.00,VWS V14.01,2013-01-23 09:04:00,
2013-01-23 04:05:00,11.8,1.6,30.33,WNW,288,0.0,0.0,63,0.00,,OVC070,0.00,VWS V14.01,2013-01-23 09:05:00,
2013-01-23 04:06:00,11.8,1.6,30.33,WNW,288,0.0,0.0,63,0.00,,OVC070,0.00,VWS V14.01,2013-01-23 09:06:00,
2013-01-23 04:07:00,11.8,1.6,30.33,WNW,288,0.0,0.0,63,0.00,,FEW085,0.00,VWS V14.01,2013-01-23 09:07:00,
2013-01-23 04:08:00,11.8,1.6,30.33,WNW,288,0.0,0.0,63,0.00,,OVC070,0.00,VWS V14.01,2013-01-23 09:08:00,
2013-01-23 04:09:00,11.8,1.6,30.33,WNW,288,0.0,0.0,63,0.00,,OVC070,0.00,VWS V14.01,2013-01-23 09:09:00,
2013-01-23 04:10:00,11.8,1.6,30.33,WNW,288,0.0,0.0,63,0.00,,OVC070,0.00,VWS V14.01,2013-01-23 09:10:00,
2013-01-23 04:11:00,11.8,1.6,30.33,WNW,288,0.0,0.0,63,0.00,,OVC070,0.00,VWS V14.01,2013-01-23 09:11:00,
2013-01-23 04:12:00,11.8,1.6,30.33,WNW,288,0.0,0.0,63,0.00,,FEW085,0.00,VWS V14.01,2013-01-23 09:12:00,
2013-01-23 04:13:00,11.8,1.6,30.33,WNW,288,0.0,0.0,63,0.00,,OVC070,0.00,VWS V14.01,2013-01-23 09:13:00,
2013-01-23 04:14:00,11.8,1.6,30.33,WNW,288,0.0,0.0,63,0.00,,OVC070,0.00,VWS V14.01,2013-01-23 09:14:00,
2013-01-23 04:15:00,11.8,1.6,30.33,WNW,288,0.0,0.0,63,0.00,,OVC070,0.00,VWS V14.01,2013-01-23 09:15:00,
2013-01-23 04:16:00,11.8,1.6,30.33,WNW,288,0.0,0.0,63,0.00,,OVC070,0.00,VWS V14.01,2013-01-23 09:16:00,
2013-01-23 04:17:00,11.8,1.6,30.33,WNW,288,0.0,0.0,63,0.00,,FEW085,0.00,VWS V14.01,2013-01-23 09:17:00,
2013-01-23 04:18:00,11.8,1.6,30.33,WNW,286,0.0,0.0,63,0.00,,OVC070,0.00,VWS V14.01,2013-01-23 09:18:00,
2013-01-23 04:19:00,11.8,1.6,30.33,WNW,288,0.0,0.0,63,0.00,,OVC070,0.00,VWS V14.01,2013-01-23 09:19:00,
2013-01-23 04:20:00,11.8,1.6,30.33,WNW,288,0.0,0.0,63,0.00,,OVC070,0.00,VWS V14.01,2013-01-23 09:20:00,
2013-01-23 04:21:00,11.8,1.6,30.33,WNW,288,0.0,0.0,63,0.00,,OVC070,0.00,VWS V14.01,2013-01-23 09:21:00,
2013-01-23 04:22:00,11.8,1.6,30.33,WNW,288,4.4,5.6,63,0.00,,FEW085,0.00,VWS V14.01,2013-01-23 09:22:00,
2013-01-23 04:23:00,11.8,1.6,30.33,WNW,288,3.7,5.6,63,0.00,,OVC070,0.00,VWS V14.01,2013-01-23 09:23:00,
2013-01-23 04:24:00,11.8,1.6,30.33,WNW,288,0.0,4.7,63,0.00,,OVC070,0.00,VWS V14.01,2013-01-23 09:24:00,
2013-01-23 04:25:00,11.8,1.6,30.33,WNW,288,0.0,0.0,63,0.00,,OVC070,0.00,VWS V14.01,2013-01-23 09:25:00,
2013-01-23 04:26:00,11.8,1.6,30.33,WNW,288,4.4,6.6,63,0.00,,OVC070,0.00,VWS V14.01,2013-01-23 09:26:00,
2013-01-23 04:27:00,11.8,1.6,30.33,WNW,288,4.4,5.6,63,0.00,,FEW085,0.00,VWS V14.01,2013-01-23 09:27:00,
2013-01-23 04:28:00,11.8,1.6,30.33,WNW,288,3.7,5.6,63,0.00,,OVC070,0.00,VWS V14.01,2013-01-23 09:28:00,
2013-01-23 04:29:00,11.8,1.6,30.33,WNW,288,0.0,4.7,63,0.00,,OVC070,0.00,VWS V14.01,2013-01-23 09:29:00,
2013-01-23 04:30:00,11.8,1.6,30.33,WNW,288,3.7,4.7,63,0.00,,OVC070,0.00,VWS V14.01,2013-01-23 09:30:00,
2013-01-23 04:31:00,11.8,1.6,30.33,WNW,288,0.0,5.6,63,0.00,,OVC070,0.00,VWS V14.01,2013-01-23 09:31:00,
2013-01-23 04:32:00,12.0,1.8,30.33,WNW,288,4.4,5.6,63,0.00,,FEW085,0.00,VWS V14.01,2013-01-23 09:32:00,
2013-01-23 04:33:00,12.0,1.8,30.33,WNW,288,0.0,5.6,63,0.00,,OVC070,0.00,VWS V14.01,2013-01-23 09:33:00,
2013-01-23 04:34:00,12.0,1.8,30.33,WNW,288,0.0,0.0,63,0.00,,OVC070,0.00,VWS V14.01,2013-01-23 09:34:00,
2013-01-23 04:35:00,12.0,1.8,30.33,WNW,282,0.0,0.0,63,0.00,,OVC070,0.00,VWS V14.01,2013-01-23 09:35:00,
2013-01-23 04:36:00,12.0,1.8,30.33,WNW,287,0.0,0.0,63,0.00,,OVC070,0.00,VWS V14.01,2013-01-23 09:36:00,
2013-01-23 04:37:00,12.0,1.8,30.33,WNW,289,0.0,0.0,63,0.00,,FEW085,0.00,VWS V14.01,2013-01-23 09:37:00,
2013-01-23 04:38:00,12.0,1.8,30.33,WNW,290,0.0,0.0,63,0.00,,OVC070,0.00,VWS V14.01,2013-01-23 09:38:00,
2013-01-23 04:39:00,12.0,1.8,30.33,WNW,289,0.0,0.0,63,0.00,,OVC070,0.00,VWS V14.01,2013-01-23 09:39:00,
2013-01-23 04:40:00,12.0,1.8,30.33,WNW,287,0.0,0.0,63,0.00,,OVC070,0.00,VWS V14.01,2013-01-23 09:40:00,
2013-01-23 04:41:00,12.0,1.8,30.33,WNW,288,0.0,0.0,63,0.00,,OVC070,0.00,VWS V14.01,2013-01-23 09:41:00,
2013-01-23 04:42:00,12.2,2.0,30.33,WNW,288,0.0,0.0,63,0.00,,SCT250,0.00,VWS V14.01,2013-01-23 09:42:00,
2013-01-23 04:43:00,12.2,2.0,30.33,WNW,288,0.0,0.0,63,0.00,,OVC070,0.00,VWS V14.01,2013-01-23 09:43:00,
2013-01-23 04:44:00,12.2,2.0,30.33,WNW,288,3.7,4.7,63,0.00,,OVC070,0.00,VWS V14.01,2013-01-23 09:44:00,
2013-01-23 04:45:00,12.4,2.2,30.33,WNW,288,0.0,4.7,63,0.00,,OVC070,0.00,VWS V14.01,2013-01-23 09:45:00,
2013-01-23 04:46:00,12.6,2.3,30.33,WNW,288,0.0,0.0,63,0.00,,OVC070,0.00,VWS V14.01,2013-01-23 09:46:00,
2013-01-23 04:47:00,12.6,2.3,30.33,WNW,288,0.0,0.0,63,0.00,,OVC070,0.00,VWS V14.01,2013-01-23 09:47:00,
2013-01-23 04:48:00,12.6,2.3,30.33,WNW,288,0.0,0.0,63,0.00,,SCT250,0.00,VWS V14.01,2013-01-23 09:48:00,
2013-01-23 04:49:00,12.6,2.3,30.33,WNW,288,0.0,0.0,63,0.00,,OVC070,0.00,VWS V14.01,2013-01-23 09:49:00,
2013-01-23 04:50:00,12.7,2.5,30.33,WNW,288,0.0,0.0,63,0.00,,OVC070,0.00,VWS V14.01,2013-01-23 09:50:00,
2013-01-23 04:51:00,12.9,2.7,30.33,WNW,288,0.0,0.0,63,0.00,,OVC070,0.00,VWS V14.01,2013-01-23 09:51:00,
2013-01-23 04:52:00,12.9,2.7,30.33,WNW,288,0.0,0.0,63,0.00,,OVC070,0.00,VWS V14.01,2013-01-23 09:52:00,
2013-01-23 04:53:00,12.9,2.7,30.33,WNW,288,0.0,0.0,63,0.00,,SCT250,0.00,VWS V14.01,2013-01-23 09:53:00,
2013-01-23 04:54:00,12.9,2.7,30.33,WNW,288,0.0,0.0,63,0.00,,OVC070,0.00,VWS V14.01,2013-01-23 09:54:00,
2013-01-23 04:55:00,12.9,2.7,30.33,WNW,288,0.0,0.0,63,0.00,,OVC070,0.00,VWS V14.01,2013-01-23 09:55:00,
2013-01-23 04:56:00,12.9,2.7,30.33,WNW,288,0.0,4.7,63,0.00,,OVC070,0.00,VWS V14.01,2013-01-23 09:56:00,
2013-01-23 04:57:00,13.1,2.8,30.33,WNW,288,0.0,0.0,63,0.00,,OVC070,0.00,VWS V14.01,2013-01-23 09:57:00,
2013-01-23 04:58:00,13.1,2.8,30.33,SSW,206,4.4,5.6,63,0.00,,SCT250,0.00,VWS V14.01,2013-01-23 09:58:00,
2013-01-23 04:59:00,13.1,2.8,30.33,SSW,206,0.0,5.6,63,0.00,,OVC070,0.00,VWS V14.01,2013-01-23 09:59:00,
2013-01-23 05:00:00,13.3,3.0,30.33,SSW,206,0.0,4.7,63,0.00,,OVC070,0.00,VWS V14.01,2013-01-23 10:00:00,
2013-01-23 05:01:00,13.3,3.0,30.33,SSW,205,4.4,5.6,63,0.00,,OVC070,0.00,VWS V14.01,2013-01-23 10:01:00,
2013-01-23 05:02:00,13.3,3.0,30.33,SSW,211,5.2,6.6,63,0.00,,OVC070,0.00,VWS V14.01,2013-01-23 10:02:00,
2013-01-23 05:03:00,13.3,3.0,30.33,SSW,205,3.7,8.5,63,0.00,,SCT250,0.00,VWS V14.01,2013-01-23 10:03:00,
2013-01-23 05:04:00,13.3,3.0,30.33,SSW,197,3.7,8.5,63,0.00,,OVC070,0.00,VWS V14.01,2013-01-23 10:04:00,
2013-01-23 05:05:00,13.3,3.0,30.33,SSW,197,0.0,4.7,63,0.00,,OVC070,0.00,VWS V14.01,2013-01-23 10:05:00,
2013-01-23 05:06:00,13.3,3.0,30.33,SSW,197,0.0,0.0,63,0.00,,OVC070,0.00,VWS V14.01,2013-01-23 10:06:00,
2013-01-23 05:07:00,13.3,3.0,30.33,SSW,197,0.0,0.0,63,0.00,,OVC070,0.00,VWS V14.01,2013-01-23 10:07:00,
2013-01-23 05:08:00,13.3,3.0,30.33,SSW,197,4.4,5.6,63,0.00,,SCT250,0.00,VWS V14.01,2013-01-23 10:08:00,
2013-01-23 05:09:00,13.5,3.2,30.33,SSW,197,3.7,6.6,63,0.00,,OVC070,0.00,VWS V14.01,2013-01-23 10:09:00,
2013-01-23 05:10:00,13.5,3.2,30.33,SSW,197,0.0,4.7,63,0.00,,OVC070,0.00,VWS V14.01,2013-01-23 10:10:00,
2013-01-23 05:11:00,13.5,3.2,30.33,SSW,209,4.4,5.6,63,0.00,,OVC070,0.00,VWS V14.01,2013-01-23 10:11:00,
2013-01-23 05:12:00,13.5,3.2,30.33,SSW,192,6.6,8.5,63,0.00,,OVC070,0.00,VWS V14.01,2013-01-23 10:12:00,
2013-01-23 05:13:00,13.5,3.2,30.33,SSW,192,0.0,8.5,63,0.00,,OVC070,0.00,VWS V14.01,2013-01-23 10:13:00,
2013-01-23 05:14:00,13.5,3.2,30.33,SSW,192,0.0,0.0,63,0.00,,SCT250,0.00,VWS V14.01,2013-01-23 10:14:00,
2013-01-23 05:15:00,13.5,3.2,30.33,SSW,192,0.0,0.0,63,0.00,,OVC070,0.00,VWS V14.01,2013-01-23 10:15:00,
2013-01-23 05:16:00,13.5,3.2,30.33,SSW,192,4.4,5.6,63,0.00,,OVC070,0.00,VWS V14.01,2013-01-23 10:16:00,
2013-01-23 05:17:00,13.5,3.2,30.33,South,189,5.9,10.3,63,0.00,,OVC070,0.00,VWS V14.01,2013-01-23 10:17:00,
2013-01-23 05:18:00,13.5,3.2,30.33,SSW,193,4.4,8.5,63,0.00,,OVC070,0.00,VWS V14.01,2013-01-23 10:18:00,
2013-01-23 05:19:00,13.5,3.2,30.33,SSW,193,0.0,5.6,63,0.00,,SCT250,0.00,VWS V14.01,2013-01-23 10:19:00,
2013-01-23 05:20:00,13.6,3.4,30.33,SSW,193,0.0,7.5,63,0.00,,OVC070,0.00,VWS V14.01,2013-01-23 10:20:00,
2013-01-23 05:21:00,13.6,3.4,30.33,South,189,5.2,6.6,63,0.00,,OVC070,0.00,VWS V14.01,2013-01-23 10:21:00,
2013-01-23 05:22:00,13.6,3.4,30.33,SSW,197,3.7,6.6,63,0.00,,OVC070,0.00,VWS V14.01,2013-01-23 10:22:00,
2013-01-23 05:23:00,13.6,3.4,30.33,South,180,6.6,8.5,63,0.00,,OVC070,0.00,VWS V14.01,2013-01-23 10:23:00,
2013-01-23 05:24:00,13.6,3.4,30.33,South,181,4.4,8.5,63,0.00,,SCT250,0.00,VWS V14.01,2013-01-23 10:24:00,
2013-01-23 05:25:00,13.6,3.4,30.33,South,181,4.4,5.6,63,0.00,,OVC070,0.00,VWS V14.01,2013-01-23 10:25:00,
2013-01-23 05:26:00,13.6,3.4,30.30,South,181,0.0,5.6,63,0.00,,OVC070,0.00,VWS V14.01,2013-01-23 10:26:00,
2013-01-23 05:27:00,13.6,3.4,30.30,South,179,5.9,7.5,63,0.00,,OVC070,0.00,VWS V14.01,2013-01-23 10:27:00,
2013-01-23 05:28:00,13.6,3.4,30.30,South,179,4.4,8.5,63,0.00,,OVC070,0.00,VWS V14.01,2013-01-23 10:28:00,
2013-01-23 05:29:00,13.6,3.4,30.30,South,179,0.0,0.0,63,0.00,,SCT250,0.00,VWS V14.01,2013-01-23 10:29:00,
2013-01-23 05:30:00,13.6,3.4,30.30,South,179,0.0,0.0,63,0.00,,OVC070,0.00,VWS V14.01,2013-01-23 10:30:00,
2013-01-23 05:31:00,13.8,3.5,30.30,South,179,0.0,0.0,63,0.00,,OVC070,0.00,VWS V14.01,2013-01-23 10:31:00,
2013-01-23 05:32:00,13.8,3.5,30.30,South,179,0.0,0.0,63,0.00,,OVC070,0.00,VWS V14.01,2013-01-23 10:32:00,
2013-01-23 05:33:00,13.8,3.5,30.30,South,179,0.0,0.0,63,0.00,,OVC070,0.00,VWS V14.01,2013-01-23 10:33:00,
2013-01-23 05:34:00,13.8,3.5,30.30,South,179,0.0,0.0,63,0.00,,SCT250,0.00,VWS V14.01,2013-01-23 10:34:00,
2013-01-23 05:35:00,13.8,3.5,30.30,South,179,0.0,0.0,63,0.00,,OVC070,0.00,VWS V14.01,2013-01-23 10:35:00,
2013-01-23 05:36:00,13.8,3.5,30.30,South,179,0.0,6.6,63,0.00,,OVC070,0.00,VWS V14.01,2013-01-23 10:36:00,
2013-01-23 05:37:00,13.8,3.5,30.30,South,179,0.0,0.0,63,0.00,,OVC070,0.00,VWS V14.01,2013-01-23 10:37:00,
2013-01-23 05:38:00,13.8,3.5,30.30,South,179,0.0,0.0,63,0.00,,OVC070,0.00,VWS V14.01,2013-01-23 10:38:00,
2013-01-23 05:39:00,13.8,3.5,30.30,South,179,5.2,6.6,63,0.00,,SCT250,0.00,VWS V14.01,2013-01-23 10:39:00,
2013-01-23 05:40:00,13.8,3.5,30.30,South,179,4.4,6.6,63,0.00,,OVC070,0.00,VWS V14.01,2013-01-23 10:40:00,
2013-01-23 05:41:00,13.8,3.5,30.30,South,179,0.0,5.6,63,0.00,,OVC070,0.00,VWS V14.01,2013-01-23 10:41:00,
2013-01-23 05:42:00,13.8,3.5,30.30,South,175,0.0,0.0,63,0.00,,OVC070,0.00,VWS V14.01,2013-01-23 10:42:00,
2013-01-23 05:43:00,13.8,3.5,30.30,South,179,4.4,5.6,63,0.00,,OVC070,0.00,VWS V14.01,2013-01-23 10:43:00,
2013-01-23 05:44:00,13.8,3.5,30.30,South,180,0.0,5.6,63,0.00,,OVC070,0.00,VWS V14.01,2013-01-23 10:44:00,
2013-01-23 05:45:00,14.0,8.5,30.30,South,178,0.0,0.0,78,0.00,,BKN250,0.00,VWS V14.01,2013-01-23 10:45:00,
2013-01-23 05:46:00,14.0,8.5,30.30,South,179,0.0,0.0,78,0.00,,OVC070,0.00,VWS V14.01,2013-01-23 10:46:00,
2013-01-23 05:47:00,14.0,8.5,30.30,South,179,5.2,6.6,78,0.00,,OVC070,0.00,VWS V14.01,2013-01-23 10:47:00,
2013-01-23 05:48:00,14.0,8.5,30.30,South,179,5.2,6.6,78,0.00,,OVC070,0.00,VWS V14.01,2013-01-23 10:48:00,
2013-01-23 05:49:00,14.0,8.5,30.30,South,179,4.4,6.6,78,0.00,,OVC070,0.00,VWS V14.01,2013-01-23 10:49:00,
2013-01-23 05:50:00,14.0,8.5,30.30,South,176,4.4,6.6,78,0.00,,BKN250,0.00,VWS V14.01,2013-01-23 10:50:00,
2013-01-23 05:51:00,14.2,8.6,30.30,South,176,0.0,7.5,78,0.00,,OVC070,0.00,VWS V14.01,2013-01-23 10:51:00,
2013-01-23 05:52:00,14.2,8.6,30.30,South,176,4.4,5.6,78,0.00,,OVC070,0.00,VWS V14.01,2013-01-23 10:52:00,
2013-01-23 05:53:00,14.2,8.6,30.30,South,176,6.6,8.5,78,0.00,,OVC070,0.00,VWS V14.01,2013-01-23 10:53:00,
2013-01-23 05:54:00,14.2,8.6,30.30,South,176,5.2,8.5,78,0.00,,OVC070,0.00,VWS V14.01,2013-01-23 10:54:00,
2013-01-23 05:55:00,14.2,8.6,30.30,South,176,3.7,4.7,78,0.00,,BKN250,0.00,VWS V14.01,2013-01-23 10:55:00,
2013-01-23 05:56:00,14.2,8.6,30.30,South,175,5.2,6.6,78,0.00,,OVC070,0.00,VWS V14.01,2013-01-23 10:56:00,
2013-01-23 05:57:00,14.2,8.6,30.30,South,176,5.2,6.6,78,0.00,,OVC070,0.00,VWS V14.01,2013-01-23 10:57:00,
2013-01-23 05:58:00,14.2,8.6,30.30,South,176,0.0,6.6,78,0.00,,OVC070,0.00,VWS V14.01,2013-01-23 10:58:00,
2013-01-23 05:59:00,14.2,8.6,30.30,South,176,0.0,0.0,78,0.00,,OVC070,0.00,VWS V14.01,2013-01-23 10:59:00,
2013-01-23 06:00:00,14.2,8.6,30.30,South,176,0.0,0.0,78,0.00,,BKN250,0.00,VWS V14.01,2013-01-23 11:00:00,
2013-01-23 06:01:00,14.2,8.6,30.30,South,177,0.0,0.0,78,0.00,,OVC070,0.00,VWS V14.01,2013-01-23 11:01:00,
2013-01-23 06:02:00,14.2,8.6,30.30,South,176,0.0,0.0,78,0.00,,OVC070,0.00,VWS V14.01,2013-01-23 11:02:00,
2013-01-23 06:03:00,14.2,8.6,30.30,South,176,0.0,0.0,78,0.00,,OVC070,0.00,VWS V14.01,2013-01-23 11:03:00,
2013-01-23 06:04:00,14.2,8.6,30.30,South,175,0.0,0.0,78,0.00,,OVC070,0.00,VWS V14.01,2013-01-23 11:04:00,
2013-01-23 06:05:00,14.2,8.6,30.30,South,176,0.0,0.0,78,0.00,,BKN250,0.00,VWS V14.01,2013-01-23 11:05:00,
2013-01-23 06:06:00,14.2,8.6,30.30,South,175,0.0,0.0,78,0.00,,OVC070,0.00,VWS V14.01,2013-01-23 11:06:00,
2013-01-23 06:07:00,14.2,8.6,30.30,South,176,0.0,0.0,78,0.00,,OVC070,0.00,VWS V14.01,2013-01-23 11:07:00,
2013-01-23 06:08:00,14.2,8.6,30.30,South,176,0.0,0.0,78,0.00,,OVC070,0.00,VWS V14.01,2013-01-23 11:08:00,
2013-01-23 06:09:00,14.2,8.6,30.30,South,176,0.0,0.0,78,0.00,,OVC070,0.00,VWS V14.01,2013-01-23 11:09:00,
2013-01-23 06:10:00,14.4,8.3,30.30,South,175,0.0,0.0,76,0.00,,BKN250,0.00,VWS V14.01,2013-01-23 11:10:00,
2013-01-23 06:11:00,14.4,8.3,30.30,South,176,0.0,0.0,76,0.00,,OVC070,0.00,VWS V14.01,2013-01-23 11:11:00,
2013-01-23 06:12:00,14.4,8.3,30.30,South,176,0.0,0.0,76,0.00,,OVC070,0.00,VWS V14.01,2013-01-23 11:12:00,
2013-01-23 06:13:00,14.4,8.3,30.30,South,176,0.0,0.0,76,0.00,,OVC070,0.00,VWS V14.01,2013-01-23 11:13:00,
2013-01-23 06:14:00,14.4,8.3,30.30,South,176,0.0,0.0,76,0.00,,OVC070,0.00,VWS V14.01,2013-01-23 11:14:00,
2013-01-23 06:15:00,14.4,8.3,30.30,South,176,0.0,0.0,76,0.00,,OVC070,0.00,VWS V14.01,2013-01-23 11:15:00,
2013-01-23 06:16:00,14.4,8.3,30.30,South,176,0.0,0.0,76,0.00,,BKN250,0.00,VWS V14.01,2013-01-23 11:16:00,
2013-01-23 06:17:00,14.4,8.3,30.30,South,176,0.0,0.0,76,0.00,,OVC070,0.00,VWS V14.01,2013-01-23 11:17:00,
2013-01-23 06:18:00,14.4,8.3,30.30,South,176,0.0,0.0,76,0.00,,OVC070,0.00,VWS V14.01,2013-01-23 11:18:00,
2013-01-23 06:19:00,14.4,8.3,30.30,South,176,0.0,0.0,76,0.00,,OVC070,0.00,VWS V14.01,2013-01-23 11:19:00,
2013-01-23 06:20:00,14.4,8.3,30.30,South,176,0.0,0.0,76,0.00,,OVC070,0.00,VWS V14.01,2013-01-23 11:20:00,
2013-01-23 06:21:00,14.4,8.3,30.30,South,177,0.0,0.0,76,0.00,,BKN250,0.00,VWS V14.01,2013-01-23 11:21:00,
2013-01-23 06:22:00,14.4,8.3,30.30,South,177,0.0,0.0,76,0.00,,OVC070,0.00,VWS V14.01,2013-01-23 11:22:00,
2013-01-23 06:23:00,14.4,8.3,30.30,South,176,0.0,0.0,76,0.00,,OVC070,0.00,VWS V14.01,2013-01-23 11:23:00,
2013-01-23 06:24:00,14.4,8.3,30.30,South,172,0.0,0.0,76,0.00,,OVC070,0.00,VWS V14.01,2013-01-23 11:24:00,
2013-01-23 06:25:00,14.4,8.3,30.30,South,176,0.0,0.0,76,0.00,,OVC070,0.00,VWS V14.01,2013-01-23 11:25:00,
2013-01-23 06:26:00,14.4,8.3,30.30,South,176,0.0,0.0,76,0.00,,BKN250,0.00,VWS V14.01,2013-01-23 11:26:00,
2013-01-23 06:27:00,14.4,8.3,30.30,South,176,0.0,0.0,76,0.00,,OVC070,0.00,VWS V14.01,2013-01-23 11:27:00,
2013-01-23 06:28:00,14.5,8.5,30.30,South,176,0.0,0.0,76,0.00,,OVC070,0.00,VWS V14.01,2013-01-23 11:28:00,
2013-01-23 06:29:00,14.5,8.5,30.30,South,175,0.0,0.0,76,0.00,,OVC070,0.00,VWS V14.01,2013-01-23 11:29:00,
2013-01-23 06:30:00,14.5,8.5,30.30,South,176,0.0,0.0,76,0.00,,OVC070,0.00,VWS V14.01,2013-01-23 11:30:00,
2013-01-23 06:31:00,14.5,8.5,30.30,South,176,0.0,0.0,76,0.00,,BKN250,0.00,VWS V14.01,2013-01-23 11:31:00,
2013-01-23 06:32:00,14.5,8.5,30.30,South,175,0.0,0.0,76,0.00,,OVC070,0.00,VWS V14.01,2013-01-23 11:32:00,
2013-01-23 06:33:00,14.5,8.5,30.30,South,176,0.0,0.0,76,0.00,,OVC070,0.00,VWS V14.01,2013-01-23 11:33:00,
2013-01-23 06:34:00,14.5,8.5,30.30,South,176,0.0,0.0,76,0.00,,OVC070,0.00,VWS V14.01,2013-01-23 11:34:00,
2013-01-23 06:35:00,14.5,8.5,30.30,South,176,0.0,0.0,76,0.00,,OVC070,0.00,VWS V14.01,2013-01-23 11:35:00,
2013-01-23 06:36:00,14.5,8.0,30.30,South,176,0.0,0.0,75,0.00,,OVC070,0.00,VWS V14.01,2013-01-23 11:36:00,
2013-01-23 06:37:00,14.5,8.0,30.30,South,176,0.0,0.0,75,0.00,,BKN250,0.00,VWS V14.01,2013-01-23 11:37:00,
2013-01-23 06:38:00,14.5,8.0,30.30,South,176,0.0,0.0,75,0.00,,OVC070,0.00,VWS V14.01,2013-01-23 11:38:00,
2013-01-23 06:39:00,14.5,8.0,30.30,South,177,0.0,0.0,75,0.00,,OVC070,0.00,VWS V14.01,2013-01-23 11:39:00,
2013-01-23 06:40:00,14.5,8.0,30.30,South,176,0.0,0.0,75,0.00,,OVC070,0.00,VWS V14.01,2013-01-23 11:40:00,
2013-01-23 06:41:00,14.5,8.0,30.33,South,176,0.0,0.0,75,0.00,,OVC070,0.00,VWS V14.01,2013-01-23 11:41:00,
2013-01-23 06:42:00,14.5,8.0,30.33,South,176,0.0,0.0,75,0.00,,OVC070,0.00,VWS V14.01,2013-01-23 11:42:00,
2013-01-23 06:43:00,14.5,8.0,30.33,South,177,0.0,0.0,75,0.00,,OVC070,0.00,VWS V14.01,2013-01-23 11:43:00,
2013-01-23 06:44:00,14.5,8.5,30.33,South,176,0.0,0.0,76,0.00,,OVC070,0.00,VWS V14.01,2013-01-23 11:44:00,
2013-01-23 06:45:00,14.5,8.5,30.33,South,176,0.0,0.0,76,0.00,,OVC070,0.00,VWS V14.01,2013-01-23 11:45:00,
2013-01-23 06:46:00,14.7,8.7,30.33,South,176,0.0,0.0,76,0.00,,OVC070,0.00,VWS V14.01,2013-01-23 11:46:00,
2013-01-23 06:47:00,14.7,8.7,30.33,South,176,0.0,0.0,76,0.00,,OVC070,0.00,VWS V14.01,2013-01-23 11:47:00,
2013-01-23 06:48:00,14.7,8.7,30.33,South,176,0.0,0.0,76,0.00,,OVC070,0.00,VWS V14.01,2013-01-23 11:48:00,
2013-01-23 06:49:00,14.7,8.7,30.33,South,176,5.2,6.6,76,0.00,,OVC070,0.00,VWS V14.01,2013-01-23 11:49:00,
2013-01-23 06:50:00,14.9,8.9,30.33,South,176,5.2,6.6,76,0.00,,OVC070,0.00,VWS V14.01,2013-01-23 11:50:00,
2013-01-23 06:51:00,14.9,8.9,30.33,South,176,4.4,6.6,76,0.00,,OVC070,0.00,VWS V14.01,2013-01-23 11:51:00,
2013-01-23 06:52:00,14.9,8.9,30.33,South,176,5.9,7.5,76,0.00,,OVC070,0.00,VWS V14.01,2013-01-23 11:52:00,
2013-01-23 06:53:00,14.9,8.9,30.33,South,176,4.4,7.5,76,0.00,,OVC070,0.00,VWS V14.01,2013-01-23 11:53:00,
2013-01-23 06:54:00,14.9,8.9,30.33,South,176,0.0,5.6,76,0.00,,OVC070,0.00,VWS V14.01,2013-01-23 11:54:00,
2013-01-23 06:55:00,14.9,8.9,30.33,SSE,166,5.9,8.5,76,0.00,,OVC070,0.00,VWS V14.01,2013-01-23 11:55:00,
2013-01-23 06:56:00,14.9,8.9,30.33,SSE,166,5.2,7.5,76,0.00,,OVC070,0.00,VWS V14.01,2013-01-23 11:56:00,
2013-01-23 06:57:00,14.9,8.9,30.33,SSE,166,4.4,8.5,76,0.00,,OVC070,0.00,VWS V14.01,2013-01-23 11:57:00,
2013-01-23 06:58:00,14.9,8.9,30.33,SSE,166,4.4,6.6,76,0.00,,OVC070,0.00,VWS V14.01,2013-01-23 11:58:00,
2013-01-23 06:59:00,15.1,9.0,30.33,SSE,166,0.0,5.6,76,0.00,,OVC070,0.00,VWS V14.01,2013-01-23 11:59:00,
2013-01-23 07:00:00,15.1,9.0,30.33,SSE,166,0.0,0.0,76,0.00,,OVC070,0.00,VWS V14.01,2013-01-23 12:00:00,
2013-01-23 07:01:00,15.1,9.0,30.33,SSE,166,5.2,6.6,76,0.00,,OVC070,0.00,VWS V14.01,2013-01-23 12:01:00,
2013-01-23 07:02:00,15.1,9.0,30.33,SSE,164,8.1,10.3,76,0.00,,OVC070,0.00,VWS V14.01,2013-01-23 12:02:00,
2013-01-23 07:03:00,15.1,9.0,30.33,SSE,162,5.9,7.5,76,0.00,,OVC070,0.00,VWS V14.01,2013-01-23 12:03:00,
2013-01-23 07:04:00,15.1,9.0,30.33,SSE,162,4.4,7.5,76,0.00,,OVC070,0.00,VWS V14.01,2013-01-23 12:04:00,
2013-01-23 07:05:00,15.1,9.0,30.33,SSE,163,5.9,10.3,76,0.00,,OVC070,0.00,VWS V14.01,2013-01-23 12:05:00,
2013-01-23 07:06:00,15.1,9.0,30.33,South,172,6.6,10.3,76,0.00,,OVC070,0.00,VWS V14.01,2013-01-23 12:06:00,
2013-01-23 07:07:00,15.1,9.0,30.33,South,170,5.9,10.3,76,0.00,,OVC070,0.00,VWS V14.01,2013-01-23 12:07:00,
2013-01-23 07:08:00,15.1,9.0,30.33,South,171,5.9,7.5,76,0.00,,OVC070,0.00,VWS V14.01,2013-01-23 12:08:00,
2013-01-23 07:09:00,15.1,9.0,30.33,South,172,4.4,7.5,76,0.00,,OVC070,0.00,VWS V14.01,2013-01-23 12:09:00,
2013-01-23 07:10:00,15.1,9.0,30.30,South,172,3.7,6.6,76,0.00,,OVC070,0.00,VWS V14.01,2013-01-23 12:10:00,
2013-01-23 07:11:00,15.1,9.0,30.30,South,172,5.2,7.5,76,0.00,,OVC070,0.00,VWS V14.01,2013-01-23 12:11:00,
2013-01-23 07:12:00,15.1,9.0,30.30,South,171,5.2,8.5,76,0.00,,OVC070,0.00,VWS V14.01,2013-01-23 12:12:00,
2013-01-23 07:13:00,15.1,9.0,30.30,South,171,4.4,6.6,76,0.00,,OVC070,0.00,VWS V14.01,2013-01-23 12:13:00,
2013-01-23 07:14:00,15.1,9.0,30.30,South,171,4.4,7.5,76,0.00,,OVC070,0.00,VWS V14.01,2013-01-23 12:14:00,
2013-01-23 07:15:00,15.1,9.0,30.30,South,171,6.6,8.5,76,0.00,,OVC070,0.00,VWS V14.01,2013-01-23 12:15:00,
2013-01-23 07:16:00,15.1,9.0,30.30,South,171,4.4,8.5,76,0.00,,OVC070,0.00,VWS V14.01,2013-01-23 12:16:00,
2013-01-23 07:17:00,15.1,9.0,30.30,South,171,0.0,5.6,76,0.00,,OVC070,0.00,VWS V14.01,2013-01-23 12:17:00,
2013-01-23 07:18:00,15.1,9.0,30.30,South,171,0.0,0.0,76,0.00,,OVC070,0.00,VWS V14.01,2013-01-23 12:18:00,
2013-01-23 07:19:00,15.1,9.0,30.30,South,171,0.0,0.0,76,0.00,,OVC070,0.00,VWS V14.01,2013-01-23 12:19:00,
2013-01-23 07:20:00,15.1,9.0,30.30,South,171,0.0,0.0,76,0.00,,OVC070,0.00,VWS V14.01,2013-01-23 12:20:00,
2013-01-23 07:21:00,15.1,9.0,30.30,South,171,0.0,0.0,76,0.00,,OVC070,0.00,VWS V14.01,2013-01-23 12:21:00,
2013-01-23 07:22:00,15.1,9.0,30.30,South,171,0.0,0.0,76,0.00,,OVC070,0.00,VWS V14.01,2013-01-23 12:22:00,
2013-01-23 07:23:00,15.3,9.2,30.30,South,171,0.0,0.0,76,0.00,,OVC070,0.00,VWS V14.01,2013-01-23 12:23:00,
2013-01-23 07:24:00,15.1,9.0,30.30,South,171,0.0,0.0,76,0.00,,OVC070,0.00,VWS V14.01,2013-01-23 12:24:00,
2013-01-23 07:25:00,15.3,9.2,30.33,South,171,0.0,0.0,76,0.00,,OVC070,0.00,VWS V14.01,2013-01-23 12:25:00,
2013-01-23 07:26:00,15.3,9.2,30.33,South,171,0.0,0.0,76,0.00,,OVC070,0.00,VWS V14.01,2013-01-23 12:26:00,
2013-01-23 07:27:00,15.3,9.2,30.33,South,171,0.0,0.0,76,0.00,,OVC070,0.00,VWS V14.01,2013-01-23 12:27:00,
2013-01-23 07:28:00,15.3,9.2,30.33,South,171,0.0,0.0,76,0.00,,OVC070,0.00,VWS V14.01,2013-01-23 12:28:00,
2013-01-23 07:29:00,15.3,9.2,30.33,South,171,0.0,0.0,76,0.00,,OVC070,0.00,VWS V14.01,2013-01-23 12:29:00,
2013-01-23 07:30:00,15.3,9.2,30.33,South,171,0.0,0.0,76,0.00,,OVC070,0.00,VWS V14.01,2013-01-23 12:30:00,
2013-01-23 07:31:00,15.3,9.2,30.33,South,171,0.0,0.0,76,0.00,,OVC070,0.00,VWS V14.01,2013-01-23 12:31:00,
2013-01-23 07:32:00,15.3,8.7,30.33,South,171,0.0,0.0,75,0.00,,OVC070,0.00,VWS V14.01,2013-01-23 12:32:00,
2013-01-23 07:33:00,15.3,8.7,30.33,South,170,0.0,0.0,75,0.00,,OVC070,0.00,VWS V14.01,2013-01-23 12:33:00,
2013-01-23 07:34:00,15.3,8.7,30.33,South,171,0.0,0.0,75,0.00,,OVC070,0.00,VWS V14.01,2013-01-23 12:34:00,
2013-01-23 07:35:00,15.3,8.7,30.33,South,171,0.0,0.0,75,0.00,,OVC070,0.00,VWS V14.01,2013-01-23 12:35:00,
2013-01-23 07:36:00,15.3,8.7,30.33,South,171,0.0,0.0,75,0.00,,OVC070,0.00,VWS V14.01,2013-01-23 12:36:00,
2013-01-23 07:37:00,15.3,8.7,30.33,South,173,0.0,0.0,75,0.00,,OVC070,0.00,VWS V14.01,2013-01-23 12:37:00,
2013-01-23 07:38:00,15.3,8.7,30.33,South,171,0.0,0.0,75,0.00,,OVC070,0.00,VWS V14.01,2013-01-23 12:38:00,
2013-01-23 07:39:00,15.3,8.7,30.33,South,171,0.0,0.0,75,0.00,,OVC070,0.00,VWS V14.01,2013-01-23 12:39:00,
2013-01-23 07:40:00,15.3,8.7,30.33,South,172,0.0,0.0,75,0.00,,OVC070,0.00,VWS V14.01,2013-01-23 12:40:00,
2013-01-23 07:41:00,15.3,8.7,30.33,South,171,0.0,0.0,75,0.00,,OVC070,0.00,VWS V14.01,2013-01-23 12:41:00,
2013-01-23 07:42:00,15.3,8.7,30.33,South,171,0.0,0.0,75,0.00,,OVC070,0.00,VWS V14.01,2013-01-23 12:42:00,
2013-01-23 07:43:00,15.3,8.7,30.33,South,171,0.0,0.0,75,0.00,,OVC070,0.00,VWS V14.01,2013-01-23 12:43:00,
2013-01-23 07:44:00,15.3,8.7,30.33,South,171,0.0,0.0,75,0.00,,OVC070,0.00,VWS V14.01,2013-01-23 12:44:00,
2013-01-23 07:45:00,15.3,8.7,30.33,South,171,0.0,0.0,75,0.00,,OVC070,0.00,VWS V14.01,2013-01-23 12:45:00,
2013-01-23 07:46:00,15.3,8.7,30.33,South,171,0.0,0.0,75,0.00,,OVC070,0.00,VWS V14.01,2013-01-23 12:46:00,
2013-01-23 07:47:00,15.4,8.9,30.33,South,171,0.0,0.0,75,0.00,,OVC070,0.00,VWS V14.01,2013-01-23 12:47:00,
2013-01-23 07:48:00,15.4,8.9,30.33,South,171,0.0,0.0,75,0.00,,OVC070,0.00,VWS V14.01,2013-01-23 12:48:00,
2013-01-23 07:49:00,15.4,8.9,30.33,South,171,0.0,0.0,75,0.00,,OVC070,0.00,VWS V14.01,2013-01-23 12:49:00,
2013-01-23 07:50:00,15.4,8.9,30.33,South,171,0.0,0.0,75,0.00,,OVC070,0.00,VWS V14.01,2013-01-23 12:50:00,
2013-01-23 07:51:00,15.4,8.9,30.33,South,171,0.0,0.0,75,0.00,,OVC070,0.00,VWS V14.01,2013-01-23 12:51:00,
2013-01-23 07:52:00,15.4,8.9,30.33,South,171,0.0,0.0,75,0.00,,OVC070,0.00,VWS V14.01,2013-01-23 12:52:00,
2013-01-23 07:53:00,15.4,8.9,30.33,South,173,0.0,0.0,75,0.00,,OVC070,0.00,VWS V14.01,2013-01-23 12:53:00,
2013-01-23 07:54:00,15.4,8.9,30.33,South,172,0.0,0.0,75,0.00,,OVC070,0.00,VWS V14.01,2013-01-23 12:54:00,
2013-01-23 07:55:00,15.4,8.9,30.33,South,171,0.0,0.0,75,0.00,,OVC070,0.00,VWS V14.01,2013-01-23 12:55:00,
2013-01-23 07:56:00,15.4,8.9,30.33,South,171,0.0,0.0,75,0.00,,OVC070,0.00,VWS V14.01,2013-01-23 12:56:00,
2013-01-23 07:57:00,15.4,8.9,30.33,SSE,168,0.0,0.0,75,0.00,,OVC070,0.00,VWS V14.01,2013-01-23 12:57:00,
2013-01-23 07:58:00,15.6,9.1,30.33,SSE,167,0.0,0.0,75,0.00,,OVC070,0.00,VWS V14.01,2013-01-23 12:58:00,
2013-01-23 07:59:00,15.6,9.1,30.33,South,171,0.0,0.0,75,0.00,,OVC070,0.00,VWS V14.01,2013-01-23 12:59:00,
2013-01-23 08:00:00,15.6,9.1,30.33,SSE,168,0.0,0.0,75,0.00,,OVC070,0.00,VWS V14.01,2013-01-23 13:00:00,
2013-01-23 08:01:00,15.8,9.2,30.33,South,169,0.0,0.0,75,0.00,,OVC070,0.00,VWS V14.01,2013-01-23 13:01:00,
2013-01-23 08:02:00,15.8,9.2,30.33,SSE,168,0.0,0.0,75,0.00,,OVC070,0.00,VWS V14.01,2013-01-23 13:02:00,
2013-01-23 08:03:00,15.8,9.2,30.33,South,171,0.0,0.0,75,0.00,,OVC070,0.00,VWS V14.01,2013-01-23 13:03:00,
2013-01-23 08:04:00,15.8,9.2,30.33,South,173,0.0,0.0,75,0.00,,OVC070,0.00,VWS V14.01,2013-01-23 13:04:00,
2013-01-23 08:05:00,15.8,9.2,30.33,South,171,0.0,0.0,75,0.00,,OVC070,0.00,VWS V14.01,2013-01-23 13:05:00,
2013-01-23 08:06:00,15.8,9.2,30.33,South,171,0.0,0.0,75,0.00,,OVC070,0.00,VWS V14.01,2013-01-23 13:06:00,
2013-01-23 08:07:00,15.8,9.2,30.33,South,171,0.0,0.0,75,0.00,,OVC070,0.00,VWS V14.01,2013-01-23 13:07:00,
2013-01-23 08:08:00,15.8,9.2,30.33,South,171,0.0,0.0,75,0.00,,OVC070,0.00,VWS V14.01,2013-01-23 13:08:00,
2013-01-23 08:09:00,15.8,9.2,30.33,South,171,0.0,0.0,75,0.00,,OVC070,0.00,VWS V14.01,2013-01-23 13:09:00,
2013-01-23 08:10:00,15.8,9.2,30.33,South,171,0.0,0.0,75,0.00,,OVC070,0.00,VWS V14.01,2013-01-23 13:10:00,
2013-01-23 08:11:00,15.8,9.2,30.33,South,171,0.0,0.0,75,0.00,,OVC070,0.00,VWS V14.01,2013-01-23 13:11:00,
2013-01-23 08:12:00,15.8,9.2,30.33,South,171,0.0,0.0,75,0.00,,OVC070,0.00,VWS V14.01,2013-01-23 13:12:00,
2013-01-23 08:13:00,15.8,9.2,30.33,South,171,0.0,0.0,75,0.00,,OVC070,0.00,VWS V14.01,2013-01-23 13:13:00,
2013-01-23 08:14:00,15.8,9.2,30.33,South,173,0.0,0.0,75,0.00,,OVC070,0.00,VWS V14.01,2013-01-23 13:14:00,
2013-01-23 08:15:00,15.8,9.2,30.33,South,171,0.0,0.0,75,0.00,,OVC070,0.00,VWS V14.01,2013-01-23 13:15:00,
2013-01-23 08:16:00,16.0,9.4,30.33,South,171,0.0,0.0,75,0.00,,OVC070,0.00,VWS V14.01,2013-01-23 13:16:00,
2013-01-23 08:17:00,16.0,9.4,30.33,South,171,0.0,0.0,75,0.00,,OVC070,0.00,VWS V14.01,2013-01-23 13:17:00,
2013-01-23 08:18:00,16.0,9.4,30.33,South,171,4.4,6.6,75,0.00,,OVC070,0.00,VWS V14.01,2013-01-23 13:18:00,
2013-01-23 08:19:00,16.0,9.4,30.33,South,171,5.2,6.6,75,0.00,,OVC070,0.00,VWS V14.01,2013-01-23 13:19:00,
2013-01-23 08:20:00,16.0,9.4,30.33,South,171,3.7,6.6,75,0.00,,OVC070,0.00,VWS V14.01,2013-01-23 13:20:00,
2013-01-23 08:21:00,16.0,9.4,30.33,South,174,0.0,4.7,75,0.00,,OVC070,0.00,VWS V14.01,2013-01-23 13:21:00,
2013-01-23 08:22:00,16.0,9.4,30.33,South,171,0.0,0.0,75,0.00,,OVC070,0.00,VWS V14.01,2013-01-23 13:22:00,
2013-01-23 08:23:00,16.0,9.4,30.33,South,171,0.0,0.0,75,0.00,,OVC070,0.00,VWS V14.01,2013-01-23 13:23:00,
2013-01-23 08:24:00,16.0,9.4,30.33,South,171,4.4,5.6,75,0.00,,OVC070,0.00,VWS V14.01,2013-01-23 13:24:00,
2013-01-23 08:25:00,16.0,9.4,30.30,South,171,3.7,5.6,75,0.00,,OVC070,0.00,VWS V14.01,2013-01-23 13:25:00,
2013-01-23 08:26:00,16.0,9.4,30.30,South,171,0.0,0.0,75,0.00,,OVC070,0.00,VWS V14.01,2013-01-23 13:26:00,
2013-01-23 08:27:00,16.0,9.4,30.30,South,171,0.0,0.0,75,0.00,,OVC070,0.00,VWS V14.01,2013-01-23 13:27:00,
2013-01-23 08:28:00,16.2,9.6,30.30,South,170,0.0,0.0,75,0.00,,OVC070,0.00,VWS V14.01,2013-01-23 13:28:00,
2013-01-23 08:29:00,16.2,9.6,30.30,South,170,0.0,0.0,75,0.00,,OVC070,0.00,VWS V14.01,2013-01-23 13:29:00,
2013-01-23 08:30:00,16.2,9.6,30.30,South,171,0.0,0.0,75,0.00,,OVC070,0.00,VWS V14.01,2013-01-23 13:30:00,
2013-01-23 08:31:00,16.2,9.6,30.30,South,171,0.0,0.0,75,0.00,,OVC070,0.00,VWS V14.01,2013-01-23 13:31:00,
2013-01-23 08:32:00,16.2,9.6,30.30,South,171,0.0,0.0,75,0.00,,OVC070,0.00,VWS V14.01,2013-01-23 13:32:00,
2013-01-23 08:33:00,16.2,9.6,30.30,South,171,0.0,0.0,75,0.00,,OVC070,0.00,VWS V14.01,2013-01-23 13:33:00,
2013-01-23 08:34:00,16.2,9.6,30.30,South,171,0.0,0.0,75,0.00,,OVC070,0.00,VWS V14.01,2013-01-23 13:34:00,
2013-01-23 08:35:00,16.2,9.6,30.30,South,171,0.0,0.0,75,0.00,,OVC070,0.00,VWS V14.01,2013-01-23 13:35:00,
2013-01-23 08:36:00,16.3,9.8,30.30,South,171,0.0,0.0,75,0.00,,OVC070,0.00,VWS V14.01,2013-01-23 13:36:00,
2013-01-23 08:37:00,16.3,9.8,30.30,South,171,0.0,0.0,75,0.00,,OVC070,0.00,VWS V14.01,2013-01-23 13:37:00,
2013-01-23 08:38:00,16.3,9.8,30.30,South,171,0.0,0.0,75,0.00,,OVC070,0.00,VWS V14.01,2013-01-23 13:38:00,
2013-01-23 08:39:00,16.3,9.8,30.30,South,171,0.0,0.0,75,0.00,,OVC070,0.00,VWS V14.01,2013-01-23 13:39:00,
2013-01-23 08:40:00,16.3,9.8,30.30,South,171,4.4,5.6,75,0.00,,OVC070,0.00,VWS V14.01,2013-01-23 13:40:00,
2013-01-23 09:11:00,16.9,9.8,30.30,South,171,5.9,7.5,73,0.00,,OVC070,0.00,VWS V14.01,2013-01-23 14:11:00,
2013-01-23 09:12:00,16.9,9.8,30.30,South,171,3.7,6.6,73,0.00,,OVC055,0.00,VWS V14.01,2013-01-23 14:12:00,
2013-01-23 09:13:00,16.9,9.8,30.30,South,171,0.0,5.6,73,0.00,,OVC055,0.00,VWS V14.01,2013-01-23 14:13:00,
2013-01-23 09:14:00,17.1,9.9,30.30,South,171,5.2,10.3,73,0.00,,OVC055,0.00,VWS V14.01,2013-01-23 14:14:00,
2013-01-23 09:15:00,17.1,9.9,30.30,South,171,4.4,6.6,73,0.00,,OVC055,0.00,VWS V14.01,2013-01-23 14:15:00,
2013-01-23 09:16:00,17.1,9.9,30.30,South,171,7.4,9.4,73,0.00,,OVC070,0.00,VWS V14.01,2013-01-23 14:16:00,
2013-01-23 09:17:00,17.1,9.9,30.30,South,171,5.9,9.4,73,0.00,,OVC055,0.00,VWS V14.01,2013-01-23 14:17:00,
2013-01-23 09:18:00,17.1,9.9,30.30,South,171,5.2,7.5,73,0.00,,OVC055,0.00,VWS V14.01,2013-01-23 14:18:00,
2013-01-23 09:19:00,17.1,9.9,30.30,South,171,4.4,6.6,73,0.00,,OVC055,0.00,VWS V14.01,2013-01-23 14:19:00,
2013-01-23 09:20:00,17.2,10.1,30.30,South,171,0.0,5.6,73,0.00,,OVC055,0.00,VWS V14.01,2013-01-23 14:20:00,
2013-01-23 09:21:00,17.2,10.1,30.30,South,190,4.4,10.3,73,0.00,,OVC070,0.00,VWS V14.01,2013-01-23 14:21:00,
2013-01-23 09:22:00,17.2,10.1,30.30,South,190,5.9,10.3,73,0.00,,OVC055,0.00,VWS V14.01,2013-01-23 14:22:00,
2013-01-23 09:23:00,17.2,10.1,30.30,SSW,193,6.6,8.5,73,0.00,,OVC055,0.00,VWS V14.01,2013-01-23 14:23:00,
2013-01-23 09:24:00,17.4,10.3,30.30,SSW,193,3.7,8.5,73,0.00,,OVC055,0.00,VWS V14.01,2013-01-23 14:24:00,
2013-01-23 09:25:00,17.4,10.3,30.30,SSW,193,0.0,4.7,73,0.00,,OVC055,0.00,VWS V14.01,2013-01-23 14:25:00,
2013-01-23 09:26:00,17.4,10.3,30.33,SSW,193,0.0,8.5,73,0.00,,OVC070,0.00,VWS V14.01,2013-01-23 14:26:00,
2013-01-23 09:27:00,17.4,10.3,30.33,SSW,193,3.7,8.5,73,0.00,,OVC055,0.00,VWS V14.01,2013-01-23 14:27:00,
2013-01-23 09:28:00,17.4,10.3,30.33,South,186,3.7,10.3,73,0.00,,OVC055,0.00,VWS V14.01,2013-01-23 14:28:00,
2013-01-23 09:29:00,17.4,9.8,30.33,SSE,158,5.2,6.6,71,0.00,,OVC055,0.00,VWS V14.01,2013-01-23 14:29:00,
2013-01-23 09:30:00,17.6,9.9,30.33,SSE,167,8.1,12.2,71,0.00,,OVC055,0.00,VWS V14.01,2013-01-23 14:30:00,
2013-01-23 09:31:00,17.6,9.9,30.33,SSE,166,7.4,10.3,71,0.00,,OVC070,0.00,VWS V14.01,2013-01-23 14:31:00,
2013-01-23 09:32:00,17.6,9.9,30.33,SSE,166,5.2,10.3,71,0.00,,OVC055,0.00,VWS V14.01,2013-01-23 14:32:00,
2013-01-23 09:33:00,17.6,9.9,30.33,SSE,166,0.0,7.5,71,0.00,,OVC055,0.00,VWS V14.01,2013-01-23 14:33:00,
2013-01-23 09:34:00,17.6,9.9,30.33,SSE,162,6.6,8.5,71,0.00,,OVC055,0.00,VWS V14.01,2013-01-23 14:34:00,
2013-01-23 09:35:00,17.6,9.9,30.33,SSE,150,6.6,11.3,71,0.00,,OVC055,0.00,VWS V14.01,2013-01-23 14:35:00,
2013-01-23 09:36:00,17.6,9.9,30.33,SE,135,6.6,8.5,71,0.00,,OVC060,0.00,VWS V14.01,2013-01-23 14:36:00,
2013-01-23 09:37:00,17.6,9.9,30.33,SSE,150,5.9,8.5,71,0.00,,OVC055,0.00,VWS V14.01,2013-01-23 14:37:00,
2013-01-23 09:38:00,17.8,10.1,30.33,South,179,6.6,8.5,71,0.00,,OVC055,0.00,VWS V14.01,2013-01-23 14:38:00,
2013-01-23 09:39:00,17.8,10.1,30.33,SSW,194,4.4,11.3,71,0.00,,OVC055,0.00,VWS V14.01,2013-01-23 14:39:00,
2013-01-23 09:40:00,17.8,10.1,30.33,SW,232,4.4,7.5,71,0.00,,OVC055,0.00,VWS V14.01,2013-01-23 14:40:00,
2013-01-23 09:41:00,17.8,10.1,30.33,WSW,250,0.0,8.5,71,0.00,,OVC060,0.00,VWS V14.01,2013-01-23 14:41:00,
2013-01-23 09:42:00,17.8,10.1,30.33,WSW,250,0.0,8.5,71,0.00,,OVC055,0.00,VWS V14.01,2013-01-23 14:42:00,
2013-01-23 09:43:00,17.8,9.6,30.33,West,266,5.2,7.5,70,0.00,,OVC055,0.00,VWS V14.01,2013-01-23 14:43:00,
2013-01-23 09:44:00,18.0,9.8,30.33,SSW,193,6.6,8.5,70,0.00,,OVC055,0.00,VWS V14.01,2013-01-23 14:44:00,
2013-01-23 09:45:00,18.0,9.8,30.33,West,281,3.7,8.5,70,0.00,,OVC055,0.00,VWS V14.01,2013-01-23 14:45:00,
2013-01-23 09:46:00,18.0,9.2,30.33,SSW,197,4.4,6.6,68,0.00,,OVC055,0.00,VWS V14.01,2013-01-23 14:46:00,
2013-01-23 09:47:00,18.0,9.2,30.33,SSW,197,0.0,5.6,68,0.00,,OVC060,0.00,VWS V14.01,2013-01-23 14:47:00,
2013-01-23 09:48:00,18.1,9.4,30.33,SSW,202,5.2,7.5,68,0.00,,OVC055,0.00,VWS V14.01,2013-01-23 14:48:00,
2013-01-23 09:49:00,18.1,9.4,30.33,SSW,202,0.0,6.6,68,0.00,,OVC055,0.00,VWS V14.01,2013-01-23 14:49:00,
2013-01-23 09:50:00,18.1,9.4,30.33,South,177,0.0,0.0,68,0.00,,OVC055,0.00,VWS V14.01,2013-01-23 14:50:00,
2013-01-23 09:51:00,18.1,9.9,30.33,SSE,154,4.4,8.5,70,0.00,,OVC055,0.00,VWS V14.01,2013-01-23 14:51:00,
2013-01-23 09:52:00,18.1,9.9,30.33,South,190,5.9,7.5,70,0.00,,OVC060,0.00,VWS V14.01,2013-01-23 14:52:00,
2013-01-23 09:53:00,18.3,10.1,30.33,South,182,8.1,10.3,70,0.00,,OVC055,0.00,VWS V14.01,2013-01-23 14:53:00,
2013-01-23 09:54:00,18.3,9.5,30.33,South,182,3.7,10.3,68,0.00,,OVC055,0.00,VWS V14.01,2013-01-23 14:54:00,
2013-01-23 09:55:00,18.3,9.5,30.33,South,182,0.0,4.7,68,0.00,,OVC055,0.00,VWS V14.01,2013-01-23 14:55:00,
2013-01-23 09:56:00,18.3,10.1,30.33,SSE,162,4.4,7.5,70,0.00,,OVC055,0.00,VWS V14.01,2013-01-23 14:56:00,
2013-01-23 09:57:00,18.5,10.3,30.33,SSE,159,4.4,6.6,70,0.00,,OVC060,0.00,VWS V14.01,2013-01-23 14:57:00,
2013-01-23 09:58:00,18.5,10.3,30.33,WSW,248,6.6,8.5,70,0.00,,OVC055,0.00,VWS V14.01,2013-01-23 14:58:00,
2013-01-23 09:59:00,18.5,9.7,30.33,South,179,6.6,8.5,68,0.00,,OVC055,0.00,VWS V14.01,2013-01-23 14:59:00,
2013-01-23 10:00:00,18.7,9.9,30.33,SSE,155,4.4,8.5,68,0.00,,OVC055,0.00,VWS V14.01,2013-01-23 15:00:00,
2013-01-23 10:01:00,18.7,9.9,30.33,SSE,155,3.7,8.5,68,0.00,,OVC055,0.00,VWS V14.01,2013-01-23 15:01:00,
2013-01-23 10:02:00,18.7,9.9,30.33,WSW,250,5.2,7.5,68,0.00,,OVC060,0.00,VWS V14.01,2013-01-23 15:02:00,
2013-01-23 10:03:00,18.7,9.9,30.33,South,182,8.1,10.3,68,0.00,,OVC055,0.00,VWS V14.01,2013-01-23 15:03:00,
2013-01-23 10:04:00,18.7,9.9,30.33,SW,219,0.0,10.3,68,0.00,,OVC055,0.00,VWS V14.01,2013-01-23 15:04:00,
2013-01-23 10:05:00,18.9,10.1,30.33,SW,219,0.0,0.0,68,0.00,,OVC055,0.00,VWS V14.01,2013-01-23 15:05:00,
2013-01-23 10:06:00,18.9,10.1,30.33,ESE,107,5.9,7.5,68,0.00,,OVC055,0.00,VWS V14.01,2013-01-23 15:06:00,
2013-01-23 10:07:00,19.0,10.2,30.33,SE,133,5.9,8.5,68,0.00,,OVC060,0.00,VWS V14.01,2013-01-23 15:07:00,
2013-01-23 10:08:00,19.0,10.2,30.33,SE,129,5.2,7.5,68,0.00,,OVC055,0.00,VWS V14.01,2013-01-23 15:08:00,
2013-01-23 10:09:00,19.0,10.2,30.33,South,171,7.4,11.3,68,0.00,,OVC055,0.00,VWS V14.01,2013-01-23 15:09:00,
2013-01-23 10:10:00,19.2,10.4,30.33,SSE,147,6.6,13.2,68,0.00,,OVC055,0.00,VWS V14.01,2013-01-23 15:10:00,
2013-01-23 10:11:00,19.2,10.4,30.30,South,180,9.6,12.2,68,0.00,,OVC055,0.00,VWS V14.01,2013-01-23 15:11:00,
2013-01-23 10:12:00,19.4,10.6,30.30,SSW,195,6.6,12.2,68,0.00,,OVC060,0.00,VWS V14.01,2013-01-23 15:12:00,
2013-01-23 10:13:00,19.4,10.6,30.30,SSW,195,6.6,8.5,68,0.00,,OVC055,0.00,VWS V14.01,2013-01-23 15:13:00,
2013-01-23 10:14:00,19.6,10.8,30.30,SSE,162,4.4,10.3,68,0.00,,OVC055,0.00,VWS V14.01,2013-01-23 15:14:00,
2013-01-23 10:15:00,19.6,10.8,30.30,SSW,194,8.9,11.3,68,0.00,,OVC055,0.00,VWS V14.01,2013-01-23 15:15:00,
2013-01-23 10:16:00,19.8,10.9,30.30,South,182,5.9,11.3,68,0.00,,OVC055,0.00,VWS V14.01,2013-01-23 15:16:00,
2013-01-23 10:17:00,19.9,11.1,30.30,SSE,161,3.7,9.4,68,0.00,,OVC060,0.00,VWS V14.01,2013-01-23 15:17:00,
2013-01-23 10:18:00,19.9,11.1,30.30,SSE,161,3.7,6.6,68,0.00,,OVC055,0.00,VWS V14.01,2013-01-23 15:18:00,
2013-01-23 10:19:00,19.9,11.1,30.30,SE,141,5.9,11.3,68,0.00,,OVC055,0.00,VWS V14.01,2013-01-23 15:19:00,
2013-01-23 10:20:00,20.1,11.3,30.30,SSE,168,8.9,11.3,68,0.00,,OVC055,0.00,VWS V14.01,2013-01-23 15:20:00,
2013-01-23 10:21:00,20.1,11.3,30.30,SSE,148,8.9,11.3,68,0.00,,OVC055,0.00,VWS V14.01,2013-01-23 15:21:00,
2013-01-23 10:22:00,20.3,11.4,30.30,South,181,5.2,13.2,68,0.00,,OVC060,0.00,VWS V14.01,2013-01-23 15:22:00,
2013-01-23 10:23:00,20.3,11.4,30.30,SSE,161,9.6,13.2,68,0.00,,OVC055,0.00,VWS V14.01,2013-01-23 15:23:00,
2013-01-23 10:24:00,20.3,11.4,30.30,South,174,9.6,12.2,68,0.00,,OVC055,0.00,VWS V14.01,2013-01-23 15:24:00,
2013-01-23 10:25:00,20.5,12.2,30.30,SSW,193,8.1,13.2,70,0.00,,OVC055,0.00,VWS V14.01,2013-01-23 15:25:00,
2013-01-23 10:26:00,20.7,12.3,30.30,South,177,8.1,11.3,70,0.00,,OVC055,0.00,VWS V14.01,2013-01-23 15:26:00,
2013-01-23 10:27:00,20.8,12.5,30.30,ESE,123,5.2,7.5,70,0.00,,OVC060,0.00,VWS V14.01,2013-01-23 15:27:00,
2013-01-23 10:28:00,20.8,12.5,30.30,SE,125,5.2,7.5,70,0.00,,OVC055,0.00,VWS V14.01,2013-01-23 15:28:00,
2013-01-23 10:29:00,21.0,12.7,30.30,South,170,6.6,8.5,70,0.00,,OVC055,0.00,VWS V14.01,2013-01-23 15:29:00,
2013-01-23 10:30:00,21.0,12.7,30.30,South,189,6.6,11.3,70,0.00,,OVC055,0.00,VWS V14.01,2013-01-23 15:30:00,
2013-01-23 10:31:00,21.2,12.9,30.30,SW,220,5.2,10.3,70,0.00,,OVC055,0.00,VWS V14.01,2013-01-23 15:31:00,
2013-01-23 10:32:00,21.2,12.9,30.30,SE,143,5.9,8.5,70,0.00,,OVC060,0.00,VWS V14.01,2013-01-23 15:32:00,
2013-01-23 10:33:00,21.4,12.5,30.30,South,179,5.2,8.5,68,0.00,,OVC055,0.00,VWS V14.01,2013-01-23 15:33:00,
2013-01-23 10:34:00,21.4,12.5,30.30,South,183,8.9,11.3,68,0.00,,OVC055,0.00,VWS V14.01,2013-01-23 15:34:00,
2013-01-23 10:35:00,21.6,12.6,30.30,South,190,12.5,16.0,68,0.00,,OVC055,0.00,VWS V14.01,2013-01-23 15:35:00,
2013-01-23 10:36:00,21.6,12.6,30.30,South,181,8.9,16.0,68,0.00,,OVC055,0.00,VWS V14.01,2013-01-23 15:36:00,
2013-01-23 10:37:00,21.7,12.8,30.30,South,185,5.2,8.5,68,0.00,,OVC055,0.00,VWS V14.01,2013-01-23 15:37:00,
2013-01-23 10:38:00,21.9,13.0,30.30,SW,223,3.7,8.5,68,0.00,,OVC055,0.00,VWS V14.01,2013-01-23 15:38:00,
2013-01-23 10:39:00,21.9,13.0,30.30,SW,232,8.1,10.3,68,0.00,,OVC055,0.00,VWS V14.01,2013-01-23 15:39:00,
2013-01-23 10:40:00,21.9,12.4,30.30,SSW,196,9.6,16.9,66,0.00,,OVC055,0.00,VWS V14.01,2013-01-23 15:40:00,
2013-01-23 10:41:00,21.9,12.4,30.30,SSW,194,0.0,12.2,66,0.00,,OVC055,0.00,VWS V14.01,2013-01-23 15:41:00,
2013-01-23 10:42:00,21.7,11.7,30.30,South,187,8.9,12.2,65,0.00,,OVC055,0.00,VWS V14.01,2013-01-23 15:42:00,
2013-01-23 10:43:00,21.7,11.7,30.30,SW,219,5.2,12.2,65,0.00,,OVC055,0.00,VWS V14.01,2013-01-23 15:43:00,
2013-01-23 10:44:00,21.4,11.3,30.30,SW,235,5.2,12.2,65,0.00,,OVC055,0.00,VWS V14.01,2013-01-23 15:44:00,
2013-01-23 10:45:00,21.4,11.3,30.30,SW,235,0.0,6.6,65,0.00,,OVC055,0.00,VWS V14.01,2013-01-23 15:45:00,
2013-01-23 10:46:00,21.6,11.5,30.30,SSE,155,0.0,6.6,65,0.00,,OVC055,0.00,VWS V14.01,2013-01-23 15:46:00,
2013-01-23 10:47:00,21.6,11.5,30.30,SW,223,4.4,11.3,65,0.00,,OVC055,0.00,VWS V14.01,2013-01-23 15:47:00,
2013-01-23 10:48:00,21.6,11.5,30.30,SW,219,6.6,11.3,65,0.00,,OVC055,0.00,VWS V14.01,2013-01-23 15:48:00,
2013-01-23 10:49:00,21.6,11.5,30.30,SSW,196,5.2,8.5,65,0.00,,OVC055,0.00,VWS V14.01,2013-01-23 15:49:00,
2013-01-23 10:50:00,21.7,11.7,30.30,SSW,196,5.2,10.3,65,0.00,,OVC055,0.00,VWS V14.01,2013-01-23 15:50:00,
2013-01-23 10:51:00,21.7,11.7,30.30,SW,214,6.6,8.5,65,0.00,,OVC055,0.00,VWS V14.01,2013-01-23 15:51:00,
2013-01-23 10:52:00,21.7,11.7,30.30,SW,221,5.9,10.3,65,0.00,,OVC055,0.00,VWS V14.01,2013-01-23 15:52:00,
2013-01-23 10:53:00,21.7,11.7,30.30,SSW,193,5.9,10.3,65,0.00,,OVC055,0.00,VWS V14.01,2013-01-23 15:53:00,
2013-01-23 10:54:00,21.7,11.7,30.30,SSE,160,8.9,17.4,65,0.00,,OVC055,0.00,VWS V14.01,2013-01-23 15:54:00,
2013-01-23 10:55:00,21.9,11.8,30.30,SSE,154,8.9,12.2,65,0.00,,OVC055,0.00,VWS V14.01,2013-01-23 15:55:00,
2013-01-23 10:56:00,21.9,12.4,30.30,South,184,8.1,11.3,66,0.00,,OVC055,0.00,VWS V14.01,2013-01-23 15:56:00,
2013-01-23 10:57:00,22.1,12.6,30.30,South,187,8.1,10.3,66,0.00,,OVC055,0.00,VWS V14.01,2013-01-23 15:57:00,
2013-01-23 10:58:00,22.3,12.8,30.30,South,183,5.9,10.3,66,0.00,,OVC055,0.00,VWS V14.01,2013-01-23 15:58:00,
2013-01-23 10:59:00,22.3,12.8,30.30,SE,136,6.6,13.2,66,0.00,,OVC055,0.00,VWS V14.01,2013-01-23 15:59:00,
2013-01-23 11:00:00,22.5,12.9,30.30,SSE,149,5.9,8.5,66,0.00,,OVC055,0.00,VWS V14.01,2013-01-23 16:00:00,
2013-01-23 11:01:00,22.6,13.1,30.30,SE,143,8.1,10.3,66,0.00,,OVC055,0.00,VWS V14.01,2013-01-23 16:01:00,
2013-01-23 11:02:00,22.8,13.3,30.30,SSE,159,6.6,12.2,66,0.00,,OVC055,0.00,VWS V14.01,2013-01-23 16:02:00,
2013-01-23 11:03:00,23.0,13.4,30.30,South,178,6.6,12.2,66,0.00,,OVC055,0.00,VWS V14.01,2013-01-23 16:03:00,
2013-01-23 11:04:00,23.0,13.4,30.30,SSE,159,8.1,12.2,66,0.00,,OVC055,0.00,VWS V14.01,2013-01-23 16:04:00,
2013-01-23 11:05:00,23.2,13.6,30.30,SSE,156,5.2,12.2,66,0.00,,OVC055,0.00,VWS V14.01,2013-01-23 16:05:00,
2013-01-23 11:06:00,23.4,13.8,30.30,SSE,157,6.6,12.2,66,0.00,,OVC055,0.00,VWS V14.01,2013-01-23 16:06:00,
2013-01-23 11:07:00,23.5,13.4,30.30,South,187,8.9,11.3,65,0.00,,OVC055,0.00,VWS V14.01,2013-01-23 16:07:00,
2013-01-23 11:08:00,23.5,13.4,30.30,SSW,205,9.6,12.2,65,0.00,,OVC055,0.00,VWS V14.01,2013-01-23 16:08:00,
2013-01-23 11:09:00,23.5,13.4,30.30,SSW,213,4.4,12.2,65,0.00,,OVC055,0.00,VWS V14.01,2013-01-23 16:09:00,
2013-01-23 11:10:00,23.7,12.9,30.30,SSW,206,0.0,5.6,63,0.00,,OVC055,0.00,VWS V14.01,2013-01-23 16:10:00,
2013-01-23 11:11:00,23.7,12.9,30.30,WSW,256,5.9,10.3,63,0.00,,OVC055,0.00,VWS V14.01,2013-01-23 16:11:00,
2013-01-23 11:12:00,23.7,12.9,30.30,SSE,162,8.1,10.3,63,0.00,,OVC055,0.00,VWS V14.01,2013-01-23 16:12:00,
2013-01-23 11:13:00,23.5,12.8,30.30,SSW,209,4.4,12.2,63,0.00,,OVC055,0.00,VWS V14.01,2013-01-23 16:13:00,
2013-01-23 11:14:00,23.5,12.8,30.30,SSW,200,3.7,8.5,63,0.00,,OVC055,0.00,VWS V14.01,2013-01-23 16:14:00,
2013-01-23 11:15:00,23.5,12.8,30.30,SW,223,5.9,15.0,63,0.00,,OVC055,0.00,VWS V14.01,2013-01-23 16:15:00,
2013-01-23 11:16:00,23.2,11.8,30.30,WSW,256,8.9,11.3,61,0.00,,OVC055,0.00,VWS V14.01,2013-01-23 16:16:00,
2013-01-23 11:17:00,23.0,11.6,30.30,WSW,257,8.9,12.2,61,0.00,,OVC055,0.00,VWS V14.01,2013-01-23 16:17:00,
2013-01-23 11:18:00,23.0,11.6,30.30,SW,231,3.7,13.2,61,0.00,,OVC055,0.00,VWS V14.01,2013-01-23 16:18:00,
2013-01-23 11:19:00,23.0,12.3,30.30,SSW,200,5.2,6.6,63,0.00,,OVC055,0.00,VWS V14.01,2013-01-23 16:19:00,
2013-01-23 11:20:00,23.0,12.3,30.30,SSE,150,8.9,12.2,63,0.00,,OVC055,0.00,VWS V14.01,2013-01-23 16:20:00,
2013-01-23 11:21:00,23.0,12.3,30.30,SSW,193,9.6,12.2,63,0.00,,OVC055,0.00,VWS V14.01,2013-01-23 16:21:00,
2013-01-23 11:22:00,23.0,12.3,30.30,SSW,193,5.2,12.2,63,0.00,,OVC055,0.00,VWS V14.01,2013-01-23 16:22:00,
2013-01-23 11:23:00,23.2,12.4,30.30,WSW,243,6.6,8.5,63,0.00,,OVC055,0.00,VWS V14.01,2013-01-23 16:23:00,
2013-01-23 11:24:00,23.4,12.6,30.30,SSE,164,4.4,8.5,63,0.00,,OVC055,0.00,VWS V14.01,2013-01-23 16:24:00,
2013-01-23 11:25:00,23.4,12.6,30.30,South,179,6.6,13.2,63,0.00,,OVC055,0.00,VWS V14.01,2013-01-23 16:25:00,
2013-01-23 11:26:00,23.5,12.8,30.30,SE,128,9.6,12.2,63,0.00,,OVC055,0.00,VWS V14.01,2013-01-23 16:26:00,
2013-01-23 11:27:00,23.5,12.8,30.30,South,186,9.6,13.2,63,0.00,,OVC055,0.00,VWS V14.01,2013-01-23 16:27:00,
2013-01-23 11:28:00,23.7,12.9,30.30,SE,138,6.6,12.2,63,0.00,,OVC055,0.00,VWS V14.01,2013-01-23 16:28:00,
2013-01-23 11:29:00,23.9,13.1,30.30,SE,139,9.6,12.2,63,0.00,,OVC055,0.00,VWS V14.01,2013-01-23 16:29:00,
2013-01-23 11:30:00,24.1,13.3,30.30,SSE,166,9.6,12.2,63,0.00,,OVC055,0.00,VWS V14.01,2013-01-23 16:30:00,
2013-01-23 11:31:00,24.3,13.5,30.30,SW,224,6.6,15.0,63,0.00,,OVC055,0.00,VWS V14.01,2013-01-23 16:31:00,
2013-01-23 11:41:00,24.8,13.4,30.27,ENE,74,6.6,8.5,61,0.00,,OVC055,0.00,VWS V14.01,2013-01-23 16:41:00,
2013-01-23 11:42:00,24.8,13.4,30.27,SSE,149,4.4,10.3,61,0.00,,OVC150,0.00,VWS V14.01,2013-01-23 16:42:00,
2013-01-23 11:43:00,25.0,13.5,30.27,SSE,157,4.4,7.5,61,0.00,,OVC150,0.00,VWS V14.01,2013-01-23 16:43:00,
2013-01-23 11:44:00,25.0,13.5,30.27,South,181,8.9,12.2,61,0.00,,OVC150,0.00,VWS V14.01,2013-01-23 16:44:00,
2013-01-23 11:45:00,25.2,13.7,30.27,SSW,208,8.9,12.2,61,0.00,,OVC150,0.00,VWS V14.01,2013-01-23 16:45:00,
2013-01-23 11:46:00,25.3,13.2,30.27,West,260,5.9,11.3,60,0.00,,,0.00,VWS V14.01,2013-01-23 16:46:00,
2013-01-23 11:47:00,25.3,13.2,30.27,SW,228,4.4,7.5,60,0.00,,OVC150,0.00,VWS V14.01,2013-01-23 16:47:00,
2013-01-23 11:48:00,25.3,13.2,30.27,South,173,5.2,8.5,60,0.00,,OVC150,0.00,VWS V14.01,2013-01-23 16:48:00,
2013-01-23 11:49:00,25.3,13.2,30.27,SSE,150,10.3,13.2,60,0.00,,OVC150,0.00,VWS V14.01,2013-01-23 16:49:00,
2013-01-23 11:50:00,25.3,13.2,30.27,South,181,8.9,16.0,60,0.00,,OVC150,0.00,VWS V14.01,2013-01-23 16:50:00,
2013-01-23 11:51:00,25.5,13.4,30.27,South,180,5.2,7.5,60,0.00,,,0.00,VWS V14.01,2013-01-23 16:51:00,
2013-01-23 11:52:00,25.5,13.4,30.27,West,266,5.9,9.4,60,0.00,,OVC150,0.00,VWS V14.01,2013-01-23 16:52:00,
2013-01-23 11:53:00,25.5,13.4,30.27,SSW,201,9.6,12.2,60,0.00,,OVC150,0.00,VWS V14.01,2013-01-23 16:53:00,
2013-01-23 11:54:00,25.5,13.4,30.27,SSE,158,4.4,12.2,60,0.00,,OVC150,0.00,VWS V14.01,2013-01-23 16:54:00,
2013-01-23 11:55:00,25.5,12.7,30.27,West,271,6.6,8.5,58,0.00,,OVC150,0.00,VWS V14.01,2013-01-23 16:55:00,
2013-01-23 11:56:00,25.5,13.4,30.27,West,269,4.4,5.6,60,0.00,,,0.00,VWS V14.01,2013-01-23 16:56:00,
2013-01-23 11:57:00,25.5,13.4,30.27,WNW,295,5.9,8.5,60,0.00,,OVC150,0.00,VWS V14.01,2013-01-23 16:57:00,
2013-01-23 11:58:00,25.3,13.2,30.27,WSW,253,5.2,11.3,60,0.00,,OVC150,0.00,VWS V14.01,2013-01-23 16:58:00,
2013-01-23 11:59:00,25.3,13.2,30.27,West,265,5.2,13.2,60,0.00,,OVC150,0.00,VWS V14.01,2013-01-23 16:59:00,
2013-01-23 12:00:00,25.3,13.2,30.27,South,180,5.2,6.6,60,0.00,,OVC150,0.00,VWS V14.01,2013-01-23 17:00:00,
2013-01-23 12:01:00,25.5,13.4,30.27,ESE,115,6.6,11.3,60,0.00,,,0.00,VWS V14.01,2013-01-23 17:01:00,
2013-01-23 12:02:00,25.5,13.4,30.27,SSE,166,9.6,13.2,60,0.00,,OVC150,0.00,VWS V14.01,2013-01-23 17:02:00,
2013-01-23 12:03:00,25.5,13.4,30.27,South,173,5.9,12.2,60,0.00,,OVC150,0.00,VWS V14.01,2013-01-23 17:03:00,
2013-01-23 12:04:00,25.7,13.6,30.27,South,176,9.6,12.2,60,0.00,,OVC150,0.00,VWS V14.01,2013-01-23 17:04:00,
2013-01-23 12:06:00,25.9,13.7,30.27,SSW,193,9.6,15.0,60,0.00,,,0.00,VWS V14.01,2013-01-23 17:06:00,
2013-01-23 12:07:00,26.1,13.9,30.27,SSE,155,5.9,12.2,60,0.00,,OVC150,0.00,VWS V14.01,2013-01-23 17:07:00,
2013-01-23 12:08:00,26.1,13.9,30.27,SSE,159,5.2,8.5,60,0.00,,OVC150,0.00,VWS V14.01,2013-01-23 17:08:00,
2013-01-23 12:09:00,26.1,13.9,30.27,South,173,8.9,11.3,60,0.00,,OVC150,0.00,VWS V14.01,2013-01-23 17:09:00,
2013-01-23 12:10:00,26.2,14.1,30.27,South,171,6.6,13.2,60,0.00,,OVC150,0.00,VWS V14.01,2013-01-23 17:10:00,
2013-01-23 12:11:00,26.4,14.2,30.27,SSW,203,5.9,12.2,60,0.00,,,0.00,VWS V14.01,2013-01-23 17:11:00,
2013-01-23 12:12:00,26.4,14.2,30.27,WSW,249,5.9,12.2,60,0.00,,OVC150,0.00,VWS V14.01,2013-01-23 17:12:00,
2013-01-23 12:13:00,26.4,13.6,30.27,SSW,201,6.6,13.2,58,0.00,,OVC150,0.00,VWS V14.01,2013-01-23 17:13:00,
2013-01-23 12:14:00,26.4,14.2,30.27,South,191,13.7,17.4,60,0.00,,OVC150,0.00,VWS V14.01,2013-01-23 17:14:00,
2013-01-23 12:15:00,26.6,14.4,30.27,SSW,197,9.6,17.4,60,0.00,,OVC150,0.00,VWS V14.01,2013-01-23 17:15:00,
2013-01-23 12:16:00,26.8,14.6,30.27,SW,215,6.6,16.9,60,0.00,,,0.00,VWS V14.01,2013-01-23 17:16:00,
2013-01-23 12:17:00,26.8,14.6,30.27,SSE,159,9.6,16.9,60,0.00,,OVC150,0.00,VWS V14.01,2013-01-23 17:17:00,
2013-01-23 12:18:00,27.0,14.8,30.27,SE,139,9.6,12.2,60,0.00,,OVC150,0.00,VWS V14.01,2013-01-23 17:18:00,
2013-01-23 12:19:00,27.0,14.1,30.27,SSE,166,9.6,12.2,58,0.00,,OVC150,0.00,VWS V14.01,2013-01-23 17:19:00,
2013-01-23 12:20:00,27.1,14.3,30.27,WSW,242,5.2,12.2,58,0.00,,OVC150,0.00,VWS V14.01,2013-01-23 17:20:00,
2013-01-23 12:21:00,27.0,14.1,30.27,SSW,212,4.4,7.5,58,0.00,,,0.00,VWS V14.01,2013-01-23 17:21:00,
2013-01-23 12:22:00,27.0,14.1,30.27,SW,218,9.6,12.2,58,0.00,,OVC150,0.00,VWS V14.01,2013-01-23 17:22:00,
2013-01-23 12:23:00,27.0,14.1,30.27,WSW,248,5.9,13.2,58,0.00,,OVC150,0.00,VWS V14.01,2013-01-23 17:23:00,
2013-01-23 12:24:00,27.0,14.1,30.27,West,267,3.7,8.5,58,0.00,,OVC150,0.00,VWS V14.01,2013-01-23 17:24:00,
2013-01-23 12:25:00,27.0,14.1,30.27,West,273,5.2,6.6,58,0.00,,OVC150,0.00,VWS V14.01,2013-01-23 17:25:00,
2013-01-23 12:26:00,26.8,13.9,30.24,WSW,246,8.1,10.3,58,0.00,,,0.00,VWS V14.01,2013-01-23 17:26:00,
2013-01-23 12:27:00,26.8,13.9,30.25,South,180,10.3,13.2,58,0.00,,OVC150,0.00,VWS V14.01,2013-01-23 17:27:00,
2013-01-23 12:28:00,26.8,13.9,30.25,West,264,6.6,13.2,58,0.00,,OVC150,0.00,VWS V14.01,2013-01-23 17:28:00,
2013-01-23 12:29:00,26.6,13.8,30.25,West,270,8.1,15.0,58,0.00,,OVC150,0.00,VWS V14.01,2013-01-23 17:29:00,
2013-01-23 12:30:00,26.8,13.9,30.25,SSE,163,9.6,12.2,58,0.00,,OVC150,0.00,VWS V14.01,2013-01-23 17:30:00,
2013-01-23 12:31:00,26.8,13.9,30.24,SW,224,6.6,13.2,58,0.00,,,0.00,VWS V14.01,2013-01-23 17:31:00,
2013-01-23 12:32:00,26.8,13.9,30.25,SW,224,6.6,13.2,58,0.00,,OVC150,0.00,VWS V14.01,2013-01-23 17:32:00,
2013-01-23 12:33:00,26.8,13.9,30.25,South,180,5.2,12.2,58,0.00,,OVC150,0.00,VWS V14.01,2013-01-23 17:33:00,
2013-01-23 12:34:00,26.8,13.9,30.25,SSE,167,6.6,11.3,58,0.00,,OVC150,0.00,VWS V14.01,2013-01-23 17:34:00,
2013-01-23 12:35:00,27.0,14.1,30.25,South,181,9.6,12.2,58,0.00,,OVC150,0.00,VWS V14.01,2013-01-23 17:35:00,
2013-01-23 12:36:00,27.0,14.1,30.24,South,178,8.9,15.0,58,0.00,,OVC047,0.00,VWS V14.01,2013-01-23 17:36:00,
2013-01-23 12:37:00,27.0,14.1,30.25,SW,221,8.1,15.0,58,0.00,,OVC150,0.00,VWS V14.01,2013-01-23 17:37:00,
2013-01-23 12:38:00,27.1,14.3,30.25,SSE,163,8.9,11.3,58,0.00,,OVC150,0.00,VWS V14.01,2013-01-23 17:38:00,
2013-01-23 12:39:00,27.1,14.3,30.25,WSW,257,9.6,12.2,58,0.00,,OVC150,0.00,VWS V14.01,2013-01-23 17:39:00,
2013-01-23 12:40:00,27.3,14.4,30.25,South,180,8.9,16.0,58,0.00,,OVC150,0.00,VWS V14.01,2013-01-23 17:40:00,
2013-01-23 12:41:00,27.5,14.6,30.25,SSE,158,5.9,17.4,58,0.00,,OVC150,0.00,VWS V14.01,2013-01-23 17:41:00,
2013-01-23 12:42:00,27.5,14.6,30.24,South,172,8.9,16.9,58,0.00,,OVC047,0.00,VWS V14.01,2013-01-23 17:42:00,
2013-01-23 12:43:00,27.7,14.8,30.25,South,177,11.1,22.1,58,0.00,,OVC150,0.00,VWS V14.01,2013-01-23 17:43:00,
2013-01-23 12:44:00,27.9,14.9,30.25,South,180,9.6,14.1,58,0.00,,OVC150,0.00,VWS V14.01,2013-01-23 17:44:00,
2013-01-23 12:45:00,27.9,14.9,30.25,SW,225,5.9,13.2,58,0.00,,OVC150,0.00,VWS V14.01,2013-01-23 17:45:00,
2013-01-23 12:46:00,28.0,15.1,30.25,SSW,208,5.9,8.5,58,0.00,,OVC150,0.00,VWS V14.01,2013-01-23 17:46:00,
2013-01-23 12:47:00,28.0,15.1,30.24,SSW,204,5.9,11.3,58,0.00,,OVC047,0.00,VWS V14.01,2013-01-23 17:47:00,
2013-01-23 12:48:00,28.2,15.3,30.25,SSE,161,9.6,12.2,58,0.00,,OVC150,0.00,VWS V14.01,2013-01-23 17:48:00,
2013-01-23 12:49:00,28.4,15.4,30.25,SSW,199,10.3,22.1,58,0.00,,OVC150,0.00,VWS V14.01,2013-01-23 17:49:00,
2013-01-23 12:50:00,28.6,15.6,30.25,WSW,245,8.1,13.2,58,0.00,,OVC150,0.00,VWS V14.01,2013-01-23 17:50:00,
2013-01-23 12:51:00,28.6,14.9,30.25,WSW,238,6.6,11.3,56,0.00,,OVC150,0.00,VWS V14.01,2013-01-23 17:51:00,
2013-01-23 12:52:00,28.4,14.8,30.24,SW,215,3.7,8.5,56,0.00,,OVC047,0.00,VWS V14.01,2013-01-23 17:52:00,
2013-01-23 12:53:00,28.4,14.8,30.25,WSW,246,5.9,8.5,56,0.00,,OVC150,0.00,VWS V14.01,2013-01-23 17:53:00,
2013-01-23 12:54:00,28.6,14.9,30.25,SSW,198,6.6,10.3,56,0.00,,OVC150,0.00,VWS V14.01,2013-01-23 17:54:00,
2013-01-23 12:55:00,28.6,14.9,30.22,SSE,162,8.1,10.3,56,0.00,,OVC150,0.00,VWS V14.01,2013-01-23 17:55:00,
2013-01-23 12:56:00,28.6,14.9,30.22,SSE,166,6.6,12.2,56,0.00,,OVC150,0.00,VWS V14.01,2013-01-23 17:56:00,
2013-01-23 12:57:00,28.6,14.9,30.22,SSW,199,9.6,13.2,56,0.00,,OVC047,0.00,VWS V14.01,2013-01-23 17:57:00,
2013-01-23 12:58:00,28.8,15.8,30.22,SSE,154,9.6,12.2,58,0.00,,OVC150,0.00,VWS V14.01,2013-01-23 17:58:00,
2013-01-23 12:59:00,28.9,15.9,30.22,SSW,192,8.1,13.2,58,0.00,,OVC150,0.00,VWS V14.01,2013-01-23 17:59:00,
2013-01-23 13:00:00,29.1,16.1,30.22,SSW,193,4.4,11.3,58,0.00,,OVC150,0.00,VWS V14.01,2013-01-23 18:00:00,
2013-01-23 13:01:00,29.1,16.1,30.22,SSW,195,5.2,6.6,58,0.00,,OVC150,0.00,VWS V14.01,2013-01-23 18:01:00,
2013-01-23 13:02:00,29.3,16.3,30.22,South,184,10.3,13.2,58,0.00,,OVC047,0.00,VWS V14.01,2013-01-23 18:02:00,
2013-01-23 13:03:00,29.3,16.3,30.22,ESE,123,3.7,13.2,58,0.00,,OVC150,0.00,VWS V14.01,2013-01-23 18:03:00,
2013-01-23 13:04:00,29.3,15.6,30.22,South,186,5.2,12.2,56,0.00,,OVC150,0.00,VWS V14.01,2013-01-23 18:04:00,
2013-01-23 13:05:00,29.3,15.6,30.22,West,278,8.9,12.2,56,0.00,,OVC150,0.00,VWS V14.01,2013-01-23 18:05:00,
2013-01-23 13:06:00,29.1,15.4,30.22,SSW,202,9.6,16.0,56,0.00,,OVC150,0.00,VWS V14.01,2013-01-23 18:06:00,
2013-01-23 13:07:00,29.3,15.6,30.22,SSE,157,11.1,14.1,56,0.00,,OVC047,0.00,VWS V14.01,2013-01-23 18:07:00,
2013-01-23 13:08:00,29.3,15.6,30.22,SW,220,8.1,14.1,56,0.00,,OVC150,0.00,VWS V14.01,2013-01-23 18:08:00,
2013-01-23 13:09:00,29.3,15.6,30.22,SE,130,4.4,10.3,56,0.00,,OVC150,0.00,VWS V14.01,2013-01-23 18:09:00,
2013-01-23 13:10:00,29.3,15.6,30.22,SSE,164,7.4,11.3,56,0.00,,OVC150,0.00,VWS V14.01,2013-01-23 18:10:00,
2013-01-23 13:11:00,29.3,15.6,30.22,SSW,210,7.4,14.1,56,0.00,,OVC150,0.00,VWS V14.01,2013-01-23 18:11:00,
2013-01-23 13:12:00,29.5,15.8,30.22,SSE,164,5.9,7.5,56,0.00,,OVC047,0.00,VWS V14.01,2013-01-23 18:12:00,
2013-01-23 13:13:00,29.5,15.8,30.22,SE,138,8.1,10.3,56,0.00,,OVC150,0.00,VWS V14.01,2013-01-23 18:13:00,
2013-01-23 13:14:00,29.7,15.9,30.22,SE,141,13.7,17.4,56,0.00,,OVC150,0.00,VWS V14.01,2013-01-23 18:14:00,
2013-01-23 13:15:00,29.8,16.1,30.22,West,267,9.6,17.4,56,0.00,,OVC150,0.00,VWS V14.01,2013-01-23 18:15:00,
2013-01-23 13:16:00,29.8,16.1,30.22,SSW,194,9.6,12.2,56,0.00,,OVC150,0.00,VWS V14.01,2013-01-23 18:16:00,
2013-01-23 13:17:00,30.0,16.3,30.22,West,260,5.9,7.5,56,0.00,,OVC047,0.00,VWS V14.01,2013-01-23 18:17:00,
2013-01-23 13:18:00,29.8,16.1,30.22,South,184,4.4,7.5,56,0.00,,OVC150,0.00,VWS V14.01,2013-01-23 18:18:00,
2013-01-23 13:19:00,29.8,16.1,30.22,SSE,151,4.4,11.3,56,0.00,,OVC150,0.00,VWS V14.01,2013-01-23 18:19:00,
2013-01-23 13:20:00,29.8,16.1,30.22,SSE,151,8.1,10.3,56,0.00,,OVC150,0.00,VWS V14.01,2013-01-23 18:20:00,
2013-01-23 13:21:00,29.8,16.1,30.22,SSW,195,6.6,16.0,56,0.00,,OVC150,0.00,VWS V14.01,2013-01-23 18:21:00,
2013-01-23 13:22:00,30.0,16.3,30.22,SSW,197,5.2,10.3,56,0.00,,OVC047,0.00,VWS V14.01,2013-01-23 18:22:00,
2013-01-23 13:23:00,30.0,16.3,30.22,West,263,5.9,10.3,56,0.00,,OVC150,0.00,VWS V14.01,2013-01-23 18:23:00,
2013-01-23 13:24:00,29.8,15.4,30.22,South,184,4.4,11.3,54,0.00,,OVC150,0.00,VWS V14.01,2013-01-23 18:24:00,
2013-01-23 13:25:00,29.8,15.4,30.22,SW,220,8.1,16.9,54,0.00,,OVC150,0.00,VWS V14.01,2013-01-23 18:25:00,
2013-01-23 13:26:00,29.8,15.4,30.19,SW,217,4.4,10.3,54,0.00,,OVC150,0.00,VWS V14.01,2013-01-23 18:26:00,
2013-01-23 13:27:00,29.8,16.1,30.19,South,187,8.9,12.2,56,0.00,,OVC047,0.00,VWS V14.01,2013-01-23 18:27:00,
2013-01-23 13:28:00,29.8,16.1,30.19,SSW,194,5.2,12.2,56,0.00,,OVC150,0.00,VWS V14.01,2013-01-23 18:28:00,
2013-01-23 13:29:00,29.8,16.1,30.19,SSW,194,8.9,11.3,56,0.00,,OVC150,0.00,VWS V14.01,2013-01-23 18:29:00,
2013-01-23 13:30:00,29.8,16.1,30.19,SW,217,8.9,12.2,56,0.00,,OVC150,0.00,VWS V14.01,2013-01-23 18:30:00,
2013-01-23 13:31:00,29.8,16.1,30.19,South,172,8.1,18.3,56,0.00,,OVC150,0.00,VWS V14.01,2013-01-23 18:31:00,
2013-01-23 13:32:00,30.0,16.3,30.19,SSW,207,10.3,18.3,56,0.00,,OVC047,0.00,VWS V14.01,2013-01-23 18:32:00,
2013-01-23 13:33:00,30.2,16.5,30.19,SW,235,9.6,18.3,56,0.00,,OVC150,0.00,VWS V14.01,2013-01-23 18:33:00,
2013-01-23 13:34:00,30.2,16.5,30.19,South,185,8.9,12.2,56,0.00,,OVC150,0.00,VWS V14.01,2013-01-23 18:34:00,
2013-01-23 13:35:00,30.2,16.5,30.19,SSE,152,9.6,13.2,56,0.00,,OVC150,0.00,VWS V14.01,2013-01-23 18:35:00,
2013-01-23 13:36:00,30.4,15.9,30.19,SSW,205,5.9,12.2,54,0.00,,OVC150,0.00,VWS V14.01,2013-01-23 18:36:00,
2013-01-23 13:37:00,30.6,16.1,30.19,West,263,8.9,11.3,54,0.00,,OVC065,0.00,VWS V14.01,2013-01-23 18:37:00,
2013-01-23 13:38:00,30.6,16.1,30.19,WSW,254,6.6,12.2,54,0.00,,OVC150,0.00,VWS V14.01,2013-01-23 18:38:00,
2013-01-23 13:39:00,30.7,16.2,30.19,WSW,250,3.7,8.5,54,0.00,,OVC150,0.00,VWS V14.01,2013-01-23 18:39:00,
2013-01-23 13:40:00,30.7,16.2,30.19,SSW,195,8.9,11.3,54,0.00,,OVC150,0.00,VWS V14.01,2013-01-23 18:40:00,
2013-01-23 13:41:00,30.7,16.2,30.19,SSE,160,5.2,13.2,54,0.00,,OVC150,0.00,VWS V14.01,2013-01-23 18:41:00,
2013-01-23 13:42:00,30.7,16.2,30.19,South,179,8.9,11.3,54,0.00,,OVC065,0.00,VWS V14.01,2013-01-23 18:42:00,
2013-01-23 13:43:00,30.7,16.2,30.19,South,183,8.9,11.3,54,0.00,,OVC150,0.00,VWS V14.01,2013-01-23 18:43:00,
2013-01-23 13:44:00,30.7,16.2,30.19,SSW,202,4.4,11.3,54,0.00,,OVC150,0.00,VWS V14.01,2013-01-23 18:44:00,
2013-01-23 13:45:00,30.9,16.4,30.19,South,179,6.6,8.5,54,0.00,,OVC150,0.00,VWS V14.01,2013-01-23 18:45:00,
2013-01-23 13:46:00,30.9,16.4,30.19,WSW,237,4.4,10.3,54,0.00,,OVC150,0.00,VWS V14.01,2013-01-23 18:46:00,
2013-01-23 13:47:00,30.9,16.4,30.19,South,176,8.9,11.3,54,0.00,,OVC150,0.00,VWS V14.01,2013-01-23 18:47:00,
2013-01-23 13:48:00,30.9,16.4,30.19,SW,219,4.4,13.2,54,0.00,,OVC065,0.00,VWS V14.01,2013-01-23 18:48:00,
2013-01-23 13:49:00,30.9,16.4,30.19,SSW,196,5.9,7.5,54,0.00,,OVC150,0.00,VWS V14.01,2013-01-23 18:49:00,
2013-01-23 13:50:00,31.1,16.6,30.19,South,173,9.6,12.2,54,0.00,,OVC150,0.00,VWS V14.01,2013-01-23 18:50:00,
2013-01-23 13:51:00,31.1,16.6,30.19,West,277,9.6,13.2,54,0.00,,OVC150,0.00,VWS V14.01,2013-01-23 18:51:00,
2013-01-23 13:52:00,31.1,16.6,30.19,South,184,12.5,16.0,54,0.00,,OVC150,0.00,VWS V14.01,2013-01-23 18:52:00,
2013-01-23 13:53:00,31.1,16.6,30.19,SSE,151,11.1,16.9,54,0.00,,OVC065,0.00,VWS V14.01,2013-01-23 18:53:00,
2013-01-23 13:54:00,31.3,16.8,30.19,South,185,10.3,16.0,54,0.00,,OVC150,0.00,VWS V14.01,2013-01-23 18:54:00,
2013-01-23 13:55:00,31.3,16.8,30.19,ESE,122,5.2,13.2,54,0.00,,OVC150,0.00,VWS V14.01,2013-01-23 18:55:00,
2013-01-23 13:56:00,31.3,16.8,30.19,SSW,202,5.2,8.5,54,0.00,,OVC150,0.00,VWS V14.01,2013-01-23 18:56:00,
2013-01-23 13:57:00,31.3,16.8,30.19,SSW,192,9.6,12.2,54,0.00,,OVC150,0.00,VWS V14.01,2013-01-23 18:57:00,
2013-01-23 13:58:00,31.3,16.8,30.19,SSE,167,9.6,12.2,54,0.00,,OVC065,0.00,VWS V14.01,2013-01-23 18:58:00,
2013-01-23 13:59:00,31.3,16.8,30.19,SSW,209,4.4,12.2,54,0.00,,OVC150,0.00,VWS V14.01,2013-01-23 18:59:00,
2013-01-23 14:00:00,31.5,16.9,30.19,SSW,194,12.5,16.0,54,0.00,,OVC150,0.00,VWS V14.01,2013-01-23 19:00:00,
2013-01-23 14:01:00,31.5,16.9,30.19,SSE,158,10.3,17.4,54,0.00,,OVC150,0.00,VWS V14.01,2013-01-23 19:01:00,
2013-01-23 14:02:00,31.5,16.9,30.19,SW,224,4.4,13.2,54,0.00,,OVC150,0.00,VWS V14.01,2013-01-23 19:02:00,
2013-01-23 14:03:00,31.5,16.9,30.19,SSE,149,5.9,11.3,54,0.00,,OVC065,0.00,VWS V14.01,2013-01-23 19:03:00,
2013-01-23 14:04:00,31.5,16.9,30.19,SW,217,10.3,14.1,54,0.00,,OVC150,0.00,VWS V14.01,2013-01-23 19:04:00,
2013-01-23 14:05:00,31.5,16.9,30.19,SW,220,8.1,13.2,54,0.00,,OVC150,0.00,VWS V14.01,2013-01-23 19:05:00,
2013-01-23 14:06:00,31.5,16.9,30.19,SW,220,6.6,12.2,54,0.00,,OVC150,0.00,VWS V14.01,2013-01-23 19:06:00,
2013-01-23 14:07:00,31.5,16.9,30.19,South,174,8.9,11.3,54,0.00,,OVC150,0.00,VWS V14.01,2013-01-23 19:07:00,
2013-01-23 14:08:00,31.5,16.9,30.19,SW,214,9.6,12.2,54,0.00,,OVC065,0.00,VWS V14.01,2013-01-23 19:08:00,
2013-01-23 14:09:00,31.5,16.9,30.19,South,185,9.6,12.2,54,0.00,,OVC150,0.00,VWS V14.01,2013-01-23 19:09:00,
2013-01-23 14:10:00,31.5,16.9,30.19,SSW,192,8.9,12.2,54,0.00,,OVC150,0.00,VWS V14.01,2013-01-23 19:10:00,
2013-01-23 14:11:00,31.5,16.9,30.16,WSW,243,4.4,11.3,54,0.00,,OVC150,0.00,VWS V14.01,2013-01-23 19:11:00,
2013-01-23 14:12:00,31.5,16.9,30.16,SSE,167,6.6,8.5,54,0.00,,OVC150,0.00,VWS V14.01,2013-01-23 19:12:00,
2013-01-23 14:13:00,31.5,16.9,30.16,SW,222,5.2,10.3,54,0.00,,OVC065,0.00,VWS V14.01,2013-01-23 19:13:00,
2013-01-23 14:14:00,31.5,16.9,30.16,WNW,299,4.4,10.3,54,0.00,,OVC150,0.00,VWS V14.01,2013-01-23 19:14:00,
2013-01-23 14:15:00,31.5,16.9,30.16,WSW,252,4.4,7.5,54,0.00,,OVC150,0.00,VWS V14.01,2013-01-23 19:15:00,
2013-01-23 14:16:00,31.5,16.9,30.16,SSW,193,4.4,8.5,54,0.00,,OVC150,0.00,VWS V14.01,2013-01-23 19:16:00,
2013-01-23 14:17:00,31.6,17.1,30.16,West,262,5.2,11.3,54,0.00,,OVC150,0.00,VWS V14.01,2013-01-23 19:17:00,
2013-01-23 14:18:00,31.6,17.1,30.16,WSW,239,13.3,16.9,54,0.00,,OVC065,0.00,VWS V14.01,2013-01-23 19:18:00,
2013-01-23 14:19:00,31.8,17.2,30.16,SSW,192,4.4,16.9,54,0.00,,OVC150,0.00,VWS V14.01,2013-01-23 19:19:00,
2013-01-23 14:20:00,31.6,17.1,30.16,South,185,10.3,13.2,54,0.00,,OVC150,0.00,VWS V14.01,2013-01-23 19:20:00,
2013-01-23 14:21:00,31.8,17.2,30.16,South,169,5.2,16.0,54,0.00,,OVC150,0.00,VWS V14.01,2013-01-23 19:21:00,
2013-01-23 14:22:00,31.8,17.2,30.16,South,186,5.9,7.5,54,0.00,,OVC150,0.00,VWS V14.01,2013-01-23 19:22:00,
2013-01-23 14:23:00,31.8,17.2,30.16,South,170,10.3,13.2,54,0.00,,OVC065,0.00,VWS V14.01,2013-01-23 19:23:00,
2013-01-23 14:24:00,31.8,17.2,30.16,SSE,160,5.2,13.2,54,0.00,,OVC150,0.00,VWS V14.01,2013-01-23 19:24:00,
2013-01-23 14:25:00,31.8,17.2,30.16,South,169,5.9,7.5,54,0.00,,OVC150,0.00,VWS V14.01,2013-01-23 19:25:00,
2013-01-23 14:26:00,32.0,17.4,30.16,South,191,6.6,12.2,54,0.00,,OVC150,0.00,VWS V14.01,2013-01-23 19:26:00,
2013-01-23 14:27:00,32.0,17.4,30.16,SSW,205,5.9,8.5,54,0.00,,OVC150,0.00,VWS V14.01,2013-01-23 19:27:00,
2013-01-23 14:28:00,32.0,17.4,30.16,SE,144,4.4,5.6,54,0.00,,OVC065,0.00,VWS V14.01,2013-01-23 19:28:00,
2013-01-23 14:29:00,32.0,17.4,30.16,SE,144,3.7,5.6,54,0.00,,OVC150,0.00,VWS V14.01,2013-01-23 19:29:00,
2013-01-23 14:30:00,32.0,17.4,30.16,SW,220,10.3,16.0,54,0.00,,OVC150,0.00,VWS V14.01,2013-01-23 19:30:00,
2013-01-23 14:31:00,32.0,17.4,30.16,SSW,200,6.6,13.2,54,0.00,,OVC150,0.00,VWS V14.01,2013-01-23 19:31:00,
2013-01-23 14:32:00,32.0,17.4,30.16,SSE,154,9.6,12.2,54,0.00,,OVC150,0.00,VWS V14.01,2013-01-23 19:32:00,
2013-01-23 14:33:00,32.0,17.4,30.16,South,176,5.9,7.5,54,0.00,,OVC065,0.00,VWS V14.01,2013-01-23 19:33:00,
2013-01-23 14:34:00,32.0,17.4,30.16,South,176,5.9,7.5,54,0.00,,OVC150,0.00,VWS V14.01,2013-01-23 19:34:00,
2013-01-23 14:35:00,32.0,17.4,30.16,SSE,151,8.1,10.3,54,0.00,,OVC150,0.00,VWS V14.01,2013-01-23 19:35:00,
2013-01-23 14:36:00,32.0,17.4,30.16,SW,234,8.9,11.3,54,0.00,,OVC150,0.00,VWS V14.01,2013-01-23 19:36:00,
2013-01-23 14:37:00,32.0,17.4,30.16,South,184,5.9,11.3,54,0.00,,OVC150,0.00,VWS V14.01,2013-01-23 19:37:00,
2013-01-23 14:38:00,32.0,17.4,30.16,SSE,155,8.9,17.4,54,0.00,,OVC070,0.00,VWS V14.01,2013-01-23 19:38:00,
2013-01-23 14:39:00,32.0,17.4,30.16,WSW,249,6.6,17.4,54,0.00,,OVC150,0.00,VWS V14.01,2013-01-23 19:39:00,
2013-01-23 14:40:00,32.0,17.4,30.16,South,189,8.9,11.3,54,0.00,,OVC150,0.00,VWS V14.01,2013-01-23 19:40:00,
2013-01-23 14:41:00,32.0,17.4,30.16,West,268,8.1,11.3,54,0.00,,OVC150,0.00,VWS V14.01,2013-01-23 19:41:00,
2013-01-23 14:42:00,32.2,17.6,30.16,WSW,246,11.8,16.9,54,0.00,,OVC150,0.00,VWS V14.01,2013-01-23 19:42:00,
2013-01-23 14:43:00,32.2,17.6,30.16,SW,231,4.4,7.5,54,0.00,,OVC070,0.00,VWS V14.01,2013-01-23 19:43:00,
2013-01-23 14:44:00,32.2,17.6,30.16,WNW,288,4.4,7.5,54,0.00,,OVC150,0.00,VWS V14.01,2013-01-23 19:44:00,
2013-01-23 14:45:00,32.2,17.6,30.16,WSW,248,10.3,13.2,54,0.00,,OVC150,0.00,VWS V14.01,2013-01-23 19:45:00,
2013-01-23 14:46:00,32.2,17.6,30.16,West,269,5.9,13.2,54,0.00,,OVC150,0.00,VWS V14.01,2013-01-23 19:46:00,
2013-01-23 14:47:00,32.2,17.6,30.16,WSW,243,5.9,12.2,54,0.00,,OVC150,0.00,VWS V14.01,2013-01-23 19:47:00,
2013-01-23 14:48:00,32.2,17.6,30.16,SSW,210,8.9,11.3,54,0.00,,OVC070,0.00,VWS V14.01,2013-01-23 19:48:00,
2013-01-23 14:49:00,32.2,17.6,30.16,WSW,244,10.3,13.2,54,0.00,,OVC150,0.00,VWS V14.01,2013-01-23 19:49:00,
2013-01-23 14:50:00,32.2,17.6,30.16,SW,234,3.7,13.2,54,0.00,,OVC150,0.00,VWS V14.01,2013-01-23 19:50:00,
2013-01-23 14:51:00,32.2,17.6,30.16,West,259,4.4,7.5,54,0.00,,OVC150,0.00,VWS V14.01,2013-01-23 19:51:00,
2013-01-23 14:52:00,32.2,17.6,30.16,SSW,208,6.6,14.1,54,0.00,,OVC150,0.00,VWS V14.01,2013-01-23 19:52:00,
2013-01-23 14:53:00,32.4,17.8,30.16,West,266,9.6,12.2,54,0.00,,OVC070,0.00,VWS V14.01,2013-01-23 19:53:00,
2013-01-23 14:54:00,32.4,17.8,30.16,West,266,9.6,12.2,54,0.00,,OVC150,0.00,VWS V14.01,2013-01-23 19:54:00,
2013-01-23 14:55:00,32.4,17.8,30.16,SW,229,8.1,12.2,54,0.00,,OVC150,0.00,VWS V14.01,2013-01-23 19:55:00,
2013-01-23 14:56:00,32.4,17.8,30.16,SSW,195,8.9,15.0,54,0.00,,OVC150,0.00,VWS V14.01,2013-01-23 19:56:00,
2013-01-23 14:57:00,32.4,17.8,30.16,South,176,4.4,12.2,54,0.00,,OVC150,0.00,VWS V14.01,2013-01-23 19:57:00,
2013-01-23 14:58:00,32.5,17.9,30.16,SSW,195,8.9,16.0,54,0.00,,OVC070,0.00,VWS V14.01,2013-01-23 19:58:00,
2013-01-23 14:59:00,32.5,17.9,30.16,SSW,195,8.9,16.0,54,0.00,,OVC150,0.00,VWS V14.01,2013-01-23 19:59:00,
2013-01-23 15:00:00,32.5,17.9,30.16,SSW,194,5.2,11.3,54,0.00,,OVC150,0.00,VWS V14.01,2013-01-23 20:00:00,
2013-01-23 15:01:00,32.7,18.1,30.16,WSW,249,10.3,18.3,54,0.00,,OVC150,0.00,VWS V14.01,2013-01-23 20:01:00,
2013-01-23 15:02:00,32.7,18.1,30.16,SW,234,8.1,13.2,54,0.00,,OVC150,0.00,VWS V14.01,2013-01-23 20:02:00,
2013-01-23 15:03:00,32.7,18.1,30.16,WSW,248,6.6,16.0,54,0.00,,OVC150,0.00,VWS V14.01,2013-01-23 20:03:00,
2013-01-23 15:04:00,32.7,18.1,30.16,SW,226,9.6,17.4,54,0.00,,OVC070,0.00,VWS V14.01,2013-01-23 20:04:00,
2013-01-23 15:05:00,32.7,18.1,30.16,NW,310,5.9,7.5,54,0.00,,OVC150,0.00,VWS V14.01,2013-01-23 20:05:00,
2013-01-23 15:06:00,32.7,18.1,30.16,WSW,243,4.4,7.5,54,0.00,,OVC150,0.00,VWS V14.01,2013-01-23 20:06:00,
2013-01-23 15:07:00,32.7,18.1,30.16,WSW,241,8.9,11.3,54,0.00,,OVC150,0.00,VWS V14.01,2013-01-23 20:07:00,
2013-01-23 15:08:00,32.7,18.1,30.16,SW,225,5.9,12.2,54,0.00,,OVC150,0.00,VWS V14.01,2013-01-23 20:08:00,
2013-01-23 15:09:00,32.7,18.1,30.16,SSW,205,4.4,10.3,54,0.00,,OVC070,0.00,VWS V14.01,2013-01-23 20:09:00,
2013-01-23 15:10:00,32.7,18.1,30.16,WSW,251,4.4,6.6,54,0.00,,OVC150,0.00,VWS V14.01,2013-01-23 20:10:00,
2013-01-23 15:11:00,32.7,18.1,30.16,WSW,249,5.9,16.0,54,0.00,,OVC150,0.00,VWS V14.01,2013-01-23 20:11:00,
2013-01-23 15:12:00,32.7,18.1,30.16,SW,230,9.6,12.2,54,0.00,,OVC150,0.00,VWS V14.01,2013-01-23 20:12:00,
2013-01-23 15:13:00,32.7,18.1,30.16,WSW,251,9.6,12.2,54,0.00,,OVC150,0.00,VWS V14.01,2013-01-23 20:13:00,
2013-01-23 15:14:00,32.7,18.1,30.16,SW,236,9.6,12.2,54,0.00,,OVC070,0.00,VWS V14.01,2013-01-23 20:14:00,
2013-01-23 15:15:00,32.7,18.1,30.16,WSW,244,4.4,12.2,54,0.00,,OVC150,0.00,VWS V14.01,2013-01-23 20:15:00,
2013-01-23 15:16:00,32.7,18.1,30.16,West,262,5.2,11.3,54,0.00,,OVC150,0.00,VWS V14.01,2013-01-23 20:16:00,
2013-01-23 15:17:00,32.5,17.9,30.16,WSW,251,4.4,7.5,54,0.00,,OVC150,0.00,VWS V14.01,2013-01-23 20:17:00,
2013-01-23 15:18:00,32.5,17.9,30.16,WSW,240,12.5,18.3,54,0.00,,OVC150,0.00,VWS V14.01,2013-01-23 20:18:00,
2013-01-23 15:19:00,32.5,17.9,30.16,West,260,6.6,8.5,54,0.00,,OVC070,0.00,VWS V14.01,2013-01-23 20:19:00,
2013-01-23 15:20:00,32.4,17.8,30.16,SSW,200,5.9,11.3,54,0.00,,OVC150,0.00,VWS V14.01,2013-01-23 20:20:00,
2013-01-23 15:21:00,32.4,17.8,30.16,WNW,301,10.3,13.2,54,0.00,,OVC150,0.00,VWS V14.01,2013-01-23 20:21:00,
2013-01-23 15:22:00,32.4,17.8,30.16,SW,236,6.6,13.2,54,0.00,,OVC150,0.00,VWS V14.01,2013-01-23 20:22:00,
2013-01-23 15:23:00,32.4,17.8,30.16,WSW,250,5.9,8.5,54,0.00,,OVC150,0.00,VWS V14.01,2013-01-23 20:23:00,
2013-01-23 15:24:00,32.4,17.8,30.16,South,185,4.4,15.0,54,0.00,,OVC070,0.00,VWS V14.01,2013-01-23 20:24:00,
2013-01-23 15:25:00,32.5,18.6,30.13,NW,313,10.3,15.0,56,0.00,,OVC150,0.00,VWS V14.01,2013-01-23 20:25:00,
2013-01-23 15:26:00,32.5,18.6,30.13,SSW,193,10.3,13.2,56,0.00,,OVC150,0.00,VWS V14.01,2013-01-23 20:26:00,
2013-01-23 15:27:00,32.5,17.9,30.13,South,177,4.4,13.2,54,0.00,,OVC150,0.00,VWS V14.01,2013-01-23 20:27:00,
2013-01-23 15:28:00,32.5,18.6,30.13,SSW,206,3.7,8.5,56,0.00,,OVC150,0.00,VWS V14.01,2013-01-23 20:28:00,
2013-01-23 15:29:00,32.5,17.9,30.13,WSW,244,6.6,8.5,54,0.00,,OVC070,0.00,VWS V14.01,2013-01-23 20:29:00,
2013-01-23 15:30:00,32.5,17.9,30.13,SSW,211,6.6,8.5,54,0.00,,OVC150,0.00,VWS V14.01,2013-01-23 20:30:00,
2013-01-23 15:31:00,32.5,18.6,30.13,SW,215,4.4,11.3,56,0.00,,OVC150,0.00,VWS V14.01,2013-01-23 20:31:00,
2013-01-23 15:32:00,32.5,17.9,30.13,West,268,4.4,5.6,54,0.00,,OVC150,0.00,VWS V14.01,2013-01-23 20:32:00,
2013-01-23 15:33:00,32.5,18.6,30.13,SW,235,5.9,7.5,56,0.00,,OVC150,0.00,VWS V14.01,2013-01-23 20:33:00,
2013-01-23 15:34:00,32.7,18.8,30.13,SSE,168,5.2,6.6,56,0.00,,OVC070,0.00,VWS V14.01,2013-01-23 20:34:00,
2013-01-23 15:35:00,32.7,18.8,30.13,South,190,4.4,11.3,56,0.00,,OVC150,0.00,VWS V14.01,2013-01-23 20:35:00,
2013-01-23 15:36:00,32.7,18.8,30.13,South,190,5.2,6.6,56,0.00,,OVC150,0.00,VWS V14.01,2013-01-23 20:36:00,
2013-01-23 15:37:00,32.7,18.8,30.13,SSE,157,5.2,12.2,56,0.00,,OVC150,0.00,VWS V14.01,2013-01-23 20:37:00,
2013-01-23 15:38:00,32.7,18.8,30.13,SSW,210,8.9,11.3,56,0.00,,OVC150,0.00,VWS V14.01,2013-01-23 20:38:00,
2013-01-23 15:39:00,32.7,18.8,30.13,WSW,241,5.9,9.4,56,0.00,,OVC150,0.00,VWS V14.01,2013-01-23 20:39:00,
2013-01-23 15:40:00,32.7,18.8,30.13,SW,235,9.6,12.2,56,0.00,,OVC150,0.00,VWS V14.01,2013-01-23 20:40:00,
2013-01-23 15:41:00,32.7,18.8,30.13,SSW,198,6.6,12.2,56,0.00,,OVC150,0.00,VWS V14.01,2013-01-23 20:41:00,
2013-01-23 15:42:00,32.7,18.8,30.13,WSW,247,6.6,11.3,56,0.00,,OVC150,0.00,VWS V14.01,2013-01-23 20:42:00,
2013-01-23 15:43:00,32.7,18.8,30.13,SW,230,8.1,13.2,56,0.00,,OVC150,0.00,VWS V14.01,2013-01-23 20:43:00,
2013-01-23 15:44:00,32.7,18.8,30.13,South,171,5.2,6.6,56,0.00,,OVC150,0.00,VWS V14.01,2013-01-23 20:44:00,
2013-01-23 15:45:00,32.7,18.8,30.13,SSW,209,8.9,11.3,56,0.00,,OVC150,0.00,VWS V14.01,2013-01-23 20:45:00,
2013-01-23 15:46:00,32.7,18.8,30.13,WSW,237,0.0,13.2,56,0.00,,OVC150,0.00,VWS V14.01,2013-01-23 20:46:00,
2013-01-23 15:47:00,32.7,18.8,30.13,SW,225,0.0,0.0,56,0.00,,OVC150,0.00,VWS V14.01,2013-01-23 20:47:00,
2013-01-23 15:48:00,32.7,18.8,30.13,South,186,4.4,13.2,56,0.00,,OVC150,0.00,VWS V14.01,2013-01-23 20:48:00,
2013-01-23 15:49:00,32.9,19.0,30.13,South,183,5.2,8.5,56,0.00,,OVC150,0.00,VWS V14.01,2013-01-23 20:49:00,
2013-01-23 15:50:00,32.9,19.0,30.13,WNW,289,8.9,11.3,56,0.00,,OVC150,0.00,VWS V14.01,2013-01-23 20:50:00,
2013-01-23 15:51:00,32.9,19.0,30.13,WSW,243,8.1,11.3,56,0.00,,OVC150,0.00,VWS V14.01,2013-01-23 20:51:00,
2013-01-23 15:52:00,32.9,19.0,30.13,SSW,192,6.6,10.3,56,0.00,,OVC150,0.00,VWS V14.01,2013-01-23 20:52:00,
2013-01-23 15:53:00,32.9,19.0,30.13,WSW,255,3.7,12.2,56,0.00,,OVC150,0.00,VWS V14.01,2013-01-23 20:53:00,
2013-01-23 15:54:00,32.9,19.0,30.13,WSW,244,3.7,7.5,56,0.00,,OVC150,0.00,VWS V14.01,2013-01-23 20:54:00,
2013-01-23 15:55:00,32.9,19.0,30.13,WSW,243,5.2,7.5,56,0.00,,OVC150,0.00,VWS V14.01,2013-01-23 20:55:00,
2013-01-23 15:56:00,32.9,19.0,30.13,WSW,244,5.2,8.5,56,0.00,,OVC150,0.00,VWS V14.01,2013-01-23 20:56:00,
2013-01-23 15:57:00,32.9,19.0,30.13,West,264,8.9,16.0,56,0.00,,OVC150,0.00,VWS V14.01,2013-01-23 20:57:00,
2013-01-23 15:58:00,32.9,19.0,30.13,WSW,241,0.0,11.3,56,0.00,,OVC150,0.00,VWS V14.01,2013-01-23 20:58:00,
2013-01-23 15:59:00,32.9,19.0,30.13,West,262,5.2,6.6,56,0.00,,OVC150,0.00,VWS V14.01,2013-01-23 20:59:00,
2013-01-23 16:00:00,32.9,19.0,30.13,SW,234,9.6,16.0,56,0.00,,OVC150,0.00,VWS V14.01,2013-01-23 21:00:00,
2013-01-23 16:01:00,32.7,18.8,30.13,WSW,239,9.6,13.2,56,0.00,,OVC150,0.00,VWS V14.01,2013-01-23 21:01:00,
2013-01-23 16:02:00,32.7,18.8,30.13,WNW,296,9.6,12.2,56,0.00,,OVC150,0.00,VWS V14.01,2013-01-23 21:02:00,
2013-01-23 16:03:00,32.7,18.8,30.13,SW,232,9.6,16.9,56,0.00,,OVC150,0.00,VWS V14.01,2013-01-23 21:03:00,
2013-01-23 16:04:00,32.7,18.8,30.13,SW,225,5.9,12.2,56,0.00,,OVC150,0.00,VWS V14.01,2013-01-23 21:04:00,
2013-01-23 16:05:00,32.7,18.8,30.13,SSE,160,8.9,11.3,56,0.00,,OVC150,0.00,VWS V14.01,2013-01-23 21:05:00,
2013-01-23 16:06:00,32.7,18.8,30.13,ESE,122,6.6,17.4,56,0.00,,OVC150,0.00,VWS V14.01,2013-01-23 21:06:00,
2013-01-23 16:07:00,32.7,18.8,30.13,WSW,256,13.7,17.4,56,0.00,,OVC150,0.00,VWS V14.01,2013-01-23 21:07:00,
2013-01-23 16:08:00,32.7,18.8,30.13,West,268,6.6,20.2,56,0.00,,OVC150,0.00,VWS V14.01,2013-01-23 21:08:00,
2013-01-23 16:09:00,32.9,19.0,30.13,WSW,246,10.3,13.2,56,0.00,,OVC150,0.00,VWS V14.01,2013-01-23 21:09:00,
2013-01-23 16:10:00,32.7,18.8,30.13,WSW,254,5.9,14.1,56,0.00,,OVC150,0.00,VWS V14.01,2013-01-23 21:10:00,
2013-01-23 16:11:00,32.7,18.8,30.13,WSW,241,5.2,7.5,56,0.00,,OVC150,0.00,VWS V14.01,2013-01-23 21:11:00,
2013-01-23 16:12:00,32.7,18.8,30.13,WSW,254,4.4,8.5,56,0.00,,OVC150,0.00,VWS V14.01,2013-01-23 21:12:00,
2013-01-23 16:13:00,32.7,18.8,30.13,WSW,256,8.9,11.3,56,0.00,,OVC150,0.00,VWS V14.01,2013-01-23 21:13:00,
2013-01-23 16:14:00,32.7,18.8,30.13,WSW,248,10.3,15.0,56,0.00,,OVC150,0.00,VWS V14.01,2013-01-23 21:14:00,
2013-01-23 16:15:00,32.7,18.8,30.13,WNW,283,4.4,7.5,56,0.00,,OVC150,0.00,VWS V14.01,2013-01-23 21:15:00,
2013-01-23 16:16:00,32.7,18.8,30.13,WSW,247,5.2,11.3,56,0.00,,OVC150,0.00,VWS V14.01,2013-01-23 21:16:00,
2013-01-23 16:17:00,32.7,18.8,30.13,WSW,258,5.2,6.6,56,0.00,,OVC150,0.00,VWS V14.01,2013-01-23 21:17:00,
2013-01-23 16:18:00,32.7,18.8,30.13,WSW,248,8.9,11.3,56,0.00,,OVC150,0.00,VWS V14.01,2013-01-23 21:18:00,
2013-01-23 16:19:00,32.7,18.8,30.13,SW,214,9.6,13.2,56,0.00,,OVC150,0.00,VWS V14.01,2013-01-23 21:19:00,
2013-01-23 16:20:00,32.7,18.8,30.13,South,170,8.1,10.3,56,0.00,,OVC150,0.00,VWS V14.01,2013-01-23 21:20:00,
2013-01-23 16:21:00,32.7,18.8,30.13,WSW,252,0.0,10.3,56,0.00,,OVC150,0.00,VWS V14.01,2013-01-23 21:21:00,
2013-01-23 16:22:00,32.7,19.5,30.13,West,263,5.2,10.3,58,0.00,,OVC150,0.00,VWS V14.01,2013-01-23 21:22:00,
2013-01-23 16:23:00,32.9,19.0,30.13,WSW,255,5.9,7.5,56,0.00,,OVC150,0.00,VWS V14.01,2013-01-23 21:23:00,
2013-01-23 16:24:00,32.9,19.0,30.13,SSW,196,0.0,7.5,56,0.00,,OVC150,0.00,VWS V14.01,2013-01-23 21:24:00,
2013-01-23 16:25:00,32.9,19.0,30.13,West,274,5.2,6.6,56,0.00,,OVC150,0.00,VWS V14.01,2013-01-23 21:25:00,
2013-01-23 16:26:00,32.9,19.0,30.13,West,261,6.6,8.5,56,0.00,,OVC150,0.00,VWS V14.01,2013-01-23 21:26:00,
2013-01-23 16:27:00,33.1,19.1,30.13,West,275,5.9,10.3,56,0.00,,OVC150,0.00,VWS V14.01,2013-01-23 21:27:00,
2013-01-23 16:28:00,33.1,19.8,30.13,SSW,200,4.4,8.5,58,0.00,,OVC150,0.00,VWS V14.01,2013-01-23 21:28:00,
2013-01-23 16:29:00,33.1,19.8,30.13,SW,214,3.7,6.6,58,0.00,,OVC150,0.00,VWS V14.01,2013-01-23 21:29:00,
2013-01-23 16:30:00,33.3,20.0,30.13,SW,226,4.4,7.5,58,0.00,,OVC150,0.00,VWS V14.01,2013-01-23 21:30:00,
2013-01-23 16:31:00,33.3,20.0,30.13,West,262,5.2,7.5,58,0.00,,OVC150,0.00,VWS V14.01,2013-01-23 21:31:00,
2013-01-23 16:32:00,33.3,20.0,30.13,SW,226,5.2,12.2,58,0.00,,OVC150,0.00,VWS V14.01,2013-01-23 21:32:00,
2013-01-23 16:33:00,33.4,19.5,30.13,SW,220,10.3,13.2,56,0.00,,OVC150,0.00,VWS V14.01,2013-01-23 21:33:00,
2013-01-23 16:34:00,33.4,19.5,30.13,South,191,3.7,13.2,56,0.00,,OVC150,0.00,VWS V14.01,2013-01-23 21:34:00,
2013-01-23 16:35:00,33.4,19.5,30.13,WSW,252,5.2,6.6,56,0.00,,OVC150,0.00,VWS V14.01,2013-01-23 21:35:00,
2013-01-23 16:36:00,33.4,19.5,30.13,WSW,253,3.7,6.6,56,0.00,,OVC150,0.00,VWS V14.01,2013-01-23 21:36:00,
2013-01-23 16:37:00,33.4,19.5,30.13,WSW,253,0.0,4.7,56,0.00,,OVC150,0.00,VWS V14.01,2013-01-23 21:37:00,
2013-01-23 16:38:00,33.6,19.6,30.13,WNW,285,5.9,13.2,56,0.00,,OVC150,0.00,VWS V14.01,2013-01-23 21:38:00,
2013-01-23 16:39:00,33.6,19.6,30.13,WNW,287,6.6,12.2,56,0.00,,OVC150,0.00,VWS V14.01,2013-01-23 21:39:00,
2013-01-23 16:40:00,33.6,19.6,30.10,SSW,207,5.9,7.5,56,0.00,,OVC150,0.00,VWS V14.01,2013-01-23 21:40:00,
2013-01-23 16:41:00,33.6,19.6,30.10,SSW,209,0.0,7.5,56,0.00,,OVC150,0.00,VWS V14.01,2013-01-23 21:41:00,
2013-01-23 16:42:00,33.6,19.6,30.10,SSW,207,0.0,0.0,56,0.00,,OVC150,0.00,VWS V14.01,2013-01-23 21:42:00,
2013-01-23 16:43:00,33.6,19.6,30.10,WSW,255,5.2,6.6,56,0.00,,OVC150,0.00,VWS V14.01,2013-01-23 21:43:00,
2013-01-23 16:44:00,33.6,19.6,30.10,WSW,250,5.2,14.1,56,0.00,,OVC150,0.00,VWS V14.01,2013-01-23 21:44:00,
2013-01-23 16:45:00,33.6,19.6,30.10,West,267,6.6,8.5,56,0.00,,OVC150,0.00,VWS V14.01,2013-01-23 21:45:00,
2013-01-23 16:46:00,33.6,19.6,30.10,West,267,6.6,8.5,56,0.00,,OVC150,0.00,VWS V14.01,2013-01-23 21:46:00,
2013-01-23 16:47:00,33.6,19.6,30.10,NNE,16,3.7,10.3,56,0.00,,OVC150,0.00,VWS V14.01,2013-01-23 21:47:00,
2013-01-23 16:48:00,33.6,19.6,30.10,WNW,283,5.2,7.5,56,0.00,,OVC150,0.00,VWS V14.01,2013-01-23 21:48:00,
2013-01-23 16:49:00,33.8,19.8,30.10,SW,221,5.2,8.5,56,0.00,,OVC150,0.00,VWS V14.01,2013-01-23 21:49:00,
2013-01-23 16:50:00,33.8,19.8,30.10,SW,222,3.7,6.6,56,0.00,,OVC150,0.00,VWS V14.01,2013-01-23 21:50:00,
2013-01-23 16:51:00,33.8,19.8,30.10,West,277,5.2,6.6,56,0.00,,OVC150,0.00,VWS V14.01,2013-01-23 21:51:00,
2013-01-23 16:52:00,33.8,19.8,30.10,SW,221,4.4,7.5,56,0.00,,OVC150,0.00,VWS V14.01,2013-01-23 21:52:00,
2013-01-23 16:53:00,33.8,19.8,30.10,West,279,5.2,7.5,56,0.00,,OVC150,0.00,VWS V14.01,2013-01-23 21:53:00,
2013-01-23 16:54:00,33.8,19.8,30.10,West,280,5.2,6.6,56,0.00,,OVC150,0.00,VWS V14.01,2013-01-23 21:54:00,
2013-01-23 16:55:00,33.8,19.8,30.10,West,278,5.2,6.6,56,0.00,,OVC150,0.00,VWS V14.01,2013-01-23 21:55:00,
2013-01-23 16:56:00,33.8,19.8,30.10,WSW,256,6.6,8.5,56,0.00,,OVC150,0.00,VWS V14.01,2013-01-23 21:56:00,
2013-01-23 16:57:00,33.8,19.8,30.10,WSW,248,4.4,8.5,56,0.00,,OVC150,0.00,VWS V14.01,2013-01-23 21:57:00,
2013-01-23 16:58:00,33.8,19.8,30.10,West,261,5.9,8.5,56,0.00,,OVC150,0.00,VWS V14.01,2013-01-23 21:58:00,
2013-01-23 16:59:00,33.8,19.8,30.10,SW,222,4.4,16.9,56,0.00,,OVC150,0.00,VWS V14.01,2013-01-23 21:59:00,
2013-01-23 17:00:00,33.8,19.8,30.10,SSW,203,4.4,6.6,56,0.00,,OVC150,0.00,VWS V14.01,2013-01-23 22:00:00,
2013-01-23 17:01:00,34.0,20.0,30.10,WSW,250,6.6,8.5,56,0.00,,OVC150,0.00,VWS V14.01,2013-01-23 22:01:00,
2013-01-23 17:02:00,34.0,20.0,30.10,South,184,3.7,10.3,56,0.00,,OVC150,0.00,VWS V14.01,2013-01-23 22:02:00,
2013-01-23 17:03:00,34.0,20.0,30.10,WSW,240,6.6,12.2,56,0.00,,OVC150,0.00,VWS V14.01,2013-01-23 22:03:00,
2013-01-23 17:04:00,34.0,20.0,30.10,WSW,251,6.6,16.0,56,0.00,,OVC150,0.00,VWS V14.01,2013-01-23 22:04:00,
2013-01-23 17:05:00,34.0,20.0,30.10,WSW,245,5.9,14.1,56,0.00,,OVC150,0.00,VWS V14.01,2013-01-23 22:05:00,
2013-01-23 17:06:00,34.0,20.0,30.10,South,182,8.1,16.9,56,0.00,,OVC150,0.00,VWS V14.01,2013-01-23 22:06:00,
2013-01-23 17:07:00,34.0,20.0,30.10,WSW,247,10.3,13.2,56,0.00,,OVC150,0.00,VWS V14.01,2013-01-23 22:07:00,
2013-01-23 17:08:00,34.0,20.0,30.10,SW,214,9.6,13.2,56,0.00,,OVC150,0.00,VWS V14.01,2013-01-23 22:08:00,
2013-01-23 17:09:00,34.0,20.0,30.10,WSW,237,4.4,12.2,56,0.00,,OVC150,0.00,VWS V14.01,2013-01-23 22:09:00,
2013-01-23 17:10:00,34.2,20.2,30.10,South,191,5.2,16.9,56,0.00,,OVC150,0.00,VWS V14.01,2013-01-23 22:10:00,
2013-01-23 17:11:00,34.2,20.2,30.10,SSE,166,10.3,13.2,56,0.00,,OVC150,0.00,VWS V14.01,2013-01-23 22:11:00,
2013-01-23 17:12:00,34.2,20.2,30.10,SW,220,4.4,13.2,56,0.00,,OVC150,0.00,VWS V14.01,2013-01-23 22:12:00,
2013-01-23 17:13:00,34.2,20.2,30.10,South,191,4.4,7.5,56,0.00,,OVC150,0.00,VWS V14.01,2013-01-23 22:13:00,
2013-01-23 17:14:00,34.2,20.2,30.10,WSW,251,6.6,12.2,56,0.00,,OVC150,0.00,VWS V14.01,2013-01-23 22:14:00,
2013-01-23 17:15:00,34.2,20.2,30.10,WSW,244,13.7,17.4,56,0.00,,OVC150,0.00,VWS V14.01,2013-01-23 22:15:00,
2013-01-23 17:16:00,34.2,20.2,30.10,South,187,10.3,17.4,56,0.00,,OVC150,0.00,VWS V14.01,2013-01-23 22:16:00,
2013-01-23 17:17:00,34.0,20.0,30.10,SSW,210,5.2,13.2,56,0.00,,OVC150,0.00,VWS V14.01,2013-01-23 22:17:00,
2013-01-23 17:18:00,34.0,20.0,30.10,South,172,8.1,10.3,56,0.00,,OVC150,0.00,VWS V14.01,2013-01-23 22:18:00,
2013-01-23 17:19:00,34.0,20.0,30.10,WNW,299,4.4,10.3,56,0.00,,OVC150,0.00,VWS V14.01,2013-01-23 22:19:00,
2013-01-23 17:20:00,34.0,20.0,30.10,WNW,288,5.9,7.5,56,0.00,,OVC150,0.00,VWS V14.01,2013-01-23 22:20:00,
2013-01-23 17:21:00,33.8,19.8,30.10,WSW,239,3.7,13.2,56,0.00,,OVC150,0.00,VWS V14.01,2013-01-23 22:21:00,
2013-01-23 17:22:00,33.8,19.8,30.10,WSW,246,5.2,8.5,56,0.00,,OVC150,0.00,VWS V14.01,2013-01-23 22:22:00,
2013-01-23 17:23:00,33.8,19.8,30.10,West,267,5.9,13.2,56,0.00,,OVC150,0.00,VWS V14.01,2013-01-23 22:23:00,
2013-01-23 17:24:00,33.8,19.8,30.10,SW,218,4.4,8.5,56,0.00,,OVC150,0.00,VWS V14.01,2013-01-23 22:24:00,
2013-01-23 17:25:00,33.8,19.8,30.10,WNW,287,5.9,8.5,56,0.00,,OVC150,0.00,VWS V14.01,2013-01-23 22:25:00,
2013-01-23 17:26:00,33.6,19.6,30.10,WNW,286,3.7,7.5,56,0.00,,OVC150,0.00,VWS V14.01,2013-01-23 22:26:00,
2013-01-23 17:27:00,33.6,19.6,30.10,WSW,246,8.1,10.3,56,0.00,,OVC150,0.00,VWS V14.01,2013-01-23 22:27:00,
2013-01-23 17:28:00,33.6,19.6,30.10,WSW,248,5.9,10.3,56,0.00,,OVC150,0.00,VWS V14.01,2013-01-23 22:28:00,
2013-01-23 17:29:00,33.6,19.6,30.10,WSW,240,4.4,7.5,56,0.00,,OVC150,0.00,VWS V14.01,2013-01-23 22:29:00,
2013-01-23 17:30:00,33.6,19.6,30.10,SW,219,0.0,6.6,56,0.00,,OVC150,0.00,VWS V14.01,2013-01-23 22:30:00,
2013-01-23 17:31:00,33.6,19.6,30.10,SW,230,9.6,12.2,56,0.00,,OVC150,0.00,VWS V14.01,2013-01-23 22:31:00,
2013-01-23 17:32:00,33.6,19.6,30.10,West,265,5.2,12.2,56,0.00,,OVC150,0.00,VWS V14.01,2013-01-23 22:32:00,
2013-01-23 17:33:00,33.6,19.6,30.10,SW,221,8.9,11.3,56,0.00,,OVC150,0.00,VWS V14.01,2013-01-23 22:33:00,
2013-01-23 17:34:00,33.6,19.6,30.10,SW,225,3.7,11.3,56,0.00,,OVC150,0.00,VWS V14.01,2013-01-23 22:34:00,
2013-01-23 17:35:00,33.4,19.5,30.10,SW,214,5.9,7.5,56,0.00,,OVC150,0.00,VWS V14.01,2013-01-23 22:35:00,
2013-01-23 17:36:00,33.4,19.5,30.10,South,184,8.1,12.2,56,0.00,,OVC150,0.00,VWS V14.01,2013-01-23 22:36:00,
2013-01-23 17:37:00,33.4,19.5,30.10,WSW,248,10.3,16.9,56,0.00,,OVC150,0.00,VWS V14.01,2013-01-23 22:37:00,
2013-01-23 17:40:00,33.3,19.3,30.10,SSW,202,5.9,13.2,56,0.00,,OVC150,0.00,VWS V14.01,2013-01-23 22:40:00,
2013-01-23 17:41:00,33.3,19.3,30.10,West,265,5.9,13.2,56,0.00,,OVC150,0.00,VWS V14.01,2013-01-23 22:41:00,
2013-01-23 17:42:00,33.3,19.3,30.10,West,274,5.2,7.5,56,0.00,,OVC150,0.00,VWS V14.01,2013-01-23 22:42:00,
2013-01-23 17:43:00,33.3,19.3,30.10,West,274,0.0,6.6,56,0.00,,OVC150,0.00,VWS V14.01,2013-01-23 22:43:00,
2013-01-23 17:44:00,33.3,19.3,30.10,West,274,0.0,0.0,56,0.00,,OVC150,0.00,VWS V14.01,2013-01-23 22:44:00,
2013-01-23 17:45:00,33.3,19.3,30.10,West,274,0.0,0.0,56,0.00,,OVC150,0.00,VWS V14.01,2013-01-23 22:45:00,
2013-01-23 17:46:00,33.3,19.3,30.10,West,274,0.0,0.0,56,0.00,,OVC150,0.00,VWS V14.01,2013-01-23 22:46:00,
2013-01-23 17:47:00,33.1,19.8,30.10,West,274,5.2,6.6,58,0.00,,OVC150,0.00,VWS V14.01,2013-01-23 22:47:00,
2013-01-23 17:48:00,33.1,19.8,30.10,SSW,213,4.4,7.5,58,0.00,,OVC150,0.00,VWS V14.01,2013-01-23 22:48:00,
2013-01-23 17:49:00,33.1,19.8,30.10,SSW,213,3.7,5.6,58,0.00,,OVC150,0.00,VWS V14.01,2013-01-23 22:49:00,
2013-01-23 17:50:00,33.1,19.8,30.10,WSW,247,4.4,8.5,58,0.00,,OVC150,0.00,VWS V14.01,2013-01-23 22:50:00,
2013-01-23 17:51:00,33.1,19.8,30.10,South,187,5.9,7.5,58,0.00,,OVC150,0.00,VWS V14.01,2013-01-23 22:51:00,
2013-01-23 17:52:00,32.9,19.7,30.10,WSW,251,4.4,7.5,58,0.00,,OVC150,0.00,VWS V14.01,2013-01-23 22:52:00,
2013-01-23 17:53:00,32.7,19.5,30.10,SW,231,5.2,6.6,58,0.00,,OVC150,0.00,VWS V14.01,2013-01-23 22:53:00,
2013-01-23 17:54:00,32.7,19.5,30.10,WSW,252,5.2,6.6,58,0.00,,OVC150,0.00,VWS V14.01,2013-01-23 22:54:00,
2013-01-23 17:55:00,32.7,18.8,30.10,West,275,5.2,8.5,56,0.00,,OVC150,0.00,VWS V14.01,2013-01-23 22:55:00,
2013-01-23 17:56:00,32.7,19.5,30.10,West,275,0.0,6.6,58,0.00,,OVC150,0.00,VWS V14.01,2013-01-23 22:56:00,
2013-01-23 17:57:00,32.7,19.5,30.10,WSW,253,5.9,7.5,58,0.00,,OVC150,0.00,VWS V14.01,2013-01-23 22:57:00,
2013-01-23 17:58:00,32.5,19.3,30.10,SW,224,0.0,7.5,58,0.00,,OVC150,0.00,VWS V14.01,2013-01-23 22:58:00,
2013-01-23 17:59:00,32.5,19.3,30.10,West,271,3.7,7.5,58,0.00,,OVC150,0.00,VWS V14.01,2013-01-23 22:59:00,
2013-01-23 18:00:00,32.5,19.3,30.10,West,259,6.6,8.5,58,0.00,,OVC150,0.00,VWS V14.01,2013-01-23 23:00:00,
2013-01-23 18:01:00,32.5,19.3,30.10,WSW,258,3.7,5.6,58,0.00,,OVC150,0.00,VWS V14.01,2013-01-23 23:01:00,
2013-01-23 18:02:00,32.5,19.3,30.10,WSW,258,5.2,6.6,58,0.00,,OVC150,0.00,VWS V14.01,2013-01-23 23:02:00,
2013-01-23 18:03:00,32.4,19.2,30.10,West,259,3.7,7.5,58,0.00,,OVC150,0.00,VWS V14.01,2013-01-23 23:03:00,
2013-01-23 18:04:00,32.4,19.2,30.10,WSW,258,0.0,5.6,58,0.00,,OVC150,0.00,VWS V14.01,2013-01-23 23:04:00,
2013-01-23 18:05:00,32.2,19.0,30.10,West,259,0.0,4.7,58,0.00,,OVC150,0.00,VWS V14.01,2013-01-23 23:05:00,
2013-01-23 18:06:00,32.2,19.0,30.10,WSW,258,0.0,4.7,58,0.00,,OVC150,0.00,VWS V14.01,2013-01-23 23:06:00,
2013-01-23 18:07:00,32.2,19.0,30.10,WSW,258,0.0,4.7,58,0.00,,OVC150,0.00,VWS V14.01,2013-01-23 23:07:00,
2013-01-23 18:08:00,32.0,18.8,30.10,WSW,245,5.2,6.6,58,0.00,,OVC150,0.00,VWS V14.01,2013-01-23 23:08:00,
2013-01-23 18:09:00,32.0,18.8,30.10,WSW,245,3.7,6.6,58,0.00,,OVC150,0.00,VWS V14.01,2013-01-23 23:09:00,
2013-01-23 18:10:00,31.8,18.7,30.10,WSW,245,0.0,5.6,58,0.00,,OVC150,0.00,VWS V14.01,2013-01-23 23:10:00,
2013-01-23 18:11:00,31.8,18.7,30.10,WSW,245,0.0,0.0,58,0.00,,OVC150,0.00,VWS V14.01,2013-01-23 23:11:00,
2013-01-23 18:12:00,31.8,18.7,30.10,WSW,245,0.0,0.0,58,0.00,,OVC150,0.00,VWS V14.01,2013-01-23 23:12:00,
2013-01-23 18:13:00,31.6,18.5,30.10,WSW,245,5.2,6.6,58,0.00,,OVC150,0.00,VWS V14.01,2013-01-23 23:13:00,
2013-01-23 18:14:00,31.6,18.5,30.10,WSW,240,5.9,7.5,58,0.00,,OVC150,0.00,VWS V14.01,2013-01-23 23:14:00,
2013-01-23 18:15:00,31.6,18.5,30.10,WSW,240,3.7,7.5,58,0.00,,OVC150,0.00,VWS V14.01,2013-01-23 23:15:00,
2013-01-23 18:16:00,31.5,18.3,30.10,WSW,240,4.4,5.6,58,0.00,,OVC150,0.00,VWS V14.01,2013-01-23 23:16:00,
2013-01-23 18:17:00,31.5,18.3,30.10,WSW,239,0.0,5.6,58,0.00,,OVC150,0.00,VWS V14.01,2013-01-23 23:17:00,
2013-01-23 18:18:00,31.3,18.1,30.10,WSW,240,0.0,0.0,58,0.00,,OVC150,0.00,VWS V14.01,2013-01-23 23:18:00,
2013-01-23 18:19:00,31.3,18.1,30.10,WSW,240,0.0,0.0,58,0.00,,OVC150,0.00,VWS V14.01,2013-01-23 23:19:00,
2013-01-23 18:20:00,31.3,18.1,30.10,WSW,240,0.0,0.0,58,0.00,,OVC150,0.00,VWS V14.01,2013-01-23 23:20:00,
2013-01-23 18:21:00,31.1,18.0,30.10,WSW,240,0.0,0.0,58,0.00,,OVC150,0.00,VWS V14.01,2013-01-23 23:21:00,
2013-01-23 18:22:00,31.1,18.0,30.10,WSW,240,0.0,0.0,58,0.00,,OVC150,0.00,VWS V14.01,2013-01-23 23:22:00,
2013-01-23 18:23:00,31.1,18.0,30.10,WSW,240,0.0,0.0,58,0.00,,OVC150,0.00,VWS V14.01,2013-01-23 23:23:00,
2013-01-23 18:24:00,31.1,18.0,30.10,WSW,240,0.0,0.0,58,0.00,,OVC150,0.00,VWS V14.01,2013-01-23 23:24:00,
2013-01-23 18:25:00,31.1,18.0,30.10,WSW,240,0.0,0.0,58,0.00,,OVC150,0.00,VWS V14.01,2013-01-23 23:25:00,
2013-01-23 18:26:00,30.9,17.8,30.10,WSW,240,0.0,0.0,58,0.00,,OVC150,0.00,VWS V14.01,2013-01-23 23:26:00,
2013-01-23 18:27:00,30.9,17.8,30.10,WSW,240,0.0,0.0,58,0.00,,OVC150,0.00,VWS V14.01,2013-01-23 23:27:00,
2013-01-23 18:28:00,30.9,17.8,30.10,WSW,239,0.0,0.0,58,0.00,,OVC150,0.00,VWS V14.01,2013-01-23 23:28:00,
2013-01-23 18:29:00,30.9,17.8,30.10,WSW,240,0.0,0.0,58,0.00,,OVC150,0.00,VWS V14.01,2013-01-23 23:29:00,
2013-01-23 18:30:00,30.7,17.6,30.10,WSW,240,0.0,0.0,58,0.00,,OVC150,0.00,VWS V14.01,2013-01-23 23:30:00,
2013-01-23 18:31:00,30.7,17.6,30.10,WSW,240,0.0,0.0,58,0.00,,OVC150,0.00,VWS V14.01,2013-01-23 23:31:00,
2013-01-23 18:32:00,30.7,17.6,30.10,WSW,240,0.0,0.0,58,0.00,,OVC150,0.00,VWS V14.01,2013-01-23 23:32:00,
2013-01-23 18:33:00,30.7,17.6,30.10,WSW,240,0.0,0.0,58,0.00,,OVC150,0.00,VWS V14.01,2013-01-23 23:33:00,
2013-01-23 18:34:00,30.7,17.6,30.10,WSW,240,0.0,0.0,58,0.00,,OVC150,0.00,VWS V14.01,2013-01-23 23:34:00,
2013-01-23 18:35:00,30.6,17.5,30.10,WSW,240,0.0,0.0,58,0.00,,OVC150,0.00,VWS V14.01,2013-01-23 23:35:00,
2013-01-23 18:36:00,30.6,17.5,30.10,WSW,240,0.0,0.0,58,0.00,,OVC150,0.00,VWS V14.01,2013-01-23 23:36:00,
2013-01-23 18:37:00,30.6,17.5,30.10,WSW,240,0.0,0.0,58,0.00,,OVC150,0.00,VWS V14.01,2013-01-23 23:37:00,
2013-01-23 18:38:00,30.4,17.3,30.10,WSW,240,0.0,0.0,58,0.00,,OVC150,0.00,VWS V14.01,2013-01-23 23:38:00,
2013-01-23 18:39:00,30.4,17.3,30.10,WSW,239,0.0,0.0,58,0.00,,OVC150,0.00,VWS V14.01,2013-01-23 23:39:00,
2013-01-23 18:40:00,30.4,17.3,30.10,WSW,238,0.0,0.0,58,0.00,,OVC150,0.00,VWS V14.01,2013-01-23 23:40:00,
2013-01-23 18:41:00,30.4,17.3,30.10,WSW,240,0.0,0.0,58,0.00,,OVC150,0.00,VWS V14.01,2013-01-23 23:41:00,
2013-01-23 18:42:00,30.2,17.8,30.10,WSW,240,0.0,0.0,60,0.00,,OVC150,0.00,VWS V14.01,2013-01-23 23:42:00,
2013-01-23 18:43:00,30.2,17.8,30.10,WSW,240,0.0,0.0,60,0.00,,OVC150,0.00,VWS V14.01,2013-01-23 23:43:00,
2013-01-23 18:44:00,30.2,17.8,30.10,WSW,240,0.0,0.0,60,0.00,,OVC150,0.00,VWS V14.01,2013-01-23 23:44:00,
2013-01-23 18:45:00,30.2,17.8,30.10,WSW,240,0.0,0.0,60,0.00,,OVC150,0.00,VWS V14.01,2013-01-23 23:45:00,
2013-01-23 18:46:00,30.2,17.8,30.10,WSW,240,0.0,0.0,60,0.00,,OVC150,0.00,VWS V14.01,2013-01-23 23:46:00,
2013-01-23 18:47:00,30.2,17.8,30.10,WSW,240,0.0,0.0,60,0.00,,OVC150,0.00,VWS V14.01,2013-01-23 23:47:00,
2013-01-23 18:48:00,30.0,17.6,30.10,WSW,241,0.0,0.0,60,0.00,,OVC150,0.00,VWS V14.01,2013-01-23 23:48:00,
2013-01-23 18:49:00,30.0,17.6,30.10,WSW,239,0.0,0.0,60,0.00,,OVC150,0.00,VWS V14.01,2013-01-23 23:49:00,
2013-01-23 18:50:00,30.0,17.6,30.10,WSW,240,0.0,0.0,60,0.00,,OVC150,0.00,VWS V14.01,2013-01-23 23:50:00,
2013-01-23 18:51:00,30.0,17.6,30.10,WSW,240,0.0,0.0,60,0.00,,OVC150,0.00,VWS V14.01,2013-01-23 23:51:00,
2013-01-23 18:52:00,29.8,17.5,30.10,WSW,239,0.0,0.0,60,0.00,,OVC150,0.00,VWS V14.01,2013-01-23 23:52:00,
2013-01-23 18:53:00,29.8,17.5,30.10,WSW,238,0.0,0.0,60,0.00,,OVC150,0.00,VWS V14.01,2013-01-23 23:53:00,
2013-01-23 18:54:00,29.8,17.5,30.10,WSW,240,0.0,0.0,60,0.00,,OVC150,0.00,VWS V14.01,2013-01-23 23:54:00,
2013-01-23 18:55:00,29.7,17.3,30.10,WSW,240,0.0,0.0,60,0.00,,OVC150,0.00,VWS V14.01,2013-01-23 23:55:00,
2013-01-23 18:56:00,29.7,17.3,30.10,WSW,240,0.0,0.0,60,0.00,,OVC150,0.00,VWS V14.01,2013-01-23 23:56:00,
2013-01-23 18:57:00,29.7,17.3,30.10,WSW,240,0.0,0.0,60,0.00,,OVC150,0.00,VWS V14.01,2013-01-23 23:57:00,
2013-01-23 18:58:00,29.7,17.3,30.10,WSW,241,0.0,0.0,60,0.00,,OVC150,0.00,VWS V14.01,2013-01-23 23:58:00,
2013-01-23 18:59:00,29.5,17.1,30.10,WSW,240,0.0,0.0,60,0.00,,OVC150,0.00,VWS V14.01,2013-01-23 23:59:00,
2013-01-23 19:00:00,29.5,17.1,30.10,WSW,239,0.0,0.0,60,0.00,,OVC150,0.00,VWS V14.01,2013-01-24 00:00:00,
2013-01-23 19:01:00,29.5,17.8,30.10,WSW,240,0.0,0.0,61,0.00,,OVC150,0.00,VWS V14.01,2013-01-24 00:01:00,
2013-01-23 19:02:00,29.5,17.8,30.10,WSW,240,0.0,0.0,61,0.00,,OVC150,0.00,VWS V14.01,2013-01-24 00:02:00,
2013-01-23 19:03:00,29.3,17.6,30.10,WSW,240,0.0,0.0,61,0.00,,OVC150,0.00,VWS V14.01,2013-01-24 00:03:00,
2013-01-23 19:04:00,29.3,17.6,30.10,WSW,240,0.0,0.0,61,0.00,,OVC150,0.00,VWS V14.01,2013-01-24 00:04:00,
2013-01-23 19:05:00,29.3,17.6,30.10,WSW,240,0.0,0.0,61,0.00,,OVC150,0.00,VWS V14.01,2013-01-24 00:05:00,
2013-01-23 19:06:00,29.1,17.4,30.10,WSW,240,0.0,0.0,61,0.00,,OVC150,0.00,VWS V14.01,2013-01-24 00:06:00,
2013-01-23 19:07:00,29.1,17.4,30.10,WSW,240,0.0,0.0,61,0.00,,OVC150,0.00,VWS V14.01,2013-01-24 00:07:00,
2013-01-23 19:08:00,29.1,17.4,30.10,WSW,240,0.0,0.0,61,0.00,,OVC150,0.00,VWS V14.01,2013-01-24 00:08:00,
2013-01-23 19:09:00,29.1,17.4,30.10,WSW,240,0.0,0.0,61,0.00,,OVC150,0.00,VWS V14.01,2013-01-24 00:09:00,
2013-01-23 19:10:00,28.9,17.3,30.10,WSW,240,0.0,0.0,61,0.00,,OVC150,0.00,VWS V14.01,2013-01-24 00:10:00,
2013-01-23 19:11:00,28.9,17.3,30.10,WSW,240,0.0,0.0,61,0.00,,OVC150,0.00,VWS V14.01,2013-01-24 00:11:00,
2013-01-23 19:12:00,28.9,17.3,30.10,WSW,240,0.0,0.0,61,0.00,,OVC150,0.00,VWS V14.01,2013-01-24 00:12:00,
2013-01-23 19:13:00,28.8,17.1,30.10,WSW,240,0.0,0.0,61,0.00,,OVC150,0.00,VWS V14.01,2013-01-24 00:13:00,
2013-01-23 19:14:00,28.8,17.1,30.10,WSW,240,0.0,0.0,61,0.00,,OVC150,0.00,VWS V14.01,2013-01-24 00:14:00,
2013-01-23 19:15:00,28.8,17.1,30.10,WSW,240,0.0,0.0,61,0.00,,OVC150,0.00,VWS V14.01,2013-01-24 00:15:00,
2013-01-23 19:16:00,28.8,17.7,30.10,WSW,239,0.0,0.0,63,0.00,,OVC150,0.00,VWS V14.01,2013-01-24 00:16:00,
2013-01-23 19:17:00,28.6,17.6,30.10,WSW,240,0.0,0.0,63,0.00,,OVC150,0.00,VWS V14.01,2013-01-24 00:17:00,
2013-01-23 19:18:00,28.6,17.6,30.10,WSW,240,0.0,0.0,63,0.00,,OVC150,0.00,VWS V14.01,2013-01-24 00:18:00,
2013-01-23 19:19:00,28.6,17.6,30.10,WSW,239,0.0,0.0,63,0.00,,OVC150,0.00,VWS V14.01,2013-01-24 00:19:00,
2013-01-23 19:20:00,28.6,17.6,30.10,WSW,240,0.0,0.0,63,0.00,,OVC150,0.00,VWS V14.01,2013-01-24 00:20:00,
2013-01-23 19:21:00,28.6,17.6,30.10,WSW,240,0.0,0.0,63,0.00,,OVC150,0.00,VWS V14.01,2013-01-24 00:21:00,
2013-01-23 19:22:00,28.4,18.0,30.10,WSW,240,0.0,0.0,65,0.00,,OVC150,0.00,VWS V14.01,2013-01-24 00:22:00,
2013-01-23 19:23:00,28.4,18.0,30.10,WSW,240,0.0,0.0,65,0.00,,OVC150,0.00,VWS V14.01,2013-01-24 00:23:00,
2013-01-23 19:24:00,28.4,18.0,30.10,WSW,240,0.0,0.0,65,0.00,,OVC150,0.00,VWS V14.01,2013-01-24 00:24:00,
2013-01-23 19:25:00,28.4,18.0,30.10,WSW,240,0.0,0.0,65,0.00,,OVC150,0.00,VWS V14.01,2013-01-24 00:25:00,
2013-01-23 19:26:00,28.2,17.8,30.10,WSW,239,0.0,0.0,65,0.00,,OVC150,0.00,VWS V14.01,2013-01-24 00:26:00,
2013-01-23 19:27:00,28.2,17.8,30.10,WSW,240,0.0,0.0,65,0.00,,OVC150,0.00,VWS V14.01,2013-01-24 00:27:00,
2013-01-23 19:28:00,28.2,17.8,30.10,WSW,241,0.0,0.0,65,0.00,,OVC150,0.00,VWS V14.01,2013-01-24 00:28:00,
2013-01-23 19:29:00,28.0,17.7,30.10,WSW,240,0.0,0.0,65,0.00,,OVC150,0.00,VWS V14.01,2013-01-24 00:29:00,
2013-01-23 19:30:00,28.0,17.7,30.10,WSW,240,0.0,0.0,65,0.00,,OVC150,0.00,VWS V14.01,2013-01-24 00:30:00,
2013-01-23 19:31:00,28.0,18.3,30.10,WSW,240,0.0,0.0,66,0.00,,OVC150,0.00,VWS V14.01,2013-01-24 00:31:00,
2013-01-23 19:32:00,27.9,18.1,30.10,WSW,240,0.0,0.0,66,0.00,,OVC150,0.00,VWS V14.01,2013-01-24 00:32:00,
2013-01-23 19:33:00,27.9,18.1,30.10,WSW,240,0.0,0.0,66,0.00,,OVC150,0.00,VWS V14.01,2013-01-24 00:33:00,
2013-01-23 19:34:00,27.9,18.1,30.10,WSW,239,0.0,0.0,66,0.00,,OVC150,0.00,VWS V14.01,2013-01-24 00:34:00,
2013-01-23 19:35:00,27.9,18.1,30.10,WSW,240,0.0,0.0,66,0.00,,OVC150,0.00,VWS V14.01,2013-01-24 00:35:00,
2013-01-23 19:36:00,27.9,18.7,30.10,WSW,239,0.0,0.0,68,0.00,,OVC150,0.00,VWS V14.01,2013-01-24 00:36:00,
2013-01-23 19:37:00,27.7,18.5,30.10,WSW,239,0.0,0.0,68,0.00,,OVC150,0.00,VWS V14.01,2013-01-24 00:37:00,
2013-01-23 19:38:00,27.7,18.5,30.10,WSW,240,0.0,0.0,68,0.00,,OVC150,0.00,VWS V14.01,2013-01-24 00:38:00,
2013-01-23 19:39:00,27.5,18.9,30.10,WSW,240,0.0,0.0,70,0.00,,OVC150,0.00,VWS V14.01,2013-01-24 00:39:00,
2013-01-23 19:40:00,27.5,18.9,30.10,WSW,239,0.0,0.0,70,0.00,,OVC150,0.00,VWS V14.01,2013-01-24 00:40:00,
2013-01-23 19:41:00,27.3,18.7,30.10,WSW,240,0.0,0.0,70,0.00,,OVC150,0.00,VWS V14.01,2013-01-24 00:41:00,
2013-01-23 19:42:00,27.3,18.7,30.10,WSW,239,0.0,0.0,70,0.00,,OVC150,0.00,VWS V14.01,2013-01-24 00:42:00,
2013-01-23 19:43:00,27.3,18.7,30.10,WSW,239,0.0,0.0,70,0.00,,OVC150,0.00,VWS V14.01,2013-01-24 00:43:00,
2013-01-23 19:44:00,27.1,18.6,30.10,WSW,240,0.0,0.0,70,0.00,,OVC150,0.00,VWS V14.01,2013-01-24 00:44:00,
2013-01-23 19:45:00,27.1,18.6,30.10,WSW,239,0.0,0.0,70,0.00,,OVC150,0.00,VWS V14.01,2013-01-24 00:45:00,
2013-01-23 19:46:00,27.1,18.6,30.10,WSW,240,0.0,0.0,70,0.00,,OVC150,0.00,VWS V14.01,2013-01-24 00:46:00,
2013-01-23 19:47:00,27.0,18.4,30.10,WSW,240,0.0,0.0,70,0.00,,OVC150,0.00,VWS V14.01,2013-01-24 00:47:00,
2013-01-23 19:48:00,27.0,18.4,30.10,WSW,240,0.0,0.0,70,0.00,,OVC150,0.00,VWS V14.01,2013-01-24 00:48:00,
2013-01-23 19:49:00,27.0,18.4,30.10,WSW,240,0.0,0.0,70,0.00,,OVC150,0.00,VWS V14.01,2013-01-24 00:49:00,
2013-01-23 19:50:00,27.0,18.4,30.10,WSW,239,0.0,0.0,70,0.00,,OVC150,0.00,VWS V14.01,2013-01-24 00:50:00,
2013-01-23 19:51:00,27.0,18.4,30.10,WSW,239,0.0,0.0,70,0.00,,OVC150,0.00,VWS V14.01,2013-01-24 00:51:00,
2013-01-23 19:52:00,27.0,18.4,30.10,WSW,239,0.0,0.0,70,0.00,,OVC150,0.00,VWS V14.01,2013-01-24 00:52:00,
2013-01-23 19:53:00,26.8,18.2,30.10,WSW,240,0.0,0.0,70,0.00,,OVC150,0.00,VWS V14.01,2013-01-24 00:53:00,
2013-01-23 19:54:00,26.8,18.2,30.10,WSW,239,0.0,0.0,70,0.00,,OVC150,0.00,VWS V14.01,2013-01-24 00:54:00,
2013-01-23 19:55:00,26.8,18.2,30.10,WSW,239,0.0,0.0,70,0.00,,OVC150,0.00,VWS V14.01,2013-01-24 00:55:00,
2013-01-23 19:56:00,26.8,18.8,30.10,WSW,240,0.0,0.0,71,0.00,,OVC150,0.00,VWS V14.01,2013-01-24 00:56:00,
2013-01-23 19:57:00,26.6,18.6,30.10,WSW,240,0.0,0.0,71,0.00,,OVC150,0.00,VWS V14.01,2013-01-24 00:57:00,
2013-01-23 19:58:00,26.6,18.6,30.10,WSW,239,0.0,0.0,71,0.00,,OVC150,0.00,VWS V14.01,2013-01-24 00:58:00,
2013-01-23 19:59:00,26.6,18.6,30.10,SW,236,0.0,0.0,71,0.00,,OVC150,0.00,VWS V14.01,2013-01-24 00:59:00,
2013-01-23 20:00:00,26.6,18.6,30.10,WSW,240,0.0,0.0,71,0.00,,OVC150,0.00,VWS V14.01,2013-01-24 01:00:00,
2013-01-23 20:01:00,26.6,18.6,30.10,WSW,240,0.0,0.0,71,0.00,,OVC150,0.00,VWS V14.01,2013-01-24 01:01:00,
2013-01-23 20:02:00,26.4,18.4,30.10,WSW,240,0.0,0.0,71,0.00,,OVC150,0.00,VWS V14.01,2013-01-24 01:02:00,
2013-01-23 20:03:00,26.4,18.4,30.10,WSW,240,0.0,0.0,71,0.00,,OVC150,0.00,VWS V14.01,2013-01-24 01:03:00,
2013-01-23 20:04:00,26.4,18.4,30.10,WSW,240,0.0,0.0,71,0.00,,OVC150,0.00,VWS V14.01,2013-01-24 01:04:00,
2013-01-23 20:05:00,26.4,18.4,30.10,WSW,240,0.0,0.0,71,0.00,,OVC150,0.00,VWS V14.01,2013-01-24 01:05:00,
2013-01-23 20:06:00,26.4,18.4,30.10,WSW,240,0.0,0.0,71,0.00,,OVC150,0.00,VWS V14.01,2013-01-24 01:06:00,
2013-01-23 20:07:00,26.2,18.3,30.10,WSW,240,0.0,0.0,71,0.00,,OVC150,0.00,VWS V14.01,2013-01-24 01:07:00,
2013-01-23 20:08:00,26.2,18.3,30.10,WSW,238,0.0,0.0,71,0.00,,OVC150,0.00,VWS V14.01,2013-01-24 01:08:00,
2013-01-23 20:09:00,26.2,18.8,30.10,WSW,240,0.0,0.0,73,0.00,,OVC150,0.00,VWS V14.01,2013-01-24 01:09:00,
2013-01-23 20:10:00,26.2,18.8,30.10,WSW,240,0.0,0.0,73,0.00,,OVC150,0.00,VWS V14.01,2013-01-24 01:10:00,
2013-01-23 20:11:00,26.1,18.6,30.10,WSW,240,0.0,0.0,73,0.00,,OVC150,0.00,VWS V14.01,2013-01-24 01:11:00,
2013-01-23 20:12:00,26.1,18.6,30.10,WSW,240,0.0,0.0,73,0.00,,OVC150,0.00,VWS V14.01,2013-01-24 01:12:00,
2013-01-23 20:13:00,26.1,18.6,30.10,WSW,240,0.0,0.0,73,0.00,,OVC150,0.00,VWS V14.01,2013-01-24 01:13:00,
2013-01-23 20:14:00,26.1,18.6,30.10,WSW,240,0.0,0.0,73,0.00,,OVC150,0.00,VWS V14.01,2013-01-24 01:14:00,
2013-01-23 20:15:00,25.9,19.0,30.10,WSW,241,0.0,0.0,75,0.00,,OVC150,0.00,VWS V14.01,2013-01-24 01:15:00,
2013-01-23 20:16:00,25.9,19.0,30.10,WSW,241,0.0,0.0,75,0.00,,OVC150,0.00,VWS V14.01,2013-01-24 01:16:00,
2013-01-23 20:17:00,25.9,19.0,30.10,WSW,240,0.0,0.0,75,0.00,,OVC150,0.00,VWS V14.01,2013-01-24 01:17:00,
2013-01-23 20:18:00,25.7,18.8,30.10,WSW,240,0.0,0.0,75,0.00,,OVC150,0.00,VWS V14.01,2013-01-24 01:18:00,
2013-01-23 20:19:00,25.7,18.8,30.10,WSW,240,0.0,0.0,75,0.00,,OVC150,0.00,VWS V14.01,2013-01-24 01:19:00,
2013-01-23 20:20:00,25.7,18.8,30.10,WSW,240,0.0,0.0,75,0.00,,OVC150,0.00,VWS V14.01,2013-01-24 01:20:00,
2013-01-23 20:21:00,25.7,18.8,30.10,WSW,240,0.0,0.0,75,0.00,,OVC150,0.00,VWS V14.01,2013-01-24 01:21:00,
2013-01-23 20:22:00,25.5,18.6,30.10,WSW,240,0.0,0.0,75,0.00,,OVC150,0.00,VWS V14.01,2013-01-24 01:22:00,
2013-01-23 20:23:00,25.5,18.6,30.10,WSW,240,0.0,0.0,75,0.00,,OVC150,0.00,VWS V14.01,2013-01-24 01:23:00,
2013-01-23 20:24:00,25.3,18.5,30.10,WSW,240,0.0,0.0,75,0.00,,OVC150,0.00,VWS V14.01,2013-01-24 01:24:00,
2013-01-23 20:25:00,25.3,18.5,30.10,WSW,240,0.0,0.0,75,0.00,,OVC150,0.00,VWS V14.01,2013-01-24 01:25:00,
2013-01-23 20:26:00,25.3,18.5,30.10,WSW,240,0.0,0.0,75,0.00,,OVC150,0.00,VWS V14.01,2013-01-24 01:26:00,
2013-01-23 20:27:00,25.3,18.5,30.10,WSW,240,0.0,0.0,75,0.00,,OVC150,0.00,VWS V14.01,2013-01-24 01:27:00,
2013-01-23 20:28:00,25.3,18.5,30.10,WSW,240,0.0,0.0,75,0.00,,OVC150,0.00,VWS V14.01,2013-01-24 01:28:00,
2013-01-23 20:29:00,25.3,18.5,30.10,WSW,240,0.0,0.0,75,0.00,,OVC150,0.00,VWS V14.01,2013-01-24 01:29:00,
2013-01-23 20:30:00,25.2,18.3,30.10,WSW,240,0.0,0.0,75,0.00,,OVC150,0.00,VWS V14.01,2013-01-24 01:30:00,
2013-01-23 20:31:00,25.2,18.3,30.10,WSW,240,0.0,0.0,75,0.00,,OVC150,0.00,VWS V14.01,2013-01-24 01:31:00,
2013-01-23 20:32:00,25.2,18.3,30.10,WSW,240,0.0,0.0,75,0.00,,OVC150,0.00,VWS V14.01,2013-01-24 01:32:00,
2013-01-23 20:33:00,25.2,18.3,30.10,WSW,240,0.0,0.0,75,0.00,,OVC150,0.00,VWS V14.01,2013-01-24 01:33:00,
2013-01-23 20:34:00,25.2,18.3,30.10,WSW,240,0.0,0.0,75,0.00,,OVC150,0.00,VWS V14.01,2013-01-24 01:34:00,
2013-01-23 20:35:00,25.2,18.3,30.10,WSW,240,0.0,0.0,75,0.00,,OVC150,0.00,VWS V14.01,2013-01-24 01:35:00,
2013-01-23 20:36:00,25.2,18.3,30.10,WSW,241,0.0,0.0,75,0.00,,OVC150,0.00,VWS V14.01,2013-01-24 01:36:00,
2013-01-23 20:37:00,25.0,18.1,30.10,WSW,239,0.0,0.0,75,0.00,,OVC150,0.00,VWS V14.01,2013-01-24 01:37:00,
2013-01-23 20:38:00,25.0,18.1,30.10,WSW,240,0.0,0.0,75,0.00,,OVC150,0.00,VWS V14.01,2013-01-24 01:38:00,
2013-01-23 20:39:00,25.0,18.1,30.10,WSW,240,0.0,0.0,75,0.00,,OVC150,0.00,VWS V14.01,2013-01-24 01:39:00,
2013-01-23 20:40:00,25.0,18.1,30.10,WSW,239,0.0,0.0,75,0.00,,OVC150,0.00,VWS V14.01,2013-01-24 01:40:00,
2013-01-23 20:41:00,25.0,18.1,30.10,WSW,239,0.0,0.0,75,0.00,,OVC150,0.00,VWS V14.01,2013-01-24 01:41:00,
2013-01-23 20:42:00,25.0,18.1,30.10,WSW,240,0.0,0.0,75,0.00,,OVC150,0.00,VWS V14.01,2013-01-24 01:42:00,
2013-01-23 20:43:00,25.0,18.1,30.10,WSW,240,0.0,0.0,75,0.00,,OVC150,0.00,VWS V14.01,2013-01-24 01:43:00,
2013-01-23 20:44:00,24.8,18.0,30.10,WSW,240,0.0,0.0,75,0.00,,OVC150,0.00,VWS V14.01,2013-01-24 01:44:00,
2013-01-23 20:45:00,24.8,18.0,30.10,WSW,240,0.0,0.0,75,0.00,,OVC150,0.00,VWS V14.01,2013-01-24 01:45:00,
2013-01-23 20:46:00,24.8,18.0,30.10,WSW,240,0.0,0.0,75,0.00,,OVC150,0.00,VWS V14.01,2013-01-24 01:46:00,
2013-01-23 20:47:00,24.8,18.0,30.10,WSW,240,0.0,0.0,75,0.00,,OVC150,0.00,VWS V14.01,2013-01-24 01:47:00,
2013-01-23 20:48:00,24.8,18.0,30.10,WSW,239,0.0,0.0,75,0.00,,OVC150,0.00,VWS V14.01,2013-01-24 01:48:00,
2013-01-23 20:49:00,24.8,18.0,30.10,WSW,240,0.0,0.0,75,0.00,,OVC150,0.00,VWS V14.01,2013-01-24 01:49:00,
2013-01-23 20:50:00,24.6,17.8,30.10,WSW,240,0.0,0.0,75,0.00,,OVC150,0.00,VWS V14.01,2013-01-24 01:50:00,
2013-01-23 20:51:00,24.6,17.8,30.10,WSW,240,0.0,0.0,75,0.00,,OVC150,0.00,VWS V14.01,2013-01-24 01:51:00,
2013-01-23 20:52:00,24.6,17.8,30.10,WSW,240,0.0,0.0,75,0.00,,OVC150,0.00,VWS V14.01,2013-01-24 01:52:00,
2013-01-23 20:53:00,24.6,17.8,30.10,WSW,240,0.0,0.0,75,0.00,,OVC150,0.00,VWS V14.01,2013-01-24 01:53:00,
2013-01-23 20:54:00,24.6,17.8,30.10,WSW,240,0.0,0.0,75,0.00,,OVC150,0.00,VWS V14.01,2013-01-24 01:54:00,
2013-01-23 20:55:00,24.6,17.8,30.10,WSW,240,0.0,0.0,75,0.00,,OVC150,0.00,VWS V14.01,2013-01-24 01:55:00,
2013-01-23 20:56:00,24.6,17.8,30.10,WSW,240,0.0,0.0,75,0.00,,OVC150,0.00,VWS V14.01,2013-01-24 01:56:00,
2013-01-23 20:57:00,24.6,17.8,30.10,WSW,240,0.0,0.0,75,0.00,,OVC150,0.00,VWS V14.01,2013-01-24 01:57:00,
2013-01-23 20:58:00,24.4,17.6,30.10,WSW,241,0.0,0.0,75,0.00,,OVC150,0.00,VWS V14.01,2013-01-24 01:58:00,
2013-01-23 20:59:00,24.4,17.6,30.10,WSW,240,0.0,0.0,75,0.00,,OVC150,0.00,VWS V14.01,2013-01-24 01:59:00,
2013-01-23 21:00:00,24.4,17.6,30.10,WSW,240,0.0,0.0,75,0.00,,OVC150,0.00,VWS V14.01,2013-01-24 02:00:00,
2013-01-23 21:01:00,24.4,17.6,30.10,WSW,240,0.0,0.0,75,0.00,,OVC150,0.00,VWS V14.01,2013-01-24 02:01:00,
2013-01-23 21:02:00,24.4,17.6,30.10,WSW,240,0.0,0.0,75,0.00,,OVC150,0.00,VWS V14.01,2013-01-24 02:02:00,
2013-01-23 21:03:00,24.4,17.6,30.10,WSW,240,0.0,0.0,75,0.00,,OVC150,0.00,VWS V14.01,2013-01-24 02:03:00,
2013-01-23 21:04:00,24.4,17.6,30.10,WSW,240,0.0,0.0,75,0.00,,OVC150,0.00,VWS V14.01,2013-01-24 02:04:00,
2013-01-23 21:05:00,24.4,17.6,30.10,WSW,240,0.0,0.0,75,0.00,,OVC150,0.00,VWS V14.01,2013-01-24 02:05:00,
2013-01-23 21:06:00,24.4,17.6,30.10,WSW,240,0.0,0.0,75,0.00,,OVC150,0.00,VWS V14.01,2013-01-24 02:06:00,
2013-01-23 21:07:00,24.4,17.6,30.10,WSW,240,0.0,0.0,75,0.00,,OVC150,0.00,VWS V14.01,2013-01-24 02:07:00,
2013-01-23 21:08:00,24.4,18.1,30.10,WSW,240,0.0,0.0,76,0.00,,OVC150,0.00,VWS V14.01,2013-01-24 02:08:00,
2013-01-23 21:09:00,24.4,18.1,30.10,WSW,240,0.0,0.0,76,0.00,,OVC150,0.00,VWS V14.01,2013-01-24 02:09:00,
2013-01-23 21:10:00,24.4,18.1,30.10,WSW,240,0.0,0.0,76,0.00,,OVC150,0.00,VWS V14.01,2013-01-24 02:10:00,
2013-01-23 21:11:00,24.4,18.1,30.10,WSW,240,0.0,0.0,76,0.00,,OVC150,0.00,VWS V14.01,2013-01-24 02:11:00,
2013-01-23 21:12:00,24.4,18.1,30.10,WSW,240,0.0,0.0,76,0.00,,OVC150,0.00,VWS V14.01,2013-01-24 02:12:00,
2013-01-23 21:13:00,24.4,18.1,30.10,WSW,240,0.0,0.0,76,0.00,,OVC150,0.00,VWS V14.01,2013-01-24 02:13:00,
2013-01-23 21:14:00,24.4,18.1,30.10,WSW,240,0.0,0.0,76,0.00,,OVC150,0.00,VWS V14.01,2013-01-24 02:14:00,
2013-01-23 21:15:00,24.4,18.1,30.10,WSW,240,0.0,0.0,76,0.00,,OVC150,0.00,VWS V14.01,2013-01-24 02:15:00,
2013-01-23 21:16:00,24.3,18.0,30.10,WSW,240,0.0,0.0,76,0.00,,OVC150,0.00,VWS V14.01,2013-01-24 02:16:00,
2013-01-23 21:17:00,24.3,18.0,30.10,WSW,240,0.0,0.0,76,0.00,,OVC150,0.00,VWS V14.01,2013-01-24 02:17:00,
2013-01-23 21:18:00,24.3,18.0,30.10,WSW,240,0.0,0.0,76,0.00,,OVC150,0.00,VWS V14.01,2013-01-24 02:18:00,
2013-01-23 21:19:00,24.3,18.0,30.10,WSW,240,0.0,0.0,76,0.00,,OVC150,0.00,VWS V14.01,2013-01-24 02:19:00,
2013-01-23 21:20:00,24.4,19.1,30.10,WNW,288,0.0,8.5,80,0.00,,OVC150,0.00,VWS V14.01,2013-01-24 02:20:00,
2013-01-23 21:21:00,24.4,19.1,30.10,WNW,288,0.0,0.0,80,0.00,,OVC150,0.00,VWS V14.01,2013-01-24 02:21:00,
2013-01-23 21:22:00,24.4,19.6,30.10,WSW,253,5.2,6.6,82,0.00,,OVC150,0.00,VWS V14.01,2013-01-24 02:22:00,
2013-01-23 21:23:00,24.6,19.8,30.10,WSW,253,3.7,5.6,82,0.00,,OVC150,0.00,VWS V14.01,2013-01-24 02:23:00,
2013-01-23 21:24:00,24.6,19.8,30.10,WSW,253,3.7,5.6,82,0.00,,OVC150,0.00,VWS V14.01,2013-01-24 02:24:00,
2013-01-23 21:25:00,24.8,20.0,30.10,WSW,253,0.0,4.7,82,0.00,,OVC150,0.00,VWS V14.01,2013-01-24 02:25:00,
2013-01-23 21:26:00,25.0,20.2,30.10,WSW,253,3.7,4.7,82,0.00,,OVC150,0.00,VWS V14.01,2013-01-24 02:26:00,
2013-01-23 21:27:00,25.0,19.7,30.10,WSW,253,0.0,5.6,80,0.00,,OVC150,0.00,VWS V14.01,2013-01-24 02:27:00,
2013-01-23 21:28:00,25.2,19.8,30.10,WSW,253,0.0,5.6,80,0.00,,OVC150,0.00,VWS V14.01,2013-01-24 02:28:00,
2013-01-23 21:29:00,25.3,20.0,30.10,WSW,253,3.7,4.7,80,0.00,,OVC150,0.00,VWS V14.01,2013-01-24 02:29:00,
2013-01-23 21:30:00,25.3,20.0,30.10,WSW,253,0.0,4.7,80,0.00,,OVC150,0.00,VWS V14.01,2013-01-24 02:30:00,
2013-01-23 21:31:00,25.3,20.0,30.10,WSW,253,0.0,0.0,80,0.00,,OVC150,0.00,VWS V14.01,2013-01-24 02:31:00,
2013-01-23 21:32:00,25.5,20.2,30.10,WSW,253,0.0,0.0,80,0.00,,OVC150,0.00,VWS V14.01,2013-01-24 02:32:00,
2013-01-23 21:33:00,25.5,20.2,30.10,WSW,253,0.0,0.0,80,0.00,,OVC150,0.00,VWS V14.01,2013-01-24 02:33:00,
2013-01-23 21:34:00,25.7,19.9,30.10,WSW,253,3.7,6.6,78,0.00,,OVC150,0.00,VWS V14.01,2013-01-24 02:34:00,
2013-01-23 21:39:00,26.1,20.2,30.10,WSW,253,0.0,0.0,78,0.00,,OVC150,0.00,VWS V14.01,2013-01-24 02:39:00,
2013-01-23 21:44:00,26.4,20.0,30.10,WSW,253,0.0,0.0,76,0.00,,OVC150,0.00,VWS V14.01,2013-01-24 02:44:00,
2013-01-23 21:49:00,26.8,20.4,30.10,WNW,283,4.4,5.6,76,0.00,,OVC150,0.00,VWS V14.01,2013-01-24 02:49:00,
2013-01-23 21:54:00,27.0,20.0,30.10,WNW,283,0.0,0.0,75,0.00,,OVC049,0.00,VWS V14.01,2013-01-24 02:54:00,
2013-01-23 21:59:00,27.5,20.6,30.10,West,267,0.0,8.5,75,0.00,,OVC049,0.00,VWS V14.01,2013-01-24 02:59:00,
2013-01-23 22:04:00,27.9,20.9,30.10,WNW,285,6.6,10.3,75,0.00,,OVC049,0.00,VWS V14.01,2013-01-24 03:04:00,
2013-01-23 22:09:00,28.6,21.1,30.10,WNW,285,5.9,7.5,73,0.00,,OVC049,0.00,VWS V14.01,2013-01-24 03:09:00,
2013-01-23 22:14:00,28.9,21.4,30.10,WNW,302,9.6,12.2,73,0.00,,OVC049,0.00,VWS V14.01,2013-01-24 03:14:00,
2013-01-23 22:19:00,29.3,21.8,30.10,West,265,8.1,16.0,73,0.00,,OVC049,0.00,VWS V14.01,2013-01-24 03:19:00,
2013-01-23 22:24:00,29.5,21.9,30.13,WNW,287,4.4,10.3,73,0.00,,OVC049,0.00,VWS V14.01,2013-01-24 03:24:00,
2013-01-23 22:30:00,29.7,22.1,30.13,WNW,287,12.5,16.9,73,0.00,,OVC049,0.00,VWS V14.01,2013-01-24 03:30:00,
2013-01-23 22:35:00,29.7,21.6,30.13,WNW,288,9.6,21.1,71,0.00,,OVC049,0.00,VWS V14.01,2013-01-24 03:35:00,
2013-01-23 22:40:00,29.7,22.1,30.13,WSW,258,5.9,12.2,73,0.00,,BKN046,0.00,VWS V14.01,2013-01-24 03:40:00,
2013-01-23 22:45:00,29.7,21.6,30.13,SW,236,5.9,11.3,71,0.00,,BKN046,0.00,VWS V14.01,2013-01-24 03:45:00,
2013-01-23 22:50:00,29.7,22.1,30.13,West,270,10.3,17.4,73,0.00,,BKN046,0.00,VWS V14.01,2013-01-24 03:50:00,
2013-01-23 22:55:00,29.7,22.1,30.13,WNW,303,9.6,12.2,73,0.00,,BKN046,0.00,VWS V14.01,2013-01-24 03:55:00,
2013-01-23 23:00:00,29.5,21.9,30.13,WSW,241,5.9,7.5,73,0.00,,BKN046,0.00,VWS V14.01,2013-01-24 04:00:00,
2013-01-23 23:05:00,29.5,21.9,30.13,West,274,10.3,13.2,73,0.00,,BKN046,0.00,VWS V14.01,2013-01-24 04:05:00,
2013-01-23 23:10:00,29.5,21.9,30.13,West,274,10.3,13.2,73,0.00,,BKN046,0.00,VWS V14.01,2013-01-24 04:10:00,
2013-01-23 23:15:00,29.5,21.9,30.13,West,279,9.6,12.2,73,0.00,,BKN046,0.00,VWS V14.01,2013-01-24 04:15:00,
2013-01-23 23:21:00,29.5,21.9,30.13,West,261,8.9,11.3,73,0.00,,BKN046,0.00,VWS V14.01,2013-01-24 04:21:00,
2013-01-23 23:26:00,29.5,21.9,30.13,NW,321,14.4,18.3,73,0.00,,BKN046,0.00,VWS V14.01,2013-01-24 04:26:00,
2013-01-23 23:31:00,29.3,21.8,30.13,WNW,302,10.3,13.2,73,0.00,,BKN046,0.00,VWS V14.01,2013-01-24 04:31:00,
2013-01-23 23:36:00,29.5,21.9,30.13,WNW,283,13.7,22.1,73,0.00,,BKN046,0.00,VWS V14.01,2013-01-24 04:36:00,
2013-01-23 23:41:00,29.5,21.9,30.13,West,268,8.9,21.1,73,0.00,,BKN050,0.00,VWS V14.01,2013-01-24 04:41:00,
2013-01-23 23:46:00,29.5,21.9,30.13,West,263,13.7,17.4,73,0.00,,BKN050,0.00,VWS V14.01,2013-01-24 04:46:00,
2013-01-23 23:51:00,29.5,21.9,30.13,WNW,290,16.6,21.1,73,0.00,,BKN050,0.00,VWS V14.01,2013-01-24 04:51:00,
2013-01-23 23:56:00,29.3,21.8,30.13,WNW,283,9.6,18.3,73,0.00,,BKN050,0.00,VWS V14.01,2013-01-24 04:56:00,